[[[{"header":{"parameterUnit":"kt","parameterCategory":2,"dx":1,"dy":1,"la1":29.587661999999998,"la2":31.0,"lo1":-88.76705300000003,"lo2":-86.6583820000003,"nx":115,"ny":88,"refTime":"2022-11-01T06:00:00:Z","depth":0,"parameterNumber":1,"parameterNumberName":"U-component_of_WINDS"},"data":[-3.3003,-3.3003,-3.3003,-3.3003,-3.3003,-3.3003,-3.3003,-3.3003,-3.3003,-3.3003,-3.3003,-3.3003,-3.3003,-3.3003,-3.2963,-3.2831,-3.2594,-3.2357,-3.204,-3.1724,-3.1632,-3.1473,-3.1328,-3.1289,-3.1262,-3.1262,-3.1262,-3.1262,-3.1262,-3.1262,-3.1262,-3.1262,-3.1262,-3.1262,-3.1262,-3.1262,-3.1262,-3.1262,-3.1262,-3.1262,-3.1262,-3.1262,-3.1262,-3.1262,-3.1262,-3.1262,-3.1262,-3.1262,-3.1262,-3.1262,-3.1262,-3.1262,-3.1223,-3.1183,-3.1131,-3.1051,-3.0854,-3.0775,-3.0656,-3.0458,-3.0339,-3.0274,-3.0063,-2.9878,-2.9812,-2.9641,-2.9614,-2.9561,-2.9548,-2.9522,-2.9509,-2.9509,-2.9509,-2.9509,-2.9482,-2.9482,-2.9403,-2.9377,-2.9311,-2.9179,-2.91,-2.906,-2.9008,-2.8929,-2.8757,-2.8731,-2.8704,-2.8573,-2.8559,-2.8467,-2.8362,-2.8256,-2.8137,-2.7966,-2.7847,-2.7808,-2.7795,-2.7795,-2.7795,-2.7795,-2.7795,-2.7795,-2.7716,-2.7623,-2.765,-2.7636,-2.7505,-2.7346,-2.7307,-2.7228,-2.699,-2.6705,-2.6832,-2.6793,-2.6753,-3.3003,-3.3003,-3.3003,-3.3003,-3.3003,-3.3003,-3.3003,-3.3003,-3.3003,-3.3003,-3.3003,-3.299,-3.3003,-3.2897,-3.2752,-3.2634,-3.2235,-3.2119,-3.1895,-3.1632,-3.1447,-3.1342,-3.1276,-3.1262,-3.1262,-3.1262,-3.1262,-3.1262,-3.1262,-3.1262,-3.1262,-3.1262,-3.1262,-3.1262,-3.1262,-3.1262,-3.1262,-3.1262,-3.1262,-3.1262,-3.1262,-3.1262,-3.1262,-3.1262,-3.1262,-3.1262,-3.1262,-3.1262,-3.1262,-3.1262,-3.1262,-3.1236,-3.1183,-3.0999,-3.0933,-3.0801,-3.0616,-3.0484,-3.0392,-3.0181,-3.0063,-2.9944,-2.9707,-2.9588,-2.9588,-2.9535,-2.9535,-2.9522,-2.9522,-2.9509,-2.9509,-2.9509,-2.9496,-2.9482,-2.9443,-2.9416,-2.9271,-2.914,-2.8968,-2.877,-2.8744,-2.8731,-2.8704,-2.8704,-2.8639,-2.8599,-2.8507,-2.8362,-2.8243,-2.8177,-2.8124,-2.8019,-2.7966,-2.7913,-2.7821,-2.7795,-2.7795,-2.7781,-2.7716,-2.7768,-2.7755,-2.7623,-2.7518,-2.7465,-2.736,-2.7294,-2.7188,-2.7069,-2.7017,-2.6964,-2.6666,-2.6766,-2.6727,-2.6687,-2.6595,-3.3003,-3.3003,-3.3003,-3.3003,-3.3003,-3.3003,-3.3003,-3.3003,-3.3003,-3.3003,-3.299,-3.2845,-3.2752,-3.2713,-3.2449,-3.2251,-3.2014,-3.179,-3.1645,-3.1487,-3.1328,-3.1262,-3.1262,-3.1262,-3.1262,-3.1262,-3.1262,-3.1262,-3.1262,-3.1262,-3.1262,-3.1262,-3.1262,-3.1262,-3.1262,-3.1262,-3.1262,-3.1262,-3.1262,-3.1262,-3.1262,-3.1262,-3.1262,-3.1262,-3.1262,-3.1262,-3.1262,-3.1262,-3.1262,-3.1262,-3.1236,-3.1196,-3.0972,-3.0748,-3.0603,-3.0511,-3.0339,-3.0155,-3.0076,-2.9917,-2.972,-2.9707,-2.9548,-2.9535,-2.9509,-2.9509,-2.9509,-2.9496,-2.9496,-2.9456,-2.9456,-2.939,-2.9377,-2.9311,-2.9245,-2.9166,-2.9008,-2.8876,-2.8731,-2.8533,-2.8454,-2.8428,-2.8388,-2.8375,-2.8256,-2.8203,-2.8151,-2.7992,-2.7966,-2.7927,-2.7874,-2.7821,-2.7847,-2.7821,-2.7742,-2.7742,-2.7716,-2.7676,-2.7623,-2.7597,-2.7505,-2.7412,-2.7307,-2.7175,-2.7069,-2.699,-2.6885,-2.6793,-2.6727,-2.6509,-2.6648,-2.6634,-2.6661,-2.6648,-2.6727,-3.2897,-3.2911,-3.2976,-3.3003,-3.3003,-3.3003,-3.3003,-3.3003,-3.2871,-3.2766,-3.2752,-3.2555,-3.2449,-3.241,-3.2146,-3.1948,-3.1737,-3.1618,-3.146,-3.1342,-3.1276,-3.1262,-3.1262,-3.1262,-3.1262,-3.1262,-3.1262,-3.1262,-3.1262,-3.1262,-3.1262,-3.1262,-3.1262,-3.1262,-3.1262,-3.1262,-3.1262,-3.1262,-3.1262,-3.1262,-3.1262,-3.1262,-3.1262,-3.1262,-3.1262,-3.1262,-3.1262,-3.1249,-3.1223,-3.1157,-3.1157,-3.0999,-3.0735,-3.0445,-3.0313,-3.0234,-3.0023,-2.9891,-2.9799,-2.968,-2.9575,-2.9535,-2.9522,-2.9509,-2.9509,-2.9509,-2.9496,-2.9482,-2.9456,-2.9416,-2.9364,-2.9285,-2.9192,-2.9087,-2.8981,-2.8849,-2.8704,-2.8612,-2.852,-2.8362,-2.8217,-2.8137,-2.8085,-2.7992,-2.7834,-2.7795,-2.7795,-2.7795,-2.7821,-2.7808,-2.7781,-2.7768,-2.7768,-2.7702,-2.7663,-2.761,-2.7505,-2.7452,-2.7346,-2.7294,-2.7241,-2.7149,-2.7056,-2.6911,-2.6779,-2.6674,-2.6582,-2.6502,-2.645,-2.6397,-2.6371,-2.6357,-2.6397,-2.6806,-2.6951,-3.2594,-3.262,-3.2897,-3.2963,-3.3003,-3.2963,-3.2963,-3.295,-3.2449,-3.2199,-3.2225,-3.2172,-3.2159,-3.2106,-3.1869,-3.1698,-3.1605,-3.1447,-3.1315,-3.1262,-3.1262,-3.1262,-3.1262,-3.1262,-3.1262,-3.1262,-3.1262,-3.1262,-3.1262,-3.1262,-3.1262,-3.1262,-3.1262,-3.1262,-3.1262,-3.1262,-3.1262,-3.1262,-3.1262,-3.1262,-3.1262,-3.1262,-3.1262,-3.1262,-3.1262,-3.1262,-3.1262,-3.121,-3.1144,-3.0946,-3.0814,-3.0709,-3.0445,-3.0181,-3.0049,-2.9917,-2.9746,-2.9654,-2.9588,-2.9561,-2.9509,-2.9509,-2.9509,-2.9509,-2.9482,-2.9469,-2.943,-2.9403,-2.9192,-2.9126,-2.9087,-2.9008,-2.8876,-2.8744,-2.8665,-2.8586,-2.8441,-2.8322,-2.8217,-2.8098,-2.7979,-2.7966,-2.7913,-2.7913,-2.7795,-2.7795,-2.7795,-2.7795,-2.7795,-2.7768,-2.7742,-2.7729,-2.7636,-2.7518,-2.7465,-2.736,-2.7254,-2.7149,-2.7017,-2.6938,-2.6924,-2.6872,-2.6793,-2.6661,-2.6502,-2.6397,-2.6318,-2.6252,-2.6199,-2.6212,-2.6239,-2.6146,-2.645,-2.6977,-2.7162,-3.2291,-3.2304,-3.2423,-3.2475,-3.2475,-3.2475,-3.2462,-3.2423,-3.2225,-3.2106,-3.2093,-3.1935,-3.1869,-3.1816,-3.1592,-3.1447,-3.1434,-3.1302,-3.1262,-3.1262,-3.1262,-3.1262,-3.1262,-3.1262,-3.1262,-3.1262,-3.1262,-3.1262,-3.1262,-3.1262,-3.1262,-3.1262,-3.1262,-3.1262,-3.1262,-3.1262,-3.1262,-3.1262,-3.1262,-3.1262,-3.1262,-3.1262,-3.1262,-3.1262,-3.1262,-3.1262,-3.1249,-3.1038,-3.0959,-3.084,-3.0603,-3.0432,-3.0155,-3.0023,-2.9931,-2.9693,-2.9561,-2.9535,-2.9509,-2.9509,-2.9509,-2.9509,-2.9509,-2.9496,-2.9456,-2.9337,-2.9285,-2.9219,-2.8995,-2.8823,-2.877,-2.8718,-2.8559,-2.8401,-2.8362,-2.8309,-2.819,-2.8045,-2.794,-2.7821,-2.7795,-2.7795,-2.7795,-2.7795,-2.7795,-2.7795,-2.7795,-2.7781,-2.7742,-2.7636,-2.7544,-2.7518,-2.7412,-2.7294,-2.7175,-2.7056,-2.7004,-2.6924,-2.6753,-2.6634,-2.6621,-2.6555,-2.645,-2.6344,-2.6252,-2.6212,-2.6173,-2.6067,-2.6067,-2.6239,-2.6318,-2.6318,-2.6555,-2.699,-2.7122,-3.2001,-3.2001,-3.2093,-3.2106,-3.2093,-3.1935,-3.1869,-3.1869,-3.1869,-3.1869,-3.1856,-3.1658,-3.1579,-3.1566,-3.1368,-3.1289,-3.1262,-3.1262,-3.1262,-3.1262,-3.1262,-3.1262,-3.1262,-3.1262,-3.1262,-3.1262,-3.1262,-3.1262,-3.1262,-3.1262,-3.1262,-3.1262,-3.1262,-3.1262,-3.1262,-3.1262,-3.1262,-3.1262,-3.1262,-3.1262,-3.1262,-3.1262,-3.1262,-3.1196,-3.117,-3.1091,-3.1025,-3.084,-3.063,-3.055,-3.0353,-3.0128,-2.9865,-2.9812,-2.9786,-2.9535,-2.9509,-2.9509,-2.9509,-2.9509,-2.9509,-2.9509,-2.9416,-2.9416,-2.9311,-2.9153,-2.8968,-2.8876,-2.8704,-2.8573,-2.8493,-2.8375,-2.8217,-2.8124,-2.8085,-2.8045,-2.7992,-2.79,-2.7887,-2.7795,-2.7795,-2.7795,-2.7795,-2.7795,-2.7795,-2.7795,-2.7768,-2.7716,-2.7623,-2.7373,-2.7254,-2.7215,-2.7122,-2.7017,-2.6898,-2.6779,-2.674,-2.6674,-2.6489,-2.6357,-2.6344,-2.6292,-2.612,-2.6081,-2.6133,-2.6094,-2.6041,-2.6041,-2.6041,-2.6212,-2.6305,-2.6437,-2.6568,-2.6727,-2.6872,-3.1711,-3.1763,-3.2001,-3.208,-3.2001,-3.1552,-3.1328,-3.1302,-3.1315,-3.1315,-3.1315,-3.1328,-3.1328,-3.1289,-3.1276,-3.1262,-3.1262,-3.1262,-3.1262,-3.1262,-3.1262,-3.1262,-3.1262,-3.1262,-3.1262,-3.1262,-3.1262,-3.1262,-3.1262,-3.1262,-3.1262,-3.1262,-3.1262,-3.1262,-3.1262,-3.1262,-3.1262,-3.1262,-3.1262,-3.1262,-3.1262,-3.1249,-3.1223,-3.1131,-3.1012,-3.0906,-3.0748,-3.0577,-3.0313,-3.0142,-2.9997,-2.9799,-2.9654,-2.9535,-2.9522,-2.9509,-2.9509,-2.9509,-2.9509,-2.9509,-2.9509,-2.9416,-2.9245,-2.914,-2.9021,-2.8849,-2.8704,-2.8573,-2.8414,-2.8309,-2.823,-2.8072,-2.7927,-2.79,-2.7874,-2.7847,-2.7808,-2.7795,-2.7795,-2.7795,-2.7795,-2.7795,-2.7795,-2.7795,-2.7795,-2.7742,-2.7636,-2.7571,-2.7346,-2.7096,-2.6951,-2.6898,-2.6819,-2.6713,-2.6621,-2.6516,-2.645,-2.6371,-2.6199,-2.6173,-2.612,-2.6067,-2.6041,-2.6041,-2.6041,-2.6041,-2.6041,-2.6041,-2.6041,-2.6054,-2.6133,-2.6278,-2.6516,-2.6634,-2.6687,-3.1421,-3.1434,-3.1526,-3.1552,-3.1513,-3.1342,-3.1262,-3.1262,-3.1262,-3.1262,-3.1262,-3.1262,-3.1262,-3.1262,-3.1262,-3.1262,-3.1262,-3.1262,-3.1262,-3.1262,-3.1262,-3.1262,-3.1262,-3.1262,-3.1262,-3.1262,-3.1262,-3.1262,-3.1262,-3.1262,-3.1262,-3.1262,-3.1262,-3.1262,-3.1262,-3.1262,-3.1262,-3.1262,-3.1262,-3.1262,-3.1249,-3.121,-3.1157,-3.0999,-3.084,-3.0709,-3.0511,-3.03,-3.0063,-2.9944,-2.9799,-2.9614,-2.9561,-2.9509,-2.9509,-2.9509,-2.9509,-2.9509,-2.9509,-2.9509,-2.9377,-2.9245,-2.8968,-2.8823,-2.8757,-2.8533,-2.8414,-2.8283,-2.8098,-2.7992,-2.7953,-2.7927,-2.7834,-2.7834,-2.7821,-2.7821,-2.7795,-2.7795,-2.7795,-2.7795,-2.7795,-2.7795,-2.7795,-2.7781,-2.7702,-2.7584,-2.7465,-2.7267,-2.7043,-2.6819,-2.6648,-2.6568,-2.6476,-2.6397,-2.6305,-2.6252,-2.6199,-2.6067,-2.6067,-2.6094,-2.6041,-2.6041,-2.6041,-2.6041,-2.6041,-2.6041,-2.6041,-2.6041,-2.6041,-2.6041,-2.6041,-2.6212,-2.645,-2.6529,-2.6555,-3.1262,-3.1262,-3.1262,-3.1262,-3.1262,-3.1262,-3.1262,-3.1262,-3.1262,-3.1262,-3.1262,-3.1262,-3.1262,-3.1262,-3.1262,-3.1262,-3.1262,-3.1262,-3.1262,-3.1262,-3.1262,-3.1262,-3.1262,-3.1262,-3.1262,-3.1262,-3.1262,-3.1262,-3.1262,-3.1262,-3.1262,-3.1262,-3.1262,-3.1262,-3.1262,-3.1262,-3.1262,-3.1262,-3.1249,-3.1249,-3.1249,-3.1144,-3.1012,-3.084,-3.0603,-3.0405,-3.0247,-2.9957,-2.9812,-2.9746,-2.9654,-2.9535,-2.9522,-2.9509,-2.9509,-2.9509,-2.9509,-2.9509,-2.9509,-2.9377,-2.9245,-2.8968,-2.8691,-2.8507,-2.8467,-2.823,-2.8111,-2.8019,-2.7913,-2.7861,-2.7795,-2.7795,-2.7795,-2.7795,-2.7795,-2.7795,-2.7795,-2.7795,-2.7795,-2.7795,-2.7795,-2.7795,-2.7742,-2.7702,-2.7491,-2.7333,-2.7069,-2.6859,-2.6766,-2.6555,-2.6384,-2.6292,-2.6239,-2.6107,-2.6054,-2.612,-2.6081,-2.6041,-2.6041,-2.6041,-2.6041,-2.6041,-2.6041,-2.6028,-2.6041,-2.6041,-2.6041,-2.6041,-2.6041,-2.6202,-2.6041,-2.616,-2.8184,-2.9037,-2.846,-3.1262,-3.1262,-3.1262,-3.1262,-3.1262,-3.1262,-3.1262,-3.1262,-3.1262,-3.1262,-3.1262,-3.1262,-3.1262,-3.1262,-3.1262,-3.1262,-3.1262,-3.1262,-3.1262,-3.1262,-3.1262,-3.1262,-3.1262,-3.1262,-3.1262,-3.1262,-3.1262,-3.1262,-3.1262,-3.1262,-3.1262,-3.1262,-3.1262,-3.1262,-3.1262,-3.1262,-3.1262,-3.1249,-3.1236,-3.121,-3.1144,-3.0933,-3.0788,-3.059,-3.0313,-3.0076,-2.9944,-2.9707,-2.9614,-2.9601,-2.9535,-2.9509,-2.9509,-2.9509,-2.9509,-2.9509,-2.9509,-2.9509,-2.9482,-2.9232,-2.8955,-2.8665,-2.8388,-2.8217,-2.8151,-2.8006,-2.7847,-2.79,-2.7821,-2.7795,-2.7795,-2.7795,-2.7795,-2.7795,-2.7795,-2.7795,-2.7795,-2.7795,-2.7795,-2.7795,-2.7795,-2.7755,-2.7663,-2.7518,-2.7254,-2.6977,-2.6674,-2.6516,-2.6463,-2.6318,-2.6186,-2.612,-2.612,-2.6041,-2.6041,-2.6041,-2.6041,-2.6041,-2.6041,-2.6041,-2.6041,-2.6041,-2.6028,-2.6001,-2.5988,-2.5975,-2.6001,-2.6202,-2.7154,-2.7944,-2.7154,-2.8746,-3.0781,-3.2409,-3.2491,-3.1262,-3.1262,-3.1262,-3.1262,-3.1262,-3.1262,-3.1262,-3.1262,-3.1636,-3.1262,-3.1262,-3.1262,-3.1262,-3.1262,-3.1443,-3.1829,-3.2215,-3.2215,-3.1829,-3.1636,-3.1829,-3.1262,-3.1262,-3.1262,-3.1262,-3.1262,-3.1262,-3.1262,-3.1262,-3.1262,-3.1262,-3.1262,-3.1262,-3.1262,-3.1262,-3.1262,-3.1262,-3.1196,-3.1091,-3.0959,-3.092,-3.0669,-3.0471,-3.0208,-3.0063,-2.9865,-2.968,-2.9601,-2.9509,-2.9509,-2.9509,-2.9509,-2.9509,-2.9509,-2.9509,-2.9509,-2.9509,-2.9509,-2.9377,-2.9087,-2.8652,-2.8401,-2.8111,-2.7966,-2.7913,-2.7861,-2.7795,-2.7795,-2.7795,-2.7795,-2.7795,-2.7795,-2.7795,-2.7795,-2.7795,-2.7795,-2.7795,-2.7716,-2.7742,-2.7716,-2.7584,-2.7478,-2.7373,-2.7228,-2.6951,-2.6661,-2.641,-2.6278,-2.6239,-2.6173,-2.6041,-2.6041,-2.6041,-2.6041,-2.6041,-2.6041,-2.6041,-2.6041,-2.6001,-2.6015,-2.6041,-2.6041,-2.6028,-2.6778,-2.6898,-2.6069,-2.6737,-2.7901,-2.8877,-2.9838,-3.2217,-3.4444,-3.6169,-3.6309,-3.6467,-3.4294,-3.4486,-3.6393,-3.7145,-3.7145,-3.7145,-3.7145,-3.7145,-3.7145,-3.7145,-3.7528,-3.7145,-3.7145,-3.7336,-3.7145,-3.7145,-3.7145,-3.7145,-3.6009,-3.5049,-3.3731,-3.2974,-3.1443,-3.1262,-3.1443,-3.1262,-3.1262,-3.1262,-3.1262,-3.1262,-3.1262,-3.1262,-3.1262,-3.1456,-3.1456,-3.1262,-3.1183,-3.1078,-3.092,-3.0748,-3.0656,-3.0379,-3.0142,-2.9944,-2.9891,-2.968,-2.9548,-2.9522,-2.9509,-2.9509,-2.9509,-2.9509,-2.9509,-2.9509,-2.9509,-2.9509,-2.9377,-2.9337,-2.9245,-2.8823,-2.8428,-2.8164,-2.7966,-2.7808,-2.7821,-2.7795,-2.7795,-2.7795,-2.7795,-2.7795,-2.7795,-2.7795,-2.7795,-2.7795,-2.7795,-2.7795,-2.7742,-2.761,-2.7571,-2.7505,-2.736,-2.7201,-2.7069,-2.6924,-2.6648,-2.6384,-2.6199,-2.6054,-2.6081,-2.6054,-2.6041,-2.6041,-2.6041,-2.6041,-2.6041,-2.6041,-2.6041,-2.5988,-2.5936,-2.5975,-2.6028,-2.6336,-2.8513,-2.8324,-2.8745,-2.9094,-2.9587,-3.0096,-3.1547,-3.395,-3.6486,-3.9325,-3.9797,-3.9954,-4.0426,-3.9582,-4.0345,-4.4508,-4.5852,-4.5852,-4.6419,-4.623,-4.5095,-4.5663,-4.5474,-4.4906,-4.5852,-4.5095,-4.5474,-4.4716,-4.4906,-4.5852,-4.6419,-4.3009,-4.0345,-3.9026,-3.7336,-3.5063,-3.3538,-3.2588,-3.2588,-3.1456,-3.1456,-3.1443,-3.2022,-3.2588,-3.1829,-3.3153,-3.2588,-3.3345,-3.4783,-3.4268,-3.2612,-3.1062,-3.0739,-3.0339,-3.0102,-2.9917,-2.9838,-3.0034,-2.9874,-2.9509,-3.0407,-3.0772,-2.9509,-2.9509,-2.9509,-2.9509,-2.9509,-2.9456,-2.9403,-2.9258,-2.91,-2.8889,-2.8493,-2.8217,-2.8111,-2.7966,-2.7795,-2.7795,-2.7795,-2.7795,-2.7795,-2.7795,-2.7795,-2.7795,-2.7795,-2.7795,-2.7768,-2.7716,-2.7689,-2.7597,-2.7465,-2.732,-2.7267,-2.7135,-2.6951,-2.6793,-2.6608,-2.6344,-2.6226,-2.6054,-2.6041,-2.6041,-2.6041,-2.6041,-2.6363,-2.6202,-2.6511,-2.6511,-2.7859,-2.9353,-2.961,-3.004,-2.9323,-2.8324,-2.9876,-3.2637,-3.262,-3.2687,-3.2578,-3.2946,-3.5324,-3.7238,-3.8519,-4.0112,-4.2306,-4.3422,-4.4358,-4.4981,-4.6797,-4.9811,-4.7552,-4.6419,-4.6419,-4.6419,-4.6608,-4.6608,-4.6797,-4.6608,-4.6419,-4.6797,-4.6797,-4.6608,-4.7175,-4.7552,-4.6986,-4.6419,-4.5474,-4.5095,-4.4318,-4.3578,-4.1124,-3.8278,-3.6937,-3.6937,-3.4486,-3.2781,-3.3359,-3.4871,-3.6937,-3.6937,-3.6922,-3.8627,-4.1227,-4.1018,-3.9146,-3.6532,-3.3021,-3.1114,-3.0408,-3.0141,-3.0034,-3.0868,-3.2439,-3.3275,-3.0772,-3.2563,-3.22,-3.059,-2.9509,-2.9496,-2.9469,-2.9456,-2.9403,-2.9205,-2.9806,-2.9577,-2.9685,-2.8874,-2.7953,-2.7887,-2.7808,-2.7967,-2.7967,-2.7795,-2.7795,-2.7795,-2.7795,-2.7795,-2.7795,-2.7781,-2.7755,-2.7689,-2.7584,-2.7518,-2.7412,-2.7175,-2.7004,-2.6938,-2.6819,-2.6661,-2.7949,-2.7104,-2.6658,-2.639,-2.6041,-2.6041,-2.6041,-2.6041,-2.6363,-2.7007,-2.7462,-2.8528,-2.9428,-3.1212,-3.2925,-3.3937,-3.5151,-3.5049,-3.4426,-3.5525,-3.6622,-3.6854,-3.6911,-3.742,-3.8519,-4.1126,-4.34,-4.4046,-4.4825,-4.6403,-4.7357,-4.8929,-4.9546,-5.4724,-5.7005,-5.4164,-5.302,-5.302,-5.302,-5.302,-5.302,-5.302,-5.302,-5.302,-5.302,-5.302,-5.3581,-5.302,-5.2833,-5.302,-5.3417,-5.2084,-5.0208,-4.9644,-4.8494,-4.6419,-4.356,-4.2249,-4.1488,-3.9408,-3.7145,-3.866,-4.0917,-4.2249,-4.2023,-4.2088,-4.3679,-4.4544,-4.5134,-4.3492,-4.1247,-3.8107,-3.5176,-3.3375,-3.2847,-3.2745,-3.2926,-3.7403,-3.6682,-3.4528,-3.5598,-3.4166,-3.059,-2.9509,-2.9469,-2.9364,-2.9311,-2.9192,-2.9108,-3.0548,-3.2318,-3.3046,-3.1801,-3.2549,-3.2689,-3.017,-2.9155,-2.9984,-2.9313,-2.7795,-2.7795,-2.7795,-2.7795,-2.7795,-2.7689,-2.7636,-2.7518,-2.7307,-2.7228,-2.7096,-2.6872,-2.7512,-2.6759,-2.6666,-3.0084,-3.2478,-3.2364,-3.2458,-3.1116,-2.9532,-2.8586,-2.7797,-2.7636,-2.7797,-2.8411,-2.9906,-3.1308,-3.3269,-3.4722,-3.659,-3.7913,-3.8961,-3.9036,-3.9157,-4.017,-4.0854,-4.1249,-4.1355,-4.258,-4.4375,-4.5882,-4.6999,-4.8286,-4.9546,-4.9392,-4.9392,-5.0983,-5.0983,-6.1575,-6.1575,-6.1575,-6.1575,-6.118,-6.0995,-6.1364,-6.118,-6.0785,-6.1575,-6.023,-6.118,-6.0811,-6.06,-6.0626,-6.118,-6.0995,-6.0046,-5.7958,-5.5306,-5.4747,-5.3043,-4.9247,-4.7909,-4.7363,-4.6986,-4.6041,-4.6777,-4.6658,-4.6638,-4.7223,-4.6855,-4.6555,-4.7178,-4.8989,-4.9138,-4.6183,-4.5717,-4.5156,-4.2396,-3.8373,-3.7584,-3.7567,-3.8647,-4.152,-4.2415,-3.8467,-3.9187,-3.7387,-3.2912,-3.1276,-3.0231,-2.986,-2.9613,-2.9054,-3.0501,-3.331,-3.7255,-3.9024,-3.7224,-3.6547,-3.7393,-3.4375,-3.2348,-3.2177,-3.0997,-2.8984,-2.8297,-2.7729,-2.7702,-2.7636,-2.8131,-2.8347,-2.8533,-2.9672,-2.9844,-2.9261,-3.1632,-3.0956,-3.0363,-3.1271,-3.4122,-3.656,-3.7314,-3.7592,-3.5061,-3.2678,-3.1116,-3.0013,-3.0333,-3.0477,-3.2354,-3.3954,-3.6069,-3.7893,-3.873,-4.0088,-4.1363,-4.1546,-4.1551,-4.2915,-4.4416,-4.5102,-4.5395,-4.5665,-4.6487,-4.7498,-4.878,-5.047,-5.0983,-5.0496,-5.0829,-5.1317,-5.1291,-5.1291,-6.1575,-6.1575,-6.1575,-6.1575,-6.1575,-6.1575,-6.1575,-6.1575,-6.1575,-6.1575,-6.1575,-6.1575,-6.1575,-6.1575,-6.1575,-6.1575,-6.1575,-6.1575,-6.0995,-5.9675,-5.949,-5.9675,-5.7191,-5.512,-5.2481,-5.1897,-4.9748,-4.831,-5.1021,-5.1697,-5.1453,-5.1254,-5.1055,-5.2607,-5.5463,-5.4694,-5.3404,-5.1739,-4.9772,-4.7196,-4.3507,-4.2415,-4.2415,-4.2773,-4.6871,-4.7248,-4.3289,-4.5052,-4.4142,-4.0317,-3.6956,-3.4632,-3.4003,-3.0974,-3.0226,-3.3344,-3.7571,-3.9832,-4.1251,-4.0242,-4.0578,-4.2425,-3.9569,-3.7055,-3.57,-3.4343,-3.1805,-2.86,-2.7781,-2.7948,-2.9078,-3.0319,-3.1803,-3.252,-3.4391,-3.6365,-3.5487,-3.5024,-3.4511,-3.6176,-3.6243,-3.7769,-3.9365,-4.0269,-4.0583,-3.8203,-3.7257,-3.5536,-3.3654,-3.3688,-3.4339,-3.629,-3.8244,-4.0388,-4.2118,-4.2959,-4.3863,-4.5148,-4.5387,-4.5271,-4.6747,-4.8097,-4.8859,-4.8984,-4.9237,-4.8774,-5.0034,-5.1137,-5.1317,-5.1317,-5.1317,-5.1317,-5.1317,-5.1317,-5.1317,-6.1575,-6.1575,-6.1575,-6.1575,-6.1575,-6.1575,-6.1575,-6.1575,-6.1575,-6.1575,-6.1575,-6.1575,-6.1575,-6.1575,-6.1575,-6.1575,-6.1575,-6.1575,-6.1575,-6.1575,-6.1575,-6.1575,-6.0811,-5.9095,-5.7958,-5.6699,-5.4768,-5.4554,-5.6237,-5.6212,-5.6273,-5.5932,-5.5664,-5.687,-5.8782,-5.89,-5.7005,-5.5671,-5.4369,-5.2067,-4.778,-4.7248,-4.7226,-4.8489,-5.1339,-5.1515,-4.8622,-4.9924,-4.8141,-4.4139,-4.0655,-3.8098,-3.6264,-3.5269,-3.6776,-4.0545,-4.3303,-4.5288,-4.7285,-4.5455,-4.5621,-4.662,-4.3095,-4.1083,-4.054,-3.8392,-3.5428,-3.2193,-3.0481,-3.0942,-3.2743,-3.4872,-3.5987,-3.6366,-3.7363,-3.8413,-3.8653,-3.8517,-4.0959,-4.4069,-4.3734,-4.3578,-4.4046,-4.3422,-4.3266,-4.2775,-4.1837,-3.9949,-3.7717,-3.7638,-3.7911,-3.9786,-4.1786,-4.4243,-4.6856,-4.7385,-4.7802,-4.9016,-4.9551,-4.9576,-5.0266,-5.001,-5.0752,-5.1317,-5.1317,-5.0521,-5.1317,-5.1317,-5.1317,-5.1317,-5.1317,-5.1317,-5.1317,-5.1317,-5.1317,-6.1575,-6.1575,-6.1575,-6.1575,-6.1575,-6.1575,-6.1575,-6.1575,-6.1575,-6.1575,-6.1575,-6.1575,-6.1575,-6.1575,-6.1575,-6.1575,-6.1575,-6.1575,-6.1575,-6.1575,-6.1575,-6.1575,-6.1523,-6.0657,-6.0712,-6.103,-5.9733,-5.8629,-5.9219,-5.9705,-5.8656,-5.9089,-5.8728,-5.8495,-5.8542,-5.8433,-5.7876,-5.7326,-5.7275,-5.5826,-5.2771,-5.2067,-5.2067,-5.2595,-5.5103,-5.5078,-5.2511,-5.1287,-4.9402,-4.5661,-4.4053,-4.122,-3.9659,-4.1864,-4.4371,-4.6643,-4.8161,-5.0172,-5.2342,-5.0833,-5.1493,-5.1988,-4.8354,-4.5967,-4.5526,-4.3759,-3.9552,-3.6314,-3.4816,-3.5399,-3.9043,-3.9462,-3.9885,-4.0421,-4.0988,-4.1744,-4.1566,-4.2171,-4.4358,-4.8465,-4.988,-5.0342,-4.9083,-4.831,-4.7368,-4.6298,-4.5788,-4.437,-4.3046,-4.2783,-4.2496,-4.3798,-4.5433,-4.8139,-5.0598,-5.034,-5.0237,-5.1057,-5.1135,-5.1135,-5.1187,-5.1265,-5.1317,-5.1317,-5.1317,-5.1317,-5.1317,-5.1317,-5.1317,-5.1317,-5.1317,-5.1317,-5.1317,-5.1317,-5.1317,-6.1575,-6.1575,-6.1575,-6.1575,-6.1575,-6.1575,-6.1575,-6.1575,-6.1575,-6.1575,-6.1575,-6.1575,-6.1575,-6.1575,-6.1575,-6.1575,-6.1575,-6.1575,-6.1497,-6.1471,-6.1471,-6.1419,-6.1263,-6.0926,-6.0562,-6.0121,-5.9809,-5.9497,-5.9238,-5.9134,-5.8952,-5.851,-5.8329,-5.8381,-5.8329,-5.8173,-5.8147,-5.8147,-5.8147,-5.7249,-5.6525,-5.6525,-5.6325,-5.6199,-5.7359,-5.6558,-5.5914,-5.5166,-5.4644,-5.4108,-5.0155,-4.7579,-4.7366,-4.9842,-5.2013,-4.8161,-5.1518,-5.3493,-5.4124,-5.396,-5.3442,-5.4339,-5.2271,-5.0694,-4.7918,-4.5924,-4.3063,-4.0358,-3.9101,-3.9394,-3.9262,-4.2104,-4.3912,-4.4627,-4.7429,-4.9083,-4.9392,-4.9392,-4.8929,-5.1291,-5.1213,-5.1135,-5.1161,-5.1031,-5.0544,-4.9933,-4.9831,-4.9349,-4.8893,-4.8366,-4.7609,-4.8314,-4.8532,-5.0598,-5.0777,-5.0619,-5.0852,-5.1239,-5.1265,-5.1265,-5.1265,-5.1317,-5.1317,-5.1317,-5.1317,-5.1317,-5.1317,-5.1317,-5.1317,-5.1317,-5.1317,-5.1317,-5.1317,-5.1317,-5.1317,-6.1575,-6.1575,-6.1575,-6.1575,-6.1575,-6.1575,-6.1575,-6.1575,-6.1575,-6.1575,-6.1575,-6.1575,-6.1575,-6.1575,-6.1575,-6.1549,-6.1575,-6.1549,-6.1393,-6.1133,-6.1107,-6.0952,-6.064,-6.0069,-5.9705,-5.9419,-5.9134,-5.8848,-5.864,-5.8536,-5.8433,-5.8173,-5.8147,-5.8147,-5.8147,-5.8147,-5.8147,-5.8147,-5.8147,-5.8147,-5.8147,-5.8147,-5.8069,-5.7679,-5.7186,-5.6848,-5.6822,-5.6303,-5.6069,-5.5359,-5.3397,-5.1929,-5.2202,-5.3544,-5.3708,-5.2177,-5.4011,-5.4589,-5.4303,-5.4251,-5.4284,-5.381,-5.3576,-5.2112,-5.0813,-4.962,-4.7238,-4.4414,-4.4397,-4.562,-4.566,-4.7584,-4.8025,-4.8774,-5.0188,-5.1137,-5.1291,-5.1291,-5.1317,-5.1265,-5.1005,-5.0875,-5.0693,-5.0382,-5.005,-4.977,-4.9693,-4.9667,-4.9681,-4.9888,-4.9966,-5.0278,-5.0875,-5.1161,-5.1005,-5.1057,-5.1291,-5.1317,-5.1317,-5.1317,-5.1317,-5.1317,-5.1317,-5.1317,-5.1317,-5.1317,-5.1317,-5.1317,-5.1317,-5.1317,-5.1317,-5.1317,-5.1317,-5.1317,-5.1317,-6.1575,-6.1575,-6.1575,-6.1575,-6.1575,-6.1575,-6.1575,-6.1575,-6.1575,-6.1575,-6.1575,-6.1575,-6.1471,-6.1367,-6.1315,-6.1289,-6.1107,-6.1081,-6.0978,-6.0536,-6.051,-6.0147,-5.9497,-5.9108,-5.8848,-5.877,-5.8355,-5.8173,-5.8173,-5.8225,-5.8147,-5.8147,-5.8147,-5.8147,-5.8147,-5.8147,-5.8147,-5.8121,-5.7991,-5.7939,-5.7913,-5.7783,-5.7498,-5.716,-5.6719,-5.6433,-5.6199,-5.5732,-5.542,-5.5316,-5.4814,-5.4252,-5.4339,-5.4563,-5.4296,-5.4081,-5.4381,-5.4096,-5.3784,-5.3628,-5.3472,-5.3135,-5.2979,-5.2823,-5.2771,-5.1964,-5.0224,-4.8693,-4.9512,-5.0315,-5.0264,-5.1009,-5.0829,-5.0675,-5.1137,-5.1317,-5.1291,-5.1187,-5.1057,-5.0953,-5.0616,-5.0278,-5.0252,-4.9888,-4.9681,-4.9473,-4.9421,-4.9421,-4.9603,-4.9862,-5.007,-5.0481,-5.0875,-5.1239,-5.1135,-5.1187,-5.1317,-5.1317,-5.1317,-5.1317,-5.1317,-5.1317,-5.1317,-5.1317,-5.1317,-5.1317,-5.1317,-5.1317,-5.1317,-5.1317,-5.1317,-5.1317,-5.1317,-5.1317,-5.1291,-6.1575,-6.1575,-6.1575,-6.1575,-6.1523,-6.1549,-6.1445,-6.1523,-6.1445,-6.1471,-6.1445,-6.1523,-6.1159,-6.0796,-6.077,-6.0536,-6.0095,-6.0224,-6.0069,-6.0043,-5.9861,-5.9445,-5.8614,-5.8407,-5.8355,-5.8303,-5.8225,-5.8147,-5.8147,-5.8147,-5.8147,-5.8121,-5.8121,-5.8121,-5.8043,-5.8043,-5.8121,-5.7939,-5.7576,-5.7394,-5.7342,-5.703,-5.677,-5.6563,-5.6381,-5.6147,-5.5654,-5.5212,-5.4823,-5.4961,-5.4909,-5.4805,-5.4727,-5.4147,-5.3966,-5.3888,-5.3576,-5.3265,-5.3109,-5.3083,-5.3031,-5.2823,-5.2433,-5.2226,-5.2148,-5.181,-5.1164,-5.0056,-5.1035,-5.1317,-5.1317,-5.1317,-5.1317,-5.1291,-5.1239,-5.1265,-5.1213,-5.0849,-5.0538,-5.0512,-5.0018,-4.9733,-4.9655,-4.9577,-4.9395,-4.8902,-4.885,-4.8979,-4.9317,-4.9629,-4.9992,-5.0434,-5.0927,-5.1291,-5.1317,-5.1317,-5.1317,-5.1317,-5.1317,-5.1317,-5.1317,-5.1317,-5.1317,-5.1317,-5.1317,-5.1317,-5.1317,-5.1317,-5.1317,-5.1317,-5.1317,-5.1317,-5.1239,-5.1109,-5.0901,-6.1056,-6.103,-6.0718,-6.0562,-6.0562,-6.0562,-6.0562,-6.0562,-6.0588,-6.0562,-6.0562,-6.0562,-6.0432,-6.0224,-6.0199,-6.0069,-5.9887,-5.9861,-5.9835,-5.9809,-5.9523,-5.8926,-5.8329,-5.8147,-5.8147,-5.8147,-5.8147,-5.8121,-5.8121,-5.8147,-5.8147,-5.8069,-5.7835,-5.7679,-5.7653,-5.7368,-5.716,-5.7134,-5.6952,-5.6796,-5.6822,-5.6563,-5.6303,-5.6017,-5.5939,-5.568,-5.516,-5.5013,-5.47,-5.4277,-5.4173,-5.4044,-5.3893,-5.3472,-5.3368,-5.3342,-5.3135,-5.2823,-5.2589,-5.2485,-5.2356,-5.2044,-5.1836,-5.1654,-5.1602,-5.1473,-5.1317,-5.1317,-5.1317,-5.1317,-5.1317,-5.1317,-5.1317,-5.1213,-5.0693,-5.0304,-5.0304,-5.0122,-4.9992,-4.981,-4.9473,-4.9109,-4.9109,-4.8772,-4.8512,-4.8356,-4.833,-4.8668,-4.9083,-4.9421,-4.9862,-5.0642,-5.1239,-5.1291,-5.1317,-5.1317,-5.1317,-5.1317,-5.1317,-5.1317,-5.1317,-5.1317,-5.1317,-5.1317,-5.1317,-5.1317,-5.1317,-5.1317,-5.1239,-5.1213,-5.1291,-5.1213,-5.0901,-5.0693,-5.046,-6.0484,-6.0432,-6.0017,-5.9861,-5.9861,-5.9861,-5.9861,-5.9861,-5.9887,-5.9939,-5.9887,-5.9861,-5.9835,-5.9653,-5.9627,-5.9523,-5.9367,-5.9341,-5.9393,-5.9341,-5.8952,-5.8484,-5.8017,-5.7783,-5.7653,-5.7653,-5.7601,-5.7705,-5.7705,-5.7627,-5.7627,-5.7679,-5.7238,-5.7082,-5.7056,-5.6693,-5.629,-5.6433,-5.6329,-5.6225,-5.6199,-5.6069,-5.5784,-5.5394,-5.5368,-5.5134,-5.4935,-5.4883,-5.4381,-5.3706,-5.3628,-5.342,-5.3109,-5.2875,-5.2771,-5.2745,-5.2615,-5.233,-5.1992,-5.1914,-5.1732,-5.1343,-5.1369,-5.1317,-5.1317,-5.1317,-5.1317,-5.1317,-5.1317,-5.1317,-5.1265,-5.1161,-5.1057,-5.0953,-5.0252,-4.9707,-4.9655,-4.9499,-4.9369,-4.9317,-4.8876,-4.859,-4.846,-4.8226,-4.7967,-4.7993,-4.8174,-4.8512,-4.9265,-4.9733,-5.02,-5.0927,-5.1291,-5.1291,-5.1317,-5.1317,-5.1317,-5.1317,-5.1317,-5.1317,-5.1317,-5.1317,-5.1317,-5.1291,-5.1291,-5.1265,-5.1265,-5.1187,-5.1083,-5.0979,-5.0927,-5.0745,-5.046,-5.0226,-4.9992,-5.9887,-5.9887,-5.9861,-5.9757,-5.9757,-5.9757,-5.9731,-5.9783,-5.9783,-5.9731,-5.9757,-5.9679,-5.9497,-5.9134,-5.9056,-5.8822,-5.8355,-5.8381,-5.8407,-5.8251,-5.8147,-5.7861,-5.7342,-5.6952,-5.677,-5.6693,-5.6497,-5.6641,-5.6744,-5.6744,-5.6367,-5.6667,-5.6589,-5.6485,-5.6459,-5.6433,-5.6303,-5.6199,-5.5862,-5.5654,-5.5628,-5.5186,-5.5013,-5.4987,-5.4987,-5.4909,-5.4779,-5.4648,-5.4206,-5.3346,-5.3005,-5.2979,-5.2875,-5.2459,-5.2174,-5.2174,-5.168,-5.1499,-5.1395,-5.1447,-5.1343,-5.1239,-5.1213,-5.1291,-5.1135,-5.1057,-5.1083,-5.1109,-5.1135,-5.1187,-5.1083,-5.0797,-5.0512,-5.0434,-4.9785,-4.9447,-4.9499,-4.9057,-4.885,-4.8694,-4.833,-4.7941,-4.7993,-4.7967,-4.7889,-4.7967,-4.833,-4.8824,-4.9473,-5.0018,-5.0616,-5.0979,-5.1265,-5.1317,-5.1317,-5.1317,-5.1317,-5.1317,-5.1317,-5.1317,-5.1317,-5.1317,-5.1317,-5.1265,-5.1239,-5.1239,-5.1187,-5.0979,-5.0849,-5.0642,-5.0382,-5.0174,-4.9966,-4.9733,-4.9499,-5.9341,-5.929,-5.8926,-5.8796,-5.8796,-5.8796,-5.8796,-5.8796,-5.877,-5.8796,-5.8796,-5.8796,-5.8666,-5.851,-5.8484,-5.8355,-5.8173,-5.8147,-5.7783,-5.716,-5.7082,-5.6978,-5.677,-5.6537,-5.629,-5.629,-5.629,-5.629,-5.629,-5.629,-5.629,-5.6186,-5.6095,-5.5913,-5.5887,-5.5576,-5.5368,-5.5316,-5.516,-5.503,-5.5005,-5.4987,-5.4883,-5.4857,-5.4857,-5.47,-5.4122,-5.3446,-5.2745,-5.2148,-5.2278,-5.2252,-5.1966,-5.1758,-5.1602,-5.1576,-5.1421,-5.1291,-5.1317,-5.1239,-5.1161,-5.0849,-5.0771,-5.0642,-5.0304,-5.0226,-5.0226,-5.0226,-5.0252,-5.0226,-5.0226,-5.0018,-4.9759,-4.9447,-4.8902,-4.8564,-4.8486,-4.833,-4.8226,-4.82,-4.8045,-4.7915,-4.7889,-4.7889,-4.7889,-4.7967,-4.8382,-4.8953,-4.9525,-5.0096,-5.0642,-5.1083,-5.1265,-5.1317,-5.1317,-5.1317,-5.1317,-5.1317,-5.1265,-5.1187,-5.1135,-5.1109,-5.1057,-5.0979,-5.0849,-5.0771,-5.0538,-5.0434,-5.0382,-5.0148,-4.9888,-4.9603,-4.9265,-4.9109,-4.9083,-5.8744,-5.8692,-5.8329,-5.8147,-5.8147,-5.8147,-5.8147,-5.8147,-5.8147,-5.8043,-5.7913,-5.7887,-5.7783,-5.7653,-5.7627,-5.7627,-5.7627,-5.7601,-5.7212,-5.6419,-5.6315,-5.6381,-5.6225,-5.6173,-5.6095,-5.5939,-5.5913,-5.5887,-5.5887,-5.5862,-5.5887,-5.5836,-5.5498,-5.5342,-5.529,-5.5091,-5.4883,-5.4883,-5.4883,-5.4883,-5.4857,-5.47,-5.4492,-5.4173,-5.3992,-5.3524,-5.2823,-5.2044,-5.1369,-5.0823,-5.1291,-5.1525,-5.1317,-5.1135,-5.1031,-5.1031,-5.0875,-5.0771,-5.0771,-5.0719,-5.0538,-5.0278,-5.0174,-4.9966,-4.9655,-4.9629,-4.9629,-4.9629,-4.9603,-4.9603,-4.9551,-4.9447,-4.9083,-4.8538,-4.8122,-4.7941,-4.7967,-4.7915,-4.7889,-4.7889,-4.7889,-4.7889,-4.7889,-4.8148,-4.82,-4.8252,-4.8876,-4.9421,-4.9862,-5.0408,-5.0901,-5.1187,-5.1239,-5.1317,-5.1317,-5.1317,-5.1317,-5.1317,-5.1057,-5.0849,-5.0797,-5.0745,-5.0642,-5.0512,-5.033,-5.0122,-4.9836,-4.9681,-4.9629,-4.9499,-4.9395,-4.9057,-4.8642,-4.8538,-4.8616,-5.8173,-5.8147,-5.8147,-5.8017,-5.7991,-5.7991,-5.8095,-5.8017,-5.8043,-5.7731,-5.7342,-5.7316,-5.7056,-5.6641,-5.6497,-5.6485,-5.6459,-5.6459,-5.6381,-5.6303,-5.6303,-5.6043,-5.5628,-5.5602,-5.5342,-5.4901,-5.4961,-5.4935,-5.5013,-5.4901,-5.5039,-5.4961,-5.4771,-5.4719,-5.4857,-5.4537,-5.4727,-5.4622,-5.4518,-5.4622,-5.4779,-5.3966,-5.3472,-5.3031,-5.2382,-5.1602,-5.0715,-5.0486,-5.0174,-4.9707,-5.0148,-5.0719,-5.0901,-5.0693,-5.0611,-5.0382,-4.9966,-4.9681,-4.9681,-4.9733,-4.9759,-4.9603,-4.9603,-4.9551,-4.9395,-4.9421,-4.9421,-4.9395,-4.9421,-4.9499,-4.9369,-4.9031,-4.8538,-4.8019,-4.7941,-4.7889,-4.7889,-4.7889,-4.7889,-4.7889,-4.7889,-4.7889,-4.7993,-4.8304,-4.8616,-4.8798,-4.9525,-5.0403,-5.0481,-5.0797,-5.1187,-5.1317,-5.1317,-5.1317,-5.1317,-5.1291,-5.1265,-5.1161,-5.0719,-5.046,-5.0356,-5.0278,-5.0174,-5.0044,-4.9862,-4.9603,-4.9343,-4.9109,-4.9031,-4.8902,-4.8902,-4.872,-4.8538,-4.8408,-4.8382,-5.7939,-5.755,-5.716,-5.7004,-5.7004,-5.7004,-5.7004,-5.7004,-5.7004,-5.69,-5.677,-5.6719,-5.6615,-5.629,-5.629,-5.6069,-5.5316,-5.5264,-5.5264,-5.5264,-5.5264,-5.516,-5.5005,-5.5005,-5.5065,-5.4883,-5.4883,-5.4883,-5.4883,-5.4883,-5.4883,-5.4805,-5.4303,-5.4122,-5.3992,-5.3342,-5.2979,-5.2875,-5.2563,-5.2407,-5.2382,-5.22,-5.2018,-5.168,-5.0538,-4.9473,-4.8772,-4.9083,-4.8876,-4.82,-4.9161,-4.9603,-4.9135,-4.9551,-4.9862,-4.9862,-4.9681,-4.9603,-4.9603,-4.9603,-4.9421,-4.9083,-4.9005,-4.8824,-4.8486,-4.8434,-4.8434,-4.8434,-4.8434,-4.8434,-4.8408,-4.8304,-4.8096,-4.7941,-4.7889,-4.7889,-4.7889,-4.7889,-4.7889,-4.7889,-4.7889,-4.7889,-4.7941,-4.8408,-4.8694,-4.8772,-4.9733,-5.0559,-5.0512,-5.0927,-5.1317,-5.1291,-5.1265,-5.1187,-5.1135,-5.0616,-5.033,-5.0278,-4.9966,-4.9888,-4.981,-4.9759,-4.9655,-4.9577,-4.9395,-4.9135,-4.8902,-4.8642,-4.8434,-4.8252,-4.8304,-4.8512,-4.8512,-4.8382,-4.846,-5.7316,-5.6978,-5.6615,-5.629,-5.629,-5.629,-5.629,-5.629,-5.629,-5.6355,-5.6173,-5.6147,-5.6017,-5.581,-5.5602,-5.4979,-5.4147,-5.4258,-5.4258,-5.4258,-5.4258,-5.4258,-5.4258,-5.4258,-5.4096,-5.4258,-5.4258,-5.4258,-5.4258,-5.4258,-5.3992,-5.3758,-5.3394,-5.3109,-5.2849,-5.22,-5.1836,-5.181,-5.1499,-5.1317,-5.1343,-5.1083,-5.0668,-5.007,-4.8798,-4.7967,-4.7603,-4.7733,-4.7499,-4.6798,-4.7967,-4.8356,-4.7785,-4.846,-4.8979,-4.8953,-4.8772,-4.8772,-4.8928,-4.8979,-4.8824,-4.8486,-4.8434,-4.8278,-4.7823,-4.7889,-4.7889,-4.7889,-4.7889,-4.7889,-4.7889,-4.7889,-4.7889,-4.7889,-4.7889,-4.7889,-4.7889,-4.7889,-4.7889,-4.7889,-4.7889,-4.7889,-4.8019,-4.8564,-4.9031,-4.9161,-5.0044,-5.0668,-5.0823,-5.0849,-5.0953,-5.0953,-5.0823,-5.0668,-5.0693,-4.9966,-4.9577,-4.9551,-4.9369,-4.9317,-4.9161,-4.9083,-4.8876,-4.8746,-4.8668,-4.846,-4.8408,-4.8174,-4.8148,-4.7993,-4.8071,-4.8278,-4.846,-4.82,-4.8356,-5.6433,-5.6407,-5.6238,-5.6186,-5.6355,-5.6329,-5.6329,-5.6251,-5.6303,-5.6043,-5.5602,-5.5576,-5.5212,-5.4615,-5.4122,-5.355,-5.3242,-5.3242,-5.3268,-5.3109,-5.3242,-5.319,-5.3164,-5.3164,-5.319,-5.332,-5.3161,-5.3268,-5.3083,-5.3005,-5.2693,-5.22,-5.2122,-5.181,-5.1395,-5.1187,-5.1161,-5.1057,-5.0927,-5.1031,-5.0979,-5.046,-4.9369,-4.8045,-4.7317,-4.7032,-4.698,-4.6512,-4.6227,-4.6175,-4.6772,-4.7032,-4.7006,-4.7499,-4.7811,-4.7785,-4.7343,-4.7291,-4.7811,-4.7915,-4.7915,-4.7915,-4.7967,-4.7889,-4.7889,-4.7889,-4.7889,-4.7889,-4.7889,-4.7889,-4.7889,-4.7889,-4.7889,-4.7889,-4.7889,-4.7693,-4.7837,-4.7759,-4.7837,-4.7733,-4.7655,-4.7603,-4.7616,-4.8798,-4.9213,-4.9525,-5.0408,-5.1057,-5.0927,-5.0642,-5.046,-5.033,-5.0044,-4.9603,-4.9525,-4.9265,-4.9317,-4.9239,-4.8876,-4.872,-4.8512,-4.833,-4.8071,-4.7889,-4.7889,-4.7863,-4.7837,-4.7811,-4.7759,-4.7811,-4.7889,-4.8148,-4.8356,-4.8045,-4.82,-5.6199,-5.5862,-5.5836,-5.5576,-5.5186,-5.5186,-5.5186,-5.5186,-5.5186,-5.5108,-5.4953,-5.4953,-5.457,-5.3524,-5.3316,-5.3161,-5.3164,-5.3164,-5.3164,-5.3164,-5.3164,-5.3164,-5.3164,-5.3164,-5.3164,-5.3164,-5.3138,-5.3138,-5.3112,-5.2615,-5.2304,-5.2044,-5.1317,-5.0849,-5.0616,-4.981,-4.9447,-4.9421,-4.9031,-4.8824,-4.872,-4.7863,-4.7162,-4.672,-4.6512,-4.6434,-4.6434,-4.6279,-4.6019,-4.5629,-4.6123,-4.6253,-4.5863,-4.6356,-4.6668,-4.6642,-4.6512,-4.6694,-4.7239,-4.7291,-4.7447,-4.7837,-4.7889,-4.7889,-4.7889,-4.7889,-4.7889,-4.7863,-4.7889,-4.7837,-4.7889,-4.7889,-4.7889,-4.7889,-4.7889,-4.7681,-4.7343,-4.7265,-4.7136,-4.6746,-4.6772,-4.6668,-4.6824,-4.7629,-4.8408,-4.8538,-4.9369,-5.007,-5.0018,-4.9966,-4.9836,-4.981,-4.9707,-4.9265,-4.8512,-4.8408,-4.8356,-4.8304,-4.8252,-4.8071,-4.8071,-4.8019,-4.7837,-4.7291,-4.7291,-4.7239,-4.711,-4.7213,-4.7265,-4.7447,-4.7941,-4.8512,-4.8356,-4.8486,-4.8564,-5.5394,-5.4901,-5.4901,-5.4563,-5.4206,-5.4179,-5.4153,-5.4179,-5.4179,-5.4179,-5.4179,-5.4179,-5.3659,-5.2667,-5.2641,-5.2511,-5.2304,-5.2304,-5.2304,-5.2304,-5.2304,-5.2304,-5.2304,-5.2304,-5.2304,-5.2304,-5.2304,-5.2304,-5.2252,-5.1966,-5.155,-5.1057,-5.02,-4.9629,-4.9343,-4.8512,-4.8071,-4.8045,-4.7499,-4.7213,-4.711,-4.6538,-4.6227,-4.6201,-4.5967,-4.5837,-4.5837,-4.5603,-4.5318,-4.5032,-4.5292,-4.5318,-4.5006,-4.5292,-4.5473,-4.5499,-4.5707,-4.6097,-4.6668,-4.6928,-4.7188,-4.7499,-4.7759,-4.7889,-4.7889,-4.7889,-4.7655,-4.7317,-4.7188,-4.7213,-4.7188,-4.7188,-4.7188,-4.7213,-4.7213,-4.7058,-4.672,-4.672,-4.659,-4.6279,-4.6227,-4.6227,-4.6331,-4.6798,-4.7343,-4.7967,-4.8876,-4.9629,-4.9603,-4.9395,-4.9265,-4.9213,-4.9031,-4.8512,-4.7785,-4.7551,-4.7447,-4.7291,-4.7188,-4.7188,-4.7188,-4.7188,-4.7136,-4.6772,-4.672,-4.6616,-4.646,-4.6876,-4.7162,-4.7499,-4.8096,-4.8382,-4.8408,-4.8408,-4.8148,-5.4251,-5.381,-5.3784,-5.3472,-5.3057,-5.319,-5.3216,-5.319,-5.3164,-5.2927,-5.2641,-5.2693,-5.2356,-5.194,-5.1888,-5.1576,-5.1161,-5.1135,-5.1135,-5.1135,-5.1135,-5.1135,-5.1135,-5.1135,-5.1135,-5.1135,-5.1135,-5.1109,-5.1005,-5.1005,-5.046,-4.9421,-4.8798,-4.8252,-4.7759,-4.7239,-4.698,-4.698,-4.6356,-4.6045,-4.6183,-4.6045,-4.6045,-4.6019,-4.5525,-4.5266,-4.5266,-4.4746,-4.4461,-4.4435,-4.4409,-4.4357,-4.4357,-4.4305,-4.4279,-4.4438,-4.4772,-4.5318,-4.5837,-4.646,-4.6772,-4.6928,-4.7369,-4.7681,-4.7681,-4.7629,-4.7188,-4.6434,-4.6201,-4.6305,-4.6227,-4.6253,-4.6331,-4.6356,-4.6331,-4.6175,-4.6149,-4.6123,-4.6097,-4.6209,-4.5915,-4.6045,-4.5915,-4.5967,-4.6434,-4.7265,-4.8304,-4.9083,-4.9187,-4.8928,-4.8668,-4.8408,-4.8096,-4.7525,-4.7136,-4.698,-4.6824,-4.6408,-4.6253,-4.6331,-4.6408,-4.6356,-4.6175,-4.6201,-4.6123,-4.6279,-4.6538,-4.698,-4.7084,-4.7447,-4.7759,-4.7889,-4.7811,-4.7733,-4.7795,-5.3316,-5.3187,-5.3187,-5.3135,-5.3164,-5.3164,-5.3164,-5.3164,-5.3138,-5.2018,-5.0486,-5.0356,-5.0304,-5.0174,-5.0174,-5.0096,-4.9992,-4.9992,-4.9992,-4.9992,-4.9966,-4.9966,-4.9966,-4.9966,-4.9966,-4.9966,-4.9966,-4.9759,-4.9369,-4.9317,-4.8746,-4.7681,-4.7058,-4.672,-4.659,-4.646,-4.6408,-4.6331,-4.537,-4.4824,-4.4985,-4.485,-4.4985,-4.4824,-4.472,-4.4642,-4.4642,-4.4646,-4.4435,-4.4568,-4.4019,-4.3785,-4.3759,-4.337,-4.311,-4.311,-4.324,-4.3396,-4.3552,-4.4461,-4.524,-4.5681,-4.6253,-4.659,-4.6538,-4.6175,-4.5785,-4.5629,-4.5863,-4.6149,-4.6097,-4.6261,-4.6227,-4.6227,-4.6227,-4.5941,-4.5603,-4.5525,-4.537,-4.4928,-4.4824,-4.485,-4.4985,-4.4985,-4.5162,-4.5889,-4.6902,-4.7785,-4.8174,-4.82,-4.7681,-4.7084,-4.6694,-4.6564,-4.6434,-4.6382,-4.6331,-4.6279,-4.6175,-4.6097,-4.6123,-4.6175,-4.6071,-4.5577,-4.5499,-4.5577,-4.5707,-4.6045,-4.6538,-4.7058,-4.7499,-4.7681,-4.7317,-4.6954,-4.713,-5.2849,-5.2615,-5.2615,-5.2459,-5.2226,-5.2226,-5.2096,-5.1965,-5.155,-5.0719,-4.9629,-4.9603,-4.9603,-4.9603,-4.9603,-4.9603,-4.9603,-4.9603,-4.9603,-4.9603,-4.9603,-4.9603,-4.9603,-4.9603,-4.9603,-4.9603,-4.9603,-4.9291,-4.8798,-4.8746,-4.8174,-4.7084,-4.6746,-4.646,-4.6201,-4.5941,-4.5811,-4.5785,-4.4902,-4.4435,-4.4435,-4.4435,-4.4435,-4.4435,-4.4435,-4.4435,-4.4435,-4.4175,-4.4045,-4.4045,-4.35,-4.3084,-4.2825,-4.2513,-4.2484,-4.2357,-4.2357,-4.2461,-4.2721,-4.3318,-4.3915,-4.4487,-4.5058,-4.5219,-4.4305,-4.3941,-4.3863,-4.4149,-4.4409,-4.4616,-4.4616,-4.4616,-4.4616,-4.4616,-4.4616,-4.4487,-4.4201,-4.4149,-4.4019,-4.3734,-4.3656,-4.3656,-4.3786,-4.3786,-4.3889,-4.4487,-4.5266,-4.6175,-4.698,-4.711,-4.6876,-4.6356,-4.6201,-4.6097,-4.5863,-4.5811,-4.5681,-4.5422,-4.5396,-4.5396,-4.5396,-4.5396,-4.5136,-4.4668,-4.4405,-4.4539,-4.4539,-4.5006,-4.5577,-4.6149,-4.672,-4.698,-4.6772,-4.6434,-4.6681,-5.22,-5.1784,-5.1784,-5.1499,-5.1057,-5.1057,-5.0797,-5.0278,-4.9733,-4.9421,-4.9343,-4.9343,-4.9369,-4.9343,-4.9343,-4.9369,-4.9343,-4.9343,-4.9343,-4.9343,-4.9343,-4.9343,-4.9343,-4.9369,-4.9317,-4.9239,-4.9213,-4.8902,-4.833,-4.8252,-4.7759,-4.6772,-4.6694,-4.6408,-4.5967,-4.5473,-4.5214,-4.5214,-4.4694,-4.4435,-4.4435,-4.4435,-4.4409,-4.4464,-4.4305,-4.4279,-4.4201,-4.3708,-4.3448,-4.3448,-4.2851,-4.2279,-4.1937,-4.1604,-4.1526,-4.165,-4.165,-4.176,-4.2201,-4.2253,-4.2487,-4.3058,-4.363,-4.324,-4.1729,-4.1677,-4.1989,-4.2331,-4.2487,-4.2487,-4.2487,-4.2539,-4.2617,-4.2669,-4.2643,-4.2669,-4.2825,-4.2825,-4.2851,-4.2825,-4.2747,-4.2773,-4.2851,-4.2825,-4.3032,-4.3448,-4.4253,-4.4985,-4.5707,-4.5967,-4.6105,-4.5941,-4.5941,-4.5707,-4.5188,-4.5084,-4.4798,-4.4305,-4.4201,-4.4201,-4.4333,-4.4201,-4.4045,-4.3552,-4.3526,-4.3552,-4.3656,-4.3993,-4.4616,-4.537,-4.5811,-4.6123,-4.6123,-4.6629,-4.6668,-5.0148,-5.0044,-5.0044,-4.9966,-4.9888,-4.9888,-4.9836,-4.9707,-4.9135,0.0,0.0,-4.82,-4.82,-4.82,-4.82,-4.82,-4.82,-4.82,-4.8174,-4.8174,-4.82,-4.82,-4.82,-4.8174,-4.7941,-4.7499,-4.7499,-4.698,-4.5967,-4.5941,-4.5577,-4.4954,-4.5037,-4.485,-4.488,-4.4668,-4.4591,-4.4591,-4.4487,-4.4435,-4.4435,-4.4435,-4.4227,-4.3734,-4.3734,-4.35,-4.3058,-4.2954,-4.2876,-4.2851,-4.1916,-4.1292,-4.1162,-4.0279,-3.9786,-3.9786,-3.9786,-3.9812,-3.9916,-3.9916,-4.0176,-4.0747,-4.1318,-4.0903,-3.9241,-3.9942,-4.0539,-4.0643,-4.1059,-4.1344,-4.1344,-4.1344,-4.1526,-4.2119,-4.2171,-4.2354,-4.2643,-4.2747,-4.2617,-4.2747,-4.2643,-4.2721,-4.2643,-4.2617,-4.2799,-4.298,-4.3656,-4.4698,-4.4828,-4.472,-4.472,-4.4746,-4.4746,-4.4565,-4.4071,-4.3915,-4.3656,-4.324,-4.3084,-4.3032,-4.3032,-4.3032,-4.3006,-4.2902,-4.2876,-4.3058,-4.3448,-4.3604,-4.4097,-4.5136,-4.5448,-4.5499,-4.572,-4.7346,-4.8896,-4.9603,-4.9603,-4.9603,-4.9603,0.0,-4.9603,-4.9265,-4.872,-4.8434,-4.8148,-4.7889,-4.7889,-4.7889,-4.7889,-4.7889,-4.7889,-4.7889,-4.7889,-4.7889,-4.7889,-4.7889,-4.7889,-4.7889,-4.7603,-4.7317,-4.7032,-4.6772,-4.6175,-4.537,-4.5208,-4.5032,-4.4461,-4.4435,-4.4435,-4.4435,-4.4435,-4.4305,-4.3993,-4.4305,-4.4305,-4.4019,-4.3993,-4.3734,-4.3188,-4.3162,0.0,0.0,0.0,0.0,0.0,0.0,0.0,0.0,-3.8955,0.0,-3.8462,-3.7942,-3.7864,-3.841,-3.8202,-3.828,-3.8851,-3.9163,-3.8591,-3.6903,-3.8072,-3.9137,-3.9708,-3.9994,-4.0176,-4.0176,-4.0176,-4.0279,-4.0565,-4.0591,-4.0695,-4.0955,-4.1007,-4.1007,-4.1007,-4.1007,-4.1007,-4.1007,-4.1033,-4.1111,-4.1448,-4.2562,-4.337,-4.3474,-4.3344,-4.3422,-4.3526,-4.3578,-4.3474,-4.3214,-4.3162,-4.3032,-4.2825,-4.2747,-4.2747,-4.2747,-4.2747,-4.2643,-4.2357,-4.2432,-4.2253,-4.2357,-4.2539,-4.298,-4.3811,-4.4253,-4.5233,-4.8976,-5.0905,-5.2171,-4.9265,-4.9265,-4.9265,-4.9265,-4.9239,-4.9031,-4.8434,-4.7577,-4.7434,-4.7577,-4.7577,-4.7577,-4.7577,-4.7577,-4.7577,-4.7577,-4.7577,-4.7577,-4.7499,-4.7421,-4.7525,-4.7499,-4.7395,-4.7058,-4.6824,-4.6694,-4.6253,-4.5733,-4.5188,-4.5058,-4.4746,-4.4279,-4.4279,-4.4227,-4.4123,0.0,0.0,0.0,-4.3889,-4.3889,-4.3448,-4.3422,-4.3162,-4.2617,-4.2591,0.0,-4.2253,-4.1937,-4.1266,-4.0591,-4.0098,0.0,0.0,0.0,0.0,0.0,0.0,0.0,0.0,0.0,0.0,0.0,-3.6748,-3.6124,-3.493,-3.6228,-3.7631,-3.8721,-3.8735,-3.8735,-3.8851,-3.8747,-3.8773,-3.8981,-3.9007,-3.9085,-3.9201,-3.9227,-3.9227,-3.9227,-3.9227,-3.9227,-3.9304,-3.9227,-3.9552,-4.0072,-4.1051,-4.1833,-4.2201,-4.2097,-4.2224,-4.2487,-4.2747,-4.2747,-4.2591,-4.2591,-4.2539,-4.2409,-4.2409,-4.2383,-4.2357,-4.2357,-4.2201,-4.1963,-4.1859,-4.1578,-4.1188,-4.2016,-4.3044,-4.3477,-4.4549,-4.6603,-5.0654,-5.3025,-5.4745,-4.8096,-4.8096,-4.7952,-4.8096,-4.7875,-4.7058,-4.6564,-4.6408,-4.6408,-4.6408,-4.6408,-4.6434,-4.6434,-4.6408,-4.6434,-4.6408,-4.6408,-4.6434,-4.6149,-4.5707,-4.6201,-4.6149,-4.5681,-4.6123,-4.6045,-4.5577,-4.5499,-4.5136,-4.4565,-4.4045,-4.3759,-4.3682,-4.3682,-4.3448,-4.298,-4.2954,-4.2928,-4.2851,-4.2902,-4.2928,-4.2851,-4.2851,-4.2591,-4.2171,-4.2119,-4.1526,-4.0687,-4.0461,-3.9916,-3.8877,-3.8747,-3.841,-3.7786,-3.6748,-3.615,0.0,-3.4696,0.0,0.0,0.0,0.0,0.0,0.0,0.0,0.0,-3.4696,-3.5891,-3.7007,-3.7111,-3.7111,-3.7,-3.667,-3.6774,-3.7734,-3.7864,-3.8254,-3.9071,-3.9227,-3.9227,-3.9227,-3.9227,-3.9201,-3.9149,-3.9227,-3.9201,-3.9474,-3.9968,-4.0383,-4.0591,-4.124,-4.1911,-4.2119,-4.2409,-4.2409,-4.2224,-4.2119,-4.1963,-4.1396,-4.1318,-4.124,-4.1318,-4.1318,-4.139,-4.1312,-4.1532,-4.1383,-4.1059,-4.351,-4.5442,-4.5948,-4.8921,-5.0117,-4.7615,-5.0497,-5.3913,-4.6954,-4.6954,-4.6954,-4.6564,-4.5941,-4.5448,-4.524,-4.5375,-4.5214,-4.524,-4.5349,-4.5375,-4.524,-4.5188,-4.4902,-4.4928,-4.5214,-4.5375,-4.5084,-4.4876,-4.511,-4.511,-4.485,-4.4772,-4.4616,-4.4357,-4.4045,-4.3759,-4.3474,-4.2928,-4.2954,-4.3552,-4.2954,-4.2357,-4.1812,-4.1786,-4.1968,-4.2279,-4.1942,-4.1942,-4.2253,-4.2406,-4.1994,-4.1448,-4.1111,-4.0565,-3.9734,-3.9708,-3.9189,-3.8098,-3.8332,-3.7942,-3.6748,-3.5605,-3.467,0.0,0.0,0.0,0.0,0.0,0.0,0.0,0.0,0.0,0.0,0.0,-3.4436,-3.5267,-3.5943,-3.6306,-3.6332,-3.5813,-3.5657,-3.615,-3.6202,-3.641,-3.6793,-3.7155,-3.7449,-3.7449,-3.7449,-3.7579,-3.7864,-3.7916,-3.815,-3.8773,-3.854,-3.854,-3.9137,-3.9656,-4.0228,-4.0851,-4.1286,-4.1318,-4.1422,-4.1422,-4.1318,-4.1085,-4.1033,-4.1033,-4.1033,-4.2478,-4.3671,-4.3792,-4.5191,-4.6368,-4.6247,-4.6277,-4.6027,-4.7348,-5.1694,-5.4782,-5.3243,-5.5553,-5.8158,-4.5785,-4.5707,-4.4902,-4.4123,-4.3422,-4.3422,-4.35,-4.3656,-4.3917,-4.3891,-4.3656,-4.4047,-4.3943,-4.3396,-4.2825,-4.2876,-4.3578,-4.3552,-4.35,-4.363,-4.363,-4.363,-4.3604,-4.3162,-4.298,-4.2954,-4.2669,-4.2461,-4.2331,-4.2145,-4.2253,-4.2876,-4.2088,-4.1383,-4.0947,-4.0939,-4.0973,-4.139,-4.0851,-4.0903,-4.1572,-4.1624,-4.1416,-4.0851,-4.0279,-3.9656,-3.8955,-3.9059,-3.854,-3.7345,-3.7657,-3.7163,-3.5579,-3.4151,0.0,0.0,0.0,0.0,0.0,0.0,0.0,0.0,0.0,-2.9374,-2.9374,0.0,-3.3042,0.0,-3.4539,-3.5163,-3.5319,-3.48,0.0,0.0,-3.4436,-3.4359,-3.4359,-3.4982,-3.5319,-3.5425,-3.5579,-3.5891,-3.6332,-3.6514,-3.6903,-3.7961,-3.7464,-3.7281,-3.8299,-3.8633,-3.9211,-4.0275,-4.0765,-4.0991,-4.1483,-4.1604,-4.2046,-4.2314,-4.2636,-4.2625,-4.2746,-4.4761,-4.6194,-4.5717,-4.747,-4.8737,-4.8588,-4.7706,-4.6729,-4.771,-5.1671,-5.5769,-5.6646,-5.7906,-5.9292,-4.4698,-4.4438,-4.1188,-4.015,-4.0539,-4.0539,-4.0825,-4.1344,-4.1864,-4.1937,-4.1396,-4.2409,-4.1994,-4.0513,-3.9942,0.0,-4.0539,-4.0539,-4.0799,-4.1292,-4.1318,-4.1292,-4.1318,-4.1266,-4.124,-4.124,-4.1734,-4.1682,-4.1214,-4.163,-4.1682,-4.1214,-4.0672,-4.0593,-4.1017,-4.054,-4.0065,-3.9526,-3.9382,-3.976,-4.0305,-4.0331,-4.0305,-4.0254,-3.9708,-3.8877,-3.7864,-3.828,-3.7786,-3.6202,-3.6124,-3.5579,-3.4332,0.0,0.0,0.0,0.0,0.0,0.0,0.0,0.0,0.0,0.0,0.0,0.0,0.0,0.0,-3.1565,-3.2291,0.0,-3.3602,-3.3008,0.0,0.0,0.0,-3.267,-3.267,-3.3289,-3.3654,-3.3654,0.0,0.0,-3.511,-3.5683,-3.6262,-3.6855,-3.7252,-3.7686,-3.8228,-3.935,-4.0365,-4.0968,-4.1952,-4.2684,-4.2829,-4.3328,-4.4093,-4.5679,-4.6924,-4.7071,-4.7102,-4.7673,-4.6675,-4.4746,-4.4196,-4.4631,-4.4428,-4.678,-4.8537,-4.9675,-4.8473,-4.7083,-4.8491,-5.141,-5.4104,-4.1059,-3.9708,-3.8358,-3.7734,-3.7631,-3.7631,-3.815,-3.9007,-3.9215,-3.9397,-3.95,-3.963,-3.8903,-3.7605,-3.7007,0.0,0.0,0.0,-3.8098,-3.9007,-3.9345,-3.9682,-3.9994,-4.002,-3.9994,-3.99,-4.0254,-4.0409,-4.0513,-4.0409,-4.0065,-3.9524,0.0,-3.9673,-3.9915,-3.9444,-3.9108,-3.8765,-3.8759,-3.8929,-3.9163,-3.95,-3.95,-3.9163,-3.8617,-3.7942,-3.7163,-3.7345,-3.6936,-3.59,-3.5821,-3.4822,0.0,0.0,0.0,0.0,0.0,0.0,0.0,0.0,0.0,0.0,0.0,-2.5511,-2.5897,0.0,0.0,0.0,-3.0331,-3.1075,-3.2468,-3.1856,0.0,0.0,0.0,0.0,0.0,0.0,0.0,-3.2043,-3.2764,-3.3567,-3.4349,-3.4627,-3.522,-3.6436,-3.7333,-3.8294,-3.9648,0.0,-4.0993,-4.2199,-4.2232,-4.2589,-4.3837,-4.377,-4.4034,-4.5329,-4.6099,-4.6477,-4.6588,-4.824,-4.9007,-4.824,-4.9259,-5.0565,-5.0565,-4.828,-4.7403,-4.9537,-4.903,-4.8618,-4.9921,-5.1354,-5.3094,-3.7033,0.0,0.0,0.0,0.0,-3.4696,-3.5267,-3.6176,-3.6441,-3.654,-3.6748,-3.6514,0.0,0.0,0.0,0.0,0.0,0.0,-3.5735,-3.6806,-3.7579,-3.8202,-3.8591,-3.8551,-3.8551,-3.8823,-3.8938,-3.9159,-3.9369,-3.8817,-3.8389,-3.8305,0.0,0.0,0.0,0.0,-3.8328,-3.8154,-3.8126,-3.815,-3.8488,-3.8721,-3.8643,-3.8254,-3.7708,-3.7137,-3.6566,-3.6649,-3.6318,-3.5478,-3.4995,0.0,0.0,0.0,0.0,0.0,0.0,0.0,0.0,0.0,0.0,0.0,0.0,0.0,0.0,0.0,0.0,0.0,0.0,0.0,-3.1006,-3.096,-3.0926,0.0,0.0,0.0,0.0,0.0,0.0,0.0,0.0,0.0,-3.3401,-3.4129,-3.5186,0.0,0.0,-3.9485,-4.0775,-4.1099,-4.164,-4.285,-4.2546,0.0,-4.4135,-4.4041,-4.4189,-4.5086,-4.587,-4.6567,-4.6662,-4.871,-4.995,-4.9089,-5.0809,-5.2096,-5.1416,-4.7851,-4.605,-4.7577,-4.8353,-4.9014,-4.9982,-5.057,-5.1292,0.0,0.0,0.0,0.0,-3.1761,0.0,0.0,0.0,-3.3315,-3.3263,0.0,-3.3315,0.0,0.0,0.0,0.0,-3.0915,-3.269,0.0,0.0,-3.5994,-3.6715,-3.6825,-3.685,-3.7067,-3.757,-3.823,-3.815,-3.7633,-3.6938,0.0,0.0,0.0,0.0,0.0,0.0,-3.8068,-3.7491,-3.7046,-3.7371,-3.841,-3.8082,-3.7795,-3.7769,-3.7222,-3.654,-3.5994,-3.6454,-3.6139,-3.4843,-3.3128,0.0,0.0,0.0,0.0,0.0,0.0,0.0,0.0,0.0,0.0,0.0,0.0,0.0,0.0,0.0,0.0,0.0,0.0,0.0,0.0,-3.0556,0.0,0.0,0.0,0.0,0.0,0.0,0.0,0.0,0.0,-3.1494,-3.2384,-3.441,-3.6369,-3.7646,0.0,0.0,0.0,0.0,-4.2431,-4.262,-4.3082,-4.3446,-4.3577,-4.4594,-4.5594,-4.6395,0.0,0.0,-4.966,-4.9868,-4.8937,-4.6369,-4.6009,-4.5371,-4.3511,-4.342,-4.376,-4.3964,-4.4618,-4.5141,-4.5207,-4.5938,-4.6824,0.0,0.0,0.0,0.0,0.0,0.0,0.0,0.0,0.0,-2.9891,-2.9684,-2.9528,0.0,0.0,0.0,0.0,0.0,0.0,0.0,0.0,-3.3318,-3.4649,-3.5855,-3.6251,-3.6561,-3.6602,-3.691,-3.6537,0.0,0.0,0.0,0.0,0.0,0.0,0.0,0.0,-3.6985,-3.7257,-3.6589,-3.7441,-3.9989,-3.9459,-4.0186,-4.2406,-4.0094,-3.8033,-3.6429,-3.6376,-3.5899,0.0,0.0,0.0,0.0,0.0,0.0,0.0,0.0,0.0,0.0,0.0,0.0,0.0,0.0,0.0,0.0,0.0,0.0,0.0,0.0,0.0,0.0,0.0,-3.2811,0.0,0.0,0.0,0.0,0.0,0.0,0.0,0.0,0.0,-3.1409,-3.3314,-3.528,-3.7033,-3.961,-4.1639,-4.2422,0.0,0.0,0.0,0.0,0.0,0.0,0.0,-4.4584,-4.5085,-4.5501,-4.5855,-4.5889,-4.5483,-4.48,-4.3782,0.0,0.0,-4.0053,-3.9708,-3.9974,-4.0272,-4.0578,-4.1119,-4.22,-4.2585,-4.3355,0.0,0.0,0.0,0.0,0.0,0.0,0.0,0.0,0.0,-2.6775,-2.6697,0.0,0.0,0.0,0.0,0.0,0.0,0.0,0.0,0.0,0.0,0.0,-3.4174,-3.4879,0.0,0.0,0.0,0.0,0.0,0.0,0.0,0.0,0.0,0.0,0.0,0.0,-3.8076,-3.9109,-3.8542,-3.9657,-4.2233,-4.1423,-4.2018,-4.4228,-4.2153,-3.9979,-3.7899,0.0,0.0,0.0,0.0,0.0,0.0,0.0,0.0,0.0,0.0,0.0,0.0,0.0,0.0,0.0,0.0,0.0,0.0,0.0,0.0,0.0,0.0,0.0,0.0,0.0,-3.2487,0.0,0.0,0.0,0.0,0.0,0.0,0.0,0.0,0.0,0.0,-3.282,-3.4989,-3.6876,-3.9574,-4.1798,-4.3014,-4.3627,-4.4327,0.0,0.0,0.0,0.0,0.0,0.0,0.0,0.0,0.0,0.0,0.0,0.0,0.0,0.0,-3.7908,-3.5851,-3.5763,-3.6023,-3.6382,0.0,0.0,0.0,0.0,0.0,0.0,0.0,0.0,0.0,0.0,0.0,0.0,0.0,0.0,0.0,-2.3931,0.0,0.0,-2.259,0.0,0.0,0.0,0.0,0.0,0.0,0.0,0.0,0.0,0.0,0.0,0.0,0.0,0.0,0.0,0.0,0.0,0.0,0.0,0.0,0.0,0.0,-4.117,-4.3097,-4.2693,-4.3527,-4.5045,-4.3796,-4.306,-4.3294,-4.306,-4.2206,-4.0359,0.0,0.0,0.0,0.0,0.0,0.0,0.0,0.0,0.0,0.0,0.0,0.0,0.0,0.0,0.0,0.0,0.0,0.0,0.0,0.0,0.0,0.0,0.0,0.0,0.0,0.0,-3.3125,-3.4496,-3.4507,0.0,0.0,0.0,0.0,0.0,0.0,0.0,0.0,0.0,-3.7144,-3.9559,-4.1601,-4.2894,-4.3157,-4.328,-4.3561,-4.2923,-4.2408,-4.2334,-4.2073,-4.1498,0.0,0.0,0.0,0.0,0.0,0.0,0.0,0.0,0.0,0.0,0.0,0.0,0.0,0.0,0.0,0.0,0.0,0.0,0.0,0.0,0.0,0.0,0.0,0.0,0.0,0.0,0.0,0.0,0.0,0.0,0.0,0.0,0.0,0.0,0.0,0.0,0.0,0.0,0.0,0.0,0.0,0.0,0.0,0.0,0.0,0.0,0.0,0.0,0.0,0.0,0.0,0.0,0.0,0.0,-3.9543,-4.2188,-4.1719,-4.3279,-4.7198,-4.5868,-4.5997,-4.7717,-4.5899,-4.4073,0.0,0.0,0.0,0.0,0.0,0.0,0.0,0.0,0.0,0.0,0.0,0.0,0.0,0.0,0.0,0.0,0.0,0.0,0.0,0.0,0.0,0.0,0.0,0.0,0.0,0.0,0.0,0.0,-3.6195,-3.6304,-3.4116,0.0,0.0,0.0,0.0,0.0,0.0,0.0,0.0,0.0,0.0,-3.9789,-4.081,-4.1982,-4.2771,-4.2834,-4.2646,-4.2082,-4.0916,-4.1107,-4.0732,-3.8732,0.0,0.0,0.0,0.0,0.0,0.0,0.0,0.0,0.0,0.0,0.0,0.0,0.0,0.0,0.0,0.0,0.0,0.0,0.0,0.0,0.0,0.0,0.0,0.0,0.0,0.0,0.0,0.0,0.0,0.0,0.0,0.0,0.0,0.0,0.0,0.0,0.0,0.0,0.0,0.0,0.0,0.0,0.0,0.0,0.0,0.0,0.0,0.0,0.0,0.0,0.0,0.0,0.0,-4.0621,-4.3721,-4.3839,-4.5633,-4.9221,-4.8199,-4.8313,-4.9944,-4.7631,-4.5448,0.0,0.0,0.0,0.0,0.0,0.0,0.0,0.0,0.0,0.0,0.0,0.0,0.0,0.0,0.0,0.0,0.0,0.0,0.0,0.0,0.0,0.0,0.0,0.0,0.0,0.0,0.0,0.0,-3.4743,-3.5521,-3.4444,0.0,0.0,0.0,0.0,0.0,0.0,0.0,0.0,0.0,0.0,-3.7852,-3.9294,-4.0395,0.0,0.0,-4.1269,-4.0699,-3.9711,-3.994,-3.956,-3.757,-3.7226,0.0,0.0,0.0,0.0,0.0,0.0,0.0,0.0,0.0,0.0,0.0,0.0,0.0,0.0,0.0,0.0,0.0,0.0,0.0,0.0,0.0,0.0,0.0,0.0,0.0,0.0,0.0,0.0,0.0,0.0,0.0,0.0,0.0,0.0,0.0,0.0,0.0,0.0,0.0,0.0,0.0,0.0,0.0,0.0,0.0,0.0,0.0,0.0,0.0,0.0,0.0,0.0,-4.3465,-4.6566,-4.7958,-4.9393,-5.1102,-5.0247,-4.9755,-4.9717,-4.8178,-4.5942,0.0,0.0,0.0,0.0,0.0,0.0,0.0,0.0,0.0,0.0,0.0,0.0,0.0,0.0,0.0,0.0,0.0,0.0,0.0,0.0,0.0,0.0,0.0,0.0,0.0,0.0,0.0,0.0,0.0,0.0,0.0,0.0,0.0,0.0,0.0,0.0,0.0,0.0,0.0,0.0,0.0,-3.5802,-3.8117,-3.8573,-3.8915,0.0,-3.9216,-3.8611,-3.8608,-3.8684,-3.8257,-3.6813,0.0,0.0,0.0,0.0,0.0,0.0,0.0,0.0,0.0,0.0,0.0,0.0,0.0,0.0,0.0,0.0,0.0,0.0,0.0,0.0,0.0,0.0,0.0,0.0,0.0,0.0,0.0,0.0,0.0,0.0,0.0,0.0,0.0,0.0,0.0,0.0,0.0,0.0,0.0,0.0,0.0,0.0,0.0,0.0,0.0,0.0,0.0,0.0,0.0,0.0,0.0,0.0,0.0,0.0,-4.5263,-4.6344,-4.7989,-5.0229,-4.8862,-4.8012,-4.8064,-4.6382,0.0,0.0,0.0,0.0,0.0,0.0,0.0,0.0,0.0,0.0,0.0,0.0,0.0,0.0,0.0,0.0,0.0,0.0,0.0,0.0,0.0,0.0,0.0,0.0,0.0,0.0,0.0,-2.4366,0.0,0.0,0.0,0.0,0.0,0.0,0.0,0.0,0.0,0.0,0.0,0.0,0.0,0.0,-3.4614,-3.5995,-3.7366,-3.8357,0.0,0.0,-3.812,-3.7744,-3.8171,-3.7853,0.0,0.0,0.0,0.0,0.0,0.0,0.0,0.0,0.0,0.0,0.0,0.0,0.0,0.0,0.0,0.0,0.0,0.0,0.0,0.0,0.0,0.0,0.0,0.0,0.0,0.0,0.0,0.0,0.0,0.0,0.0,0.0,0.0,0.0,0.0,0.0,0.0,0.0,0.0,0.0,0.0,0.0,0.0,0.0,0.0,0.0,0.0,0.0,0.0,0.0,0.0,0.0,0.0,0.0,-4.0889,-4.385,-4.5103,-4.6926,-4.9317,-4.814,-4.7647,-4.7989,-4.5673,-4.3268,0.0,0.0,0.0,0.0,0.0,0.0,0.0,0.0,0.0,0.0,0.0,0.0,0.0,0.0,0.0,0.0,0.0,0.0,0.0,0.0,0.0,0.0,0.0,0.0,0.0,0.0,0.0,0.0,0.0,0.0,0.0,0.0,0.0,0.0,0.0,0.0,0.0,0.0,0.0,0.0,0.0,0.0,-3.4851,-3.5887,0.0,0.0,0.0,-3.685,-3.7625,0.0,0.0,0.0,0.0,0.0,0.0,0.0,0.0,0.0,0.0,0.0,0.0,0.0,0.0,0.0,0.0,0.0,0.0,0.0,0.0,0.0,0.0,0.0,0.0,0.0,0.0,0.0,0.0,0.0,0.0,0.0,0.0,0.0,0.0,0.0,0.0,0.0,0.0,0.0,0.0,0.0,0.0,0.0,0.0,0.0,0.0,0.0,0.0,0.0,0.0,0.0,0.0,0.0,0.0,0.0,0.0,0.0,-4.2484,-4.4078,-4.6177,-4.8498,-4.7647,-4.7571,-4.8368,-4.5331,-4.2825,0.0,0.0,0.0,0.0,0.0,0.0,0.0,0.0,0.0,0.0,0.0,0.0,0.0,0.0,0.0,0.0,0.0,0.0,0.0,0.0,0.0,0.0,0.0,0.0,0.0,0.0,0.0,0.0,0.0,0.0,0.0,0.0,0.0,0.0,0.0,0.0,0.0,0.0,0.0,0.0,0.0,-3.2502,-3.4411,-3.448,-3.4283,0.0,0.0,-3.5635,-3.7716,-3.7026,0.0,0.0,0.0,0.0,0.0,0.0,0.0,0.0,0.0,0.0,0.0,0.0,0.0,0.0,0.0,0.0,0.0,0.0,0.0,0.0,0.0,0.0,0.0,0.0,0.0,0.0,0.0,0.0,0.0,0.0,0.0,0.0,0.0,0.0,0.0,0.0,0.0,0.0,0.0,0.0,0.0,0.0,0.0,0.0,0.0,0.0,0.0,0.0,0.0,0.0,0.0,0.0,0.0,0.0,0.0,0.0,-4.2446,-4.3509,-4.5217,-4.7533,-4.6242,-4.59,-4.666,-4.4192,-4.199,0.0,0.0,0.0,0.0,0.0,0.0,0.0,0.0,0.0,0.0,0.0,0.0,0.0,0.0,0.0,0.0,0.0,0.0,0.0,0.0,0.0,0.0,0.0,0.0,0.0,0.0,0.0,0.0,0.0,0.0,0.0,0.0,0.0,0.0,0.0,0.0,0.0,0.0,0.0,0.0,0.0,-3.2973,-3.4827,-3.5163,0.0,0.0,0.0,0.0,-3.6598,-3.7013,0.0,0.0,0.0,0.0,0.0,0.0,0.0,0.0,0.0,0.0,0.0,0.0,0.0,0.0,0.0,0.0,0.0,0.0,0.0,0.0,0.0,0.0,0.0,0.0,0.0,0.0,0.0,0.0,0.0,0.0,0.0,0.0,0.0,0.0,0.0,0.0,0.0,0.0,0.0,0.0,0.0,0.0,0.0,0.0,0.0,0.0,0.0,0.0,0.0,0.0,0.0,0.0,0.0,0.0,0.0,0.0,-4.1271,-4.2142,-4.3964,-4.6698,-4.4875,-4.4572,-4.609,-4.3433,-4.1307,0.0,0.0,0.0,0.0,0.0,0.0,0.0,0.0,0.0,0.0,0.0,0.0,0.0,0.0,0.0,0.0,0.0,0.0,0.0,0.0,0.0,0.0,0.0,0.0,0.0,0.0,0.0,0.0,0.0,0.0,0.0,0.0,0.0,0.0,0.0,0.0,0.0,0.0,0.0,0.0,-3.0859,-3.2488,-3.3868,0.0,0.0,0.0,0.0,0.0,0.0,-3.6787,-3.6126,0.0,0.0,0.0,0.0,0.0,0.0,0.0,0.0,0.0,0.0,0.0,0.0,0.0,0.0,0.0,0.0,0.0,0.0,0.0,0.0,0.0,0.0,0.0,0.0,0.0,0.0,0.0,0.0,0.0,0.0,0.0,0.0,0.0,0.0,0.0,0.0,0.0,0.0,0.0,0.0,0.0,0.0,0.0,0.0,0.0,0.0,0.0,0.0,0.0,0.0,0.0,0.0,0.0,0.0,0.0,-3.971,-4.0547,-4.2559,-4.5521,-4.3623,-4.3547,-4.5445,-4.2673,-4.0585,-3.9521,0.0,0.0,0.0,0.0,0.0,0.0,0.0,0.0,0.0,0.0,0.0,0.0,0.0,0.0,0.0,0.0,0.0,0.0,0.0,0.0,0.0,0.0,0.0,0.0,0.0,0.0,0.0,0.0,0.0,0.0,0.0,0.0,0.0,0.0,0.0,0.0,0.0,0.0,0.0,-2.9857,-3.1756,0.0,0.0,0.0,0.0,0.0,0.0,0.0,0.0,-3.5141,0.0,0.0,0.0,0.0,0.0,0.0,0.0,0.0,0.0,0.0,0.0,0.0,0.0,0.0,0.0,0.0,0.0,0.0,0.0,0.0,0.0,0.0,0.0,0.0,0.0,0.0,0.0,0.0,0.0,0.0,0.0,0.0,0.0,0.0,0.0,0.0,0.0,0.0,0.0,0.0,0.0,0.0,0.0,0.0,0.0,0.0,0.0,0.0,0.0,0.0,0.0,0.0,0.0,0.0,0.0,0.0,-3.9557,-4.1155,-4.3015,-4.2749,-4.2711,-4.3053,-4.1271,-3.9446,-3.789,0.0,0.0,0.0,0.0,0.0,0.0,0.0,0.0,0.0,0.0,0.0,0.0,0.0,0.0,0.0,0.0,0.0,0.0,0.0,0.0,0.0,0.0,0.0,0.0,0.0,0.0,0.0,0.0,0.0,0.0,0.0,0.0,0.0,0.0,0.0,0.0,0.0,0.0,-2.5291,-2.8703,0.0,0.0,0.0,0.0,0.0,0.0,0.0,0.0,-3.4755,0.0,0.0,0.0,0.0,0.0,0.0,0.0,0.0,0.0,0.0,0.0,0.0,0.0,0.0,0.0,0.0,0.0,0.0,0.0,0.0,0.0,0.0,0.0,0.0,0.0,0.0,0.0,0.0,0.0,0.0,0.0,0.0,0.0,0.0,0.0,0.0,0.0,0.0,0.0,0.0,0.0,0.0,0.0,0.0,0.0,0.0,0.0,0.0,0.0,0.0,0.0,0.0,0.0,0.0,0.0,0.0,0.0,0.0,-4.0471,-4.2077,-4.1499,-4.1689,-4.2408,-4.0281,-3.8176,0.0,0.0,0.0,0.0,0.0,0.0,0.0,0.0,0.0,0.0,0.0,0.0,0.0,0.0,0.0,0.0,0.0,0.0,0.0,0.0,0.0,0.0,0.0,0.0,0.0,0.0,0.0,0.0,0.0,0.0,0.0,0.0,0.0,0.0,0.0,0.0,0.0,0.0,0.0,0.0,0.0,0.0,0.0,0.0,0.0,0.0,0.0,0.0,0.0,0.0,0.0,0.0,0.0,0.0,0.0,0.0,0.0,0.0,0.0,0.0,0.0,0.0,0.0,0.0,0.0,0.0,0.0,0.0,0.0,0.0,0.0,0.0,0.0,0.0,0.0,0.0,0.0,0.0,0.0,0.0,0.0,0.0,0.0,0.0,0.0,0.0,0.0,0.0,0.0,0.0,0.0,0.0,0.0,0.0,0.0,0.0,0.0,0.0,0.0,0.0,0.0,0.0,0.0,0.0,0.0,0.0,0.0,0.0,-3.954,-4.0967,-4.0357,-4.0624,-4.1765,-3.9205,-3.6919,0.0,0.0,0.0,0.0,0.0,0.0,0.0,0.0,0.0,0.0,0.0,0.0,0.0,0.0,0.0,0.0,0.0,0.0,0.0,0.0,0.0,0.0,0.0,0.0,0.0,0.0,0.0,0.0,0.0,0.0,0.0,0.0,0.0,0.0,0.0,0.0,0.0,0.0,0.0,0.0,0.0,0.0,0.0,0.0,0.0,0.0,0.0,0.0,-3.0944,0.0,0.0,0.0,0.0,0.0,0.0,0.0,0.0,0.0,0.0,0.0,0.0,0.0,0.0,0.0,0.0,0.0,0.0,0.0,0.0,0.0,0.0,0.0,0.0,0.0,0.0,0.0,0.0,0.0,0.0,0.0,0.0,0.0,0.0,0.0,0.0,0.0,0.0,0.0,0.0,0.0,0.0,0.0,0.0,0.0,0.0,0.0,0.0,0.0,0.0,0.0,0.0,0.0,0.0,0.0,0.0,0.0,0.0,0.0,-3.7706,-3.8428,-3.9479,-3.9787,-3.9067,-3.764,-3.5868,0.0,0.0,0.0,0.0,0.0,0.0,0.0,0.0,0.0,0.0,0.0,0.0,0.0,0.0,0.0,0.0,0.0,0.0,0.0,0.0,0.0,0.0,0.0,0.0,0.0,0.0,0.0,0.0,0.0,0.0,0.0,0.0,0.0,0.0,0.0,0.0,0.0,0.0,0.0,0.0,0.0,0.0,0.0,0.0,0.0,0.0,0.0,0.0,0.0,0.0,0.0,0.0,0.0,0.0,0.0,0.0,0.0,0.0,0.0,0.0,0.0,0.0,0.0,0.0,0.0,0.0,0.0,0.0,0.0,0.0,0.0,0.0,0.0,0.0,0.0,0.0,0.0,0.0,0.0,0.0,0.0,0.0,0.0,0.0,0.0,0.0,0.0,0.0,0.0,0.0,0.0,0.0,0.0,0.0,0.0,0.0,0.0,0.0,0.0,0.0,0.0,0.0,0.0,0.0,0.0,0.0,0.0,0.0,-3.7702,-3.8599,-3.9343,-3.9,-3.77,-3.7358,-3.5969,0.0,0.0,0.0,0.0,0.0,0.0,0.0,0.0,0.0,0.0,0.0,0.0,0.0,0.0,0.0,0.0,0.0,0.0,0.0,0.0,0.0,0.0,0.0,0.0,0.0,0.0,0.0,0.0,0.0,0.0,0.0,0.0,0.0,0.0,0.0,0.0,0.0,0.0,0.0,0.0,0.0,0.0,0.0,0.0,0.0,0.0,0.0,0.0,0.0,0.0,0.0,0.0,0.0,0.0,0.0,0.0,0.0,0.0,0.0,0.0,0.0,0.0,0.0,0.0,0.0,0.0,0.0,0.0,0.0,0.0,0.0,0.0,0.0,0.0,0.0,0.0,0.0,0.0,0.0,0.0,0.0,0.0,0.0,0.0,0.0,0.0,0.0,0.0,0.0,0.0,0.0,0.0,0.0,0.0,0.0,0.0,0.0,0.0,0.0,0.0,0.0,0.0,0.0,0.0,0.0,0.0,0.0,0.0,0.0,-3.8385,-3.8623,-3.8206,-3.701,-3.6696,-3.5493,0.0,0.0,0.0,0.0,0.0,0.0,0.0,0.0,0.0,0.0,0.0,0.0,0.0,0.0,0.0,0.0,0.0,0.0,0.0,0.0,0.0,0.0,0.0,0.0,0.0,0.0,0.0,0.0,0.0,0.0,0.0,0.0,0.0,0.0,0.0,0.0,0.0,0.0,0.0,0.0,0.0,0.0,0.0,0.0,0.0,0.0,0.0,0.0,0.0,0.0,0.0,0.0,0.0,0.0,0.0,0.0,0.0,0.0,0.0,0.0,0.0,0.0,0.0,0.0,0.0,0.0,0.0,0.0,0.0,0.0,0.0,0.0,0.0,0.0,0.0,0.0,0.0,0.0,0.0,0.0,0.0,0.0,0.0,0.0,0.0,0.0,0.0,0.0,0.0,0.0,0.0,0.0,0.0,0.0,0.0,0.0,0.0,0.0,0.0,0.0,0.0,0.0,0.0,0.0,0.0,0.0,0.0,0.0,0.0,-3.6703,-3.7158,-3.7281,-3.6908,-3.5228,-3.3667,0.0,0.0,0.0,0.0,0.0,0.0,0.0,0.0,0.0,0.0,0.0,0.0,0.0,0.0,0.0,0.0,0.0,0.0,0.0,0.0,0.0,0.0,0.0,0.0,0.0,0.0,0.0,0.0,0.0,0.0,0.0,0.0,0.0,0.0,0.0,0.0,0.0,0.0,0.0,0.0,0.0,0.0,0.0,0.0,0.0,0.0,0.0,0.0,0.0,0.0,0.0,0.0,0.0,0.0,0.0,0.0,0.0,0.0,0.0,0.0,0.0,0.0,0.0,0.0,0.0,0.0,0.0,0.0,0.0,0.0,0.0,0.0,0.0,0.0,0.0,0.0,0.0,0.0,0.0,0.0,0.0,0.0,0.0,0.0,0.0,0.0,0.0,0.0,0.0,0.0,0.0,0.0,0.0,0.0,0.0,0.0,0.0,0.0,0.0,0.0,0.0,0.0,0.0,0.0,0.0,0.0,0.0,0.0,0.0,-3.7132,-3.7176,-3.6742,-3.5862,-3.5112,-3.3762,-3.1708,0.0,0.0,0.0,0.0,0.0,0.0,0.0,0.0,0.0,0.0,0.0,0.0,0.0,0.0,0.0,0.0,0.0,0.0,0.0,0.0,0.0,0.0,0.0,0.0,0.0,0.0,0.0,0.0,0.0,0.0,0.0,0.0,0.0,0.0,0.0,0.0,0.0,0.0,0.0,0.0,0.0,0.0,0.0,0.0,0.0,0.0,0.0,0.0,0.0,0.0,0.0,0.0,0.0,0.0,0.0,0.0,0.0,0.0,0.0,0.0,0.0,0.0,0.0,0.0,0.0,0.0,0.0,0.0,0.0,0.0,0.0,0.0,0.0,0.0,0.0,0.0,0.0,0.0,0.0,0.0,0.0,0.0,0.0,0.0,0.0,0.0,0.0,0.0,0.0,0.0,0.0,0.0,0.0,0.0,0.0,0.0,0.0,0.0,0.0,0.0,0.0,0.0,0.0,0.0,0.0,0.0,0.0,0.0,-3.7481,-3.6938,-3.6269,-3.5281,-3.4597,-3.343,0.0,0.0,0.0,0.0,0.0,0.0,0.0,0.0,0.0,0.0,0.0,0.0,0.0,0.0,0.0,0.0,0.0,0.0,0.0,0.0,0.0,0.0,0.0,0.0,0.0,0.0,0.0,0.0,0.0,0.0,0.0,0.0,0.0,0.0,0.0,0.0,0.0,0.0,0.0,0.0,0.0,0.0,0.0,0.0,0.0,0.0,0.0,0.0,0.0,0.0,0.0,0.0,0.0,0.0,0.0,0.0,0.0,0.0,0.0,0.0,0.0,0.0,0.0,0.0,0.0,0.0,0.0,0.0,0.0,0.0,0.0,0.0,0.0,0.0,0.0,0.0,0.0,0.0,0.0,0.0,0.0,0.0,0.0,0.0,0.0,0.0,0.0,0.0,0.0,0.0,0.0,0.0,0.0,0.0,0.0,0.0,0.0,0.0,0.0,0.0,0.0,0.0,0.0,0.0,0.0,0.0,0.0,0.0,-3.675,-3.7251,-3.625,-3.5583,-3.5341,-3.3425,-3.2442,0.0,0.0,0.0,0.0,0.0,0.0,0.0,0.0,0.0,0.0,0.0,0.0,0.0,0.0,0.0,0.0,0.0,0.0,0.0,0.0,0.0,0.0,0.0,0.0,0.0,0.0,0.0,0.0,0.0,0.0,0.0,0.0,0.0,0.0,0.0,0.0,0.0,0.0,0.0,0.0,0.0,0.0,0.0,0.0,0.0,0.0,0.0,0.0,0.0,0.0,0.0,0.0,0.0,0.0,0.0,0.0,0.0,0.0,0.0,0.0,0.0,0.0,0.0,0.0,0.0,0.0,0.0,0.0,0.0,0.0,0.0,0.0,0.0,0.0,0.0,0.0,0.0,0.0,0.0,0.0,0.0,0.0,0.0,0.0,0.0,0.0,0.0,0.0,0.0,0.0,0.0,0.0,0.0,0.0,0.0,0.0,0.0,0.0,0.0,0.0,0.0,0.0,0.0,0.0,0.0,0.0,0.0,0.0,0.0,-3.5696,-3.5218,-3.46,-3.3795,-3.3176,-3.26,0.0,0.0,0.0,0.0,0.0,0.0,0.0,0.0,0.0,0.0,0.0,0.0,0.0,0.0,0.0,0.0,0.0,0.0,0.0,0.0,0.0,0.0,0.0,0.0,0.0,0.0,0.0,0.0,0.0,0.0,0.0,0.0,0.0,0.0,0.0,0.0,0.0,0.0,0.0,0.0,0.0,0.0,0.0,0.0,0.0,0.0,0.0,0.0,0.0,0.0,0.0,0.0,0.0,0.0,0.0,0.0,0.0,0.0,0.0,0.0,0.0,0.0,0.0,0.0,0.0,0.0,0.0,0.0,0.0,0.0,0.0,0.0,0.0,0.0,0.0,0.0,0.0,0.0,0.0,0.0,0.0,0.0,0.0,0.0,0.0,0.0,0.0,0.0,0.0,0.0,0.0,0.0,0.0,0.0,0.0,0.0,0.0,0.0,0.0,0.0,0.0,0.0,0.0,0.0,0.0,0.0,0.0,0.0,0.0,-3.457,-3.4777,-3.4348,-3.3382,-3.2905,-3.2462,0.0,0.0,0.0,0.0,0.0,0.0,0.0,0.0,0.0,0.0,0.0,0.0,0.0,0.0,0.0,0.0,0.0,0.0,0.0,0.0,0.0,0.0,0.0,0.0,0.0,0.0,0.0,0.0,0.0,0.0,0.0,0.0,0.0,0.0,0.0,0.0,0.0,0.0,0.0,0.0,0.0,0.0,0.0,0.0,0.0,0.0,0.0,0.0,0.0,0.0,0.0,0.0,0.0,0.0,0.0,0.0,0.0,0.0,0.0,0.0,0.0,0.0,0.0,0.0,0.0,0.0,0.0,0.0,0.0,0.0,0.0,0.0,0.0,0.0,0.0,0.0,0.0,0.0,0.0,0.0,0.0,0.0,0.0,0.0,0.0,0.0,0.0,0.0,0.0,0.0,0.0,0.0,0.0,0.0,0.0,0.0,0.0,0.0,0.0,0.0,0.0,0.0,0.0,0.0,0.0,0.0,0.0,0.0,0.0,-3.377,-3.4702,-3.4751,-3.3677,-3.2652,-3.2025,0.0,0.0,0.0,0.0,0.0,0.0,0.0,0.0,0.0,0.0,0.0,0.0,0.0,0.0,0.0,0.0,0.0,0.0,0.0,0.0,0.0,0.0,0.0,0.0,0.0,0.0,0.0,0.0,0.0,0.0,0.0,0.0,0.0,0.0,0.0,0.0,0.0,0.0,0.0,0.0,0.0,0.0,0.0,0.0,0.0,0.0,0.0,0.0,0.0,0.0,0.0,0.0,0.0,0.0,0.0,0.0,0.0,0.0,0.0,0.0,0.0,0.0,0.0,0.0,0.0,0.0,0.0,0.0,0.0,0.0,0.0,0.0,0.0,0.0,0.0,0.0,0.0,0.0,0.0,0.0,0.0,0.0,0.0,0.0,0.0,0.0,0.0,0.0,0.0,0.0,0.0,0.0,0.0,0.0,0.0,0.0,0.0,0.0,0.0,0.0,0.0,0.0,0.0,0.0,0.0,0.0,0.0,0.0,0.0,0.0,-3.2933,-3.2848,-3.2512,-3.222,-3.1725,-3.0944,0.0,0.0,0.0,0.0,0.0,0.0,0.0,0.0,0.0,0.0,0.0,0.0,0.0,0.0,0.0,0.0,0.0,0.0,0.0,0.0,0.0,0.0,0.0,0.0,0.0,0.0,0.0,0.0,0.0,0.0,0.0,0.0,0.0,0.0,0.0,0.0,0.0,0.0,0.0,0.0,0.0,0.0,0.0,0.0,0.0,0.0,0.0,0.0,0.0,0.0,0.0,0.0,0.0,0.0,0.0,0.0,0.0,0.0,0.0,0.0,0.0,0.0,0.0,0.0,0.0,0.0,0.0,0.0,0.0,0.0,0.0,0.0,0.0,0.0,0.0,0.0,0.0,0.0,0.0,0.0,0.0,0.0,0.0,0.0,0.0,0.0,0.0,0.0,0.0,0.0,0.0,0.0,0.0,0.0,0.0,0.0,0.0,0.0,0.0,0.0,0.0,0.0,0.0,0.0,0.0,0.0,0.0,0.0,0.0,0.0,-3.2199,-3.2241,-3.2115,-3.1586,0.0,0.0,0.0,0.0,0.0,0.0,0.0,0.0,0.0,0.0,0.0,0.0,0.0,0.0,0.0,0.0,0.0,0.0,0.0,0.0,0.0,0.0,0.0,0.0,0.0,0.0,0.0,0.0,0.0,0.0,0.0,0.0,0.0,0.0,0.0,0.0,0.0,0.0,0.0,0.0,0.0,0.0,0.0,0.0,0.0,0.0,0.0,0.0,0.0,0.0,0.0,0.0,0.0,0.0,0.0,0.0,0.0,0.0,0.0,0.0,0.0,0.0,0.0,0.0,0.0,0.0,0.0,0.0,0.0,0.0,0.0,0.0,0.0,0.0,0.0,0.0,0.0,0.0,0.0,0.0,0.0,0.0,0.0,0.0,0.0,0.0,0.0,0.0,0.0,0.0,0.0,0.0,0.0,0.0,0.0,0.0,0.0,0.0,0.0,0.0,0.0,0.0,0.0,0.0,0.0,0.0,0.0,0.0,0.0,0.0,0.0,-3.2498,-3.2498,-3.2199,0.0,-3.07,0.0,0.0,0.0,0.0,0.0,0.0,0.0,0.0,0.0,0.0,0.0,0.0,0.0,0.0,0.0,0.0,0.0,0.0,0.0,0.0,0.0,0.0,0.0,0.0,0.0,0.0,0.0,0.0,0.0,0.0,0.0,0.0,0.0,0.0,0.0,0.0,0.0,0.0,0.0,0.0,0.0,0.0,0.0,0.0,0.0,0.0,0.0,0.0,0.0,0.0,0.0,0.0,0.0,0.0,0.0,0.0,0.0,0.0,0.0,0.0,0.0,0.0,0.0,0.0,0.0,0.0,0.0,0.0,0.0,0.0,0.0,0.0,0.0,0.0,0.0,0.0,0.0,0.0,0.0,0.0,0.0,0.0,0.0,0.0,0.0,0.0,0.0,0.0,0.0,0.0,0.0,0.0,0.0,0.0,0.0,0.0,0.0,0.0,0.0,0.0,0.0,0.0,0.0,0.0,0.0,0.0,0.0,0.0,0.0,0.0,0.0,0.0,-3.2498,-3.2275,-3.198,0.0,0.0,0.0,0.0,0.0,0.0,0.0,0.0,0.0,0.0,0.0,0.0,0.0,0.0,0.0,0.0,0.0,0.0,0.0,0.0,0.0,0.0,0.0,0.0,0.0,0.0,0.0,0.0,0.0,0.0,0.0,0.0,0.0,0.0,0.0,0.0,0.0,0.0,0.0,0.0,0.0,0.0,0.0,0.0,0.0,0.0,0.0,0.0,0.0,0.0,0.0,0.0,0.0,0.0,0.0,0.0,0.0,0.0,0.0,0.0,0.0,0.0,0.0,0.0,0.0,0.0,0.0,0.0,0.0,0.0,0.0,0.0,0.0,0.0,0.0,0.0,0.0,0.0,0.0,0.0,0.0,0.0,0.0,0.0,0.0,0.0,0.0,0.0,0.0,0.0,0.0,0.0,0.0,0.0,0.0,0.0,0.0,0.0,0.0,0.0,0.0,0.0,0.0,0.0,0.0,0.0,0.0,0.0,0.0,0.0,-3.331,-3.3279,-3.2911,-3.258,-3.2407,0.0,0.0,0.0,0.0,0.0,0.0,0.0,0.0,0.0,0.0,0.0,0.0,0.0,0.0,0.0,0.0,0.0,0.0,0.0,0.0,0.0,0.0,0.0,0.0,0.0,0.0,0.0,0.0,0.0,0.0,0.0,0.0,0.0,0.0,0.0,0.0,0.0,0.0,0.0,0.0,0.0,0.0,0.0,0.0,0.0,0.0,0.0,0.0,0.0,0.0,0.0,0.0,0.0,0.0,0.0,0.0,0.0,0.0,0.0,0.0,0.0,0.0,0.0,0.0,0.0,0.0,0.0,0.0,0.0,0.0,0.0,0.0,0.0,0.0,0.0,0.0,0.0,0.0,0.0,0.0,0.0,0.0,0.0,0.0,0.0,0.0,0.0,0.0,0.0,0.0,0.0,0.0,0.0,0.0,0.0,0.0,0.0,0.0,0.0,0.0,0.0,0.0,0.0,0.0,0.0,0.0,0.0,0.0,0.0,0.0,-3.3947,0.0,0.0,0.0,-3.221,0.0,0.0,0.0,0.0,0.0,0.0,0.0,0.0,0.0,0.0,0.0,0.0,0.0,0.0,0.0,0.0,0.0,0.0,0.0,0.0,0.0,0.0,0.0,0.0,0.0,0.0,0.0,0.0,0.0,0.0,0.0,0.0,0.0,0.0,0.0,0.0,0.0,0.0,0.0,0.0,0.0,0.0,0.0,0.0,0.0,0.0,0.0,0.0,0.0,0.0,0.0,0.0,0.0,0.0,0.0,0.0,0.0,0.0,0.0,0.0,0.0,0.0,0.0,0.0,0.0,0.0,0.0,0.0,0.0,0.0,0.0,0.0,0.0,0.0,0.0,0.0,0.0,0.0,0.0,0.0,0.0,0.0,0.0,0.0,0.0,0.0,0.0,0.0,0.0,0.0,0.0,0.0,0.0,0.0,0.0,0.0,0.0,0.0,0.0,0.0,0.0,0.0,0.0,0.0,0.0,0.0,0.0,0.0,0.0,0.0,0.0,0.0,0.0,0.0,0.0,0.0,0.0,0.0,0.0,0.0,0.0,0.0,0.0,0.0,0.0,0.0,0.0,0.0,0.0,0.0,0.0,0.0,0.0,0.0,0.0,0.0,0.0,0.0,0.0,0.0,0.0,0.0,0.0,0.0,0.0,0.0,0.0,0.0,0.0,0.0,0.0,0.0,0.0,0.0,0.0,0.0,0.0,0.0,0.0,0.0,0.0,0.0,0.0,0.0,0.0,0.0,0.0,0.0,0.0,0.0,0.0,0.0,0.0,0.0,0.0,0.0,0.0,0.0,0.0,0.0,0.0,0.0,0.0,0.0,0.0,0.0,0.0,0.0,0.0,0.0,0.0,0.0,0.0,0.0,0.0,0.0,0.0,0.0,0.0,0.0,0.0,0.0,0.0,0.0,0.0,0.0,0.0,0.0,0.0,0.0,0.0,0.0,0.0,0.0,0.0,0.0,0.0,0.0,0.0,0.0,0.0,0.0,0.0,0.0,0.0,0.0,0.0,0.0,0.0,0.0,0.0,0.0,0.0,0.0,0.0,0.0,0.0,0.0,0.0,0.0,0.0,0.0,0.0,0.0,0.0,0.0,0.0,0.0,0.0,0.0,0.0,0.0,0.0,0.0,0.0,0.0,0.0,0.0,0.0,0.0,0.0,0.0,0.0,0.0,0.0,0.0,0.0,0.0,0.0,0.0,0.0,0.0,0.0,0.0,0.0,0.0,0.0,0.0,0.0,0.0,0.0,0.0,0.0,0.0,0.0,0.0,0.0,0.0,0.0,0.0,0.0,0.0,0.0,0.0,0.0,0.0,0.0,0.0,0.0,0.0,0.0,0.0,0.0,0.0,0.0,0.0,0.0,0.0,0.0,0.0,0.0,0.0,0.0,0.0,0.0,0.0,0.0,0.0,0.0,0.0,0.0,0.0,0.0,0.0,0.0,0.0,0.0,0.0,0.0,0.0,0.0,0.0,0.0,0.0,0.0,0.0,0.0,0.0,0.0,0.0,0.0,0.0,0.0,0.0,0.0,0.0,0.0,0.0,0.0,0.0,0.0,0.0,0.0,0.0,0.0,0.0,0.0,0.0,0.0,0.0,0.0,0.0,0.0,0.0,0.0,0.0,0.0,0.0,0.0,0.0,0.0,0.0,0.0,0.0,0.0,0.0,0.0,0.0,0.0,0.0,0.0,0.0,0.0,0.0,0.0,0.0,0.0,0.0,0.0,0.0,0.0,0.0,0.0,0.0,0.0,0.0,0.0,0.0,0.0,0.0,0.0,0.0,0.0,0.0,0.0,0.0,0.0,0.0,0.0,0.0,0.0,0.0,0.0,0.0,0.0,0.0,0.0,0.0,0.0,0.0,0.0,0.0,0.0,0.0,0.0,0.0,0.0,0.0,0.0,0.0,0.0,0.0,0.0,0.0,0.0,0.0,0.0,0.0,0.0,0.0,0.0,0.0,0.0,0.0,0.0,0.0,0.0,0.0,0.0,0.0,0.0,0.0,0.0,0.0,0.0,0.0,0.0,0.0,0.0,0.0,0.0,0.0,0.0,0.0,0.0,0.0,0.0,0.0,0.0,0.0,0.0,0.0,0.0,0.0,0.0,0.0,0.0,0.0,0.0,0.0,0.0,0.0,0.0,0.0,0.0,0.0,0.0,0.0,0.0,0.0,0.0,0.0,0.0,0.0,0.0,0.0,0.0,0.0,0.0,0.0,0.0,0.0,0.0,0.0,0.0,0.0,0.0,0.0,0.0,0.0,0.0,0.0,0.0,0.0,0.0,0.0,0.0,0.0,0.0,0.0,0.0,0.0,0.0,0.0,0.0,0.0,0.0,0.0,0.0,0.0,0.0,0.0,0.0,0.0,0.0,0.0,0.0,0.0,0.0,0.0,0.0,0.0,0.0,0.0,0.0,0.0,0.0,0.0,0.0,0.0,0.0,0.0,0.0,0.0,0.0,0.0,0.0,0.0,0.0,0.0,0.0,0.0,0.0,0.0,0.0,0.0,0.0,0.0,0.0,0.0,0.0,0.0,0.0,0.0,0.0,0.0,0.0,0.0,0.0,0.0,0.0,0.0,0.0,0.0,0.0,0.0,0.0,0.0,0.0,0.0,0.0,0.0,0.0,0.0,0.0,0.0,0.0,0.0,0.0,0.0,0.0,0.0,0.0,0.0,0.0,0.0,0.0,0.0,0.0,0.0,0.0,0.0,0.0,0.0,0.0,0.0,0.0,0.0,0.0,0.0,0.0,0.0,0.0,0.0,0.0,0.0,0.0,0.0,0.0,0.0,0.0,0.0,0.0,0.0,0.0,0.0,0.0,0.0,0.0,0.0,0.0,0.0,0.0,0.0,0.0,0.0,0.0,0.0,0.0,0.0,0.0,0.0,0.0,0.0,0.0,0.0,0.0,0.0,0.0,0.0,0.0,0.0,0.0,0.0,0.0,0.0,0.0,0.0,0.0,0.0,0.0,0.0,0.0,0.0,0.0,0.0,0.0,0.0,0.0,0.0,0.0,0.0,0.0,0.0,0.0,0.0,0.0,0.0,0.0,0.0,0.0,0.0,0.0,0.0,0.0,0.0,0.0,0.0,0.0,0.0,0.0,0.0,0.0,0.0,0.0,0.0,0.0,0.0,0.0,0.0,0.0,0.0,0.0,0.0,0.0,0.0,0.0,0.0,0.0,0.0,0.0,0.0,0.0,0.0,0.0,0.0,0.0,0.0,0.0,0.0,0.0,0.0,0.0,0.0,0.0,0.0,0.0,0.0,0.0,0.0,0.0,0.0,0.0,0.0,0.0,0.0,0.0,0.0,0.0,0.0,0.0,0.0,0.0,0.0,0.0,0.0,0.0,0.0,0.0,0.0,0.0,0.0,0.0,0.0,0.0,0.0,0.0,0.0,0.0,0.0,0.0,0.0,0.0,0.0,0.0,0.0,0.0,0.0,0.0,0.0,0.0,0.0,0.0,0.0,0.0,0.0,0.0,0.0,0.0,0.0,0.0,0.0,0.0,0.0,0.0,0.0,0.0,0.0,0.0,0.0,0.0,0.0,0.0,0.0,0.0,0.0,0.0,0.0,0.0,0.0,0.0,0.0,0.0,0.0,0.0,0.0,0.0,0.0,0.0,0.0,0.0,0.0,0.0,0.0,0.0,0.0,0.0,0.0,0.0,0.0,0.0,0.0,0.0,0.0,0.0,0.0,0.0,0.0,0.0,0.0,0.0,0.0,0.0,0.0,0.0,0.0,0.0,0.0,0.0,0.0,0.0,0.0,0.0,0.0,0.0,0.0,0.0,0.0,0.0,0.0,0.0,0.0,0.0,0.0,0.0,0.0,0.0,0.0,0.0,0.0,0.0,0.0,0.0,0.0,0.0,0.0,0.0,0.0,0.0,0.0,0.0,0.0,0.0,0.0,0.0,0.0,0.0,0.0,0.0,0.0,0.0,0.0,0.0,0.0,0.0,0.0,0.0,0.0,0.0,0.0,0.0,0.0,0.0,0.0,0.0,0.0,0.0,0.0,0.0,0.0,0.0,0.0,0.0,0.0,0.0,0.0,0.0,0.0,0.0,0.0,0.0,0.0,0.0,0.0,0.0,0.0,0.0,0.0,0.0,0.0,0.0,0.0,0.0,0.0,0.0,0.0,0.0,0.0,0.0,0.0,0.0,0.0,0.0,0.0,0.0,0.0,0.0,0.0,0.0,0.0,0.0,0.0,0.0,0.0,0.0,0.0,0.0,0.0,0.0,0.0,0.0,0.0,0.0,0.0,0.0,0.0,0.0,0.0,0.0,0.0,0.0,0.0,0.0,0.0,0.0,0.0,0.0,0.0,0.0,0.0,0.0,0.0,0.0,0.0,0.0,0.0,0.0,0.0]}],[{"header":{"parameterUnit":"kt","parameterCategory":2,"dx":1,"dy":1,"la1":29.587661999999998,"la2":31.0,"lo1":-88.76705300000003,"lo2":-86.6583820000003,"nx":115,"ny":88,"refTime":"2022-11-01T06:00:00:Z","depth":0,"parameterNumber":2,"parameterNumberName":"V-component_of_WINDS"},"data":[18.7169,18.7169,18.7169,18.7169,18.7169,18.7169,18.7169,18.7169,18.7169,18.7169,18.7169,18.7169,18.7169,18.7169,18.6944,18.6196,18.485,18.3504,18.171,17.9915,17.9392,17.8494,17.7672,17.7447,17.7298,17.7298,17.7298,17.7298,17.7298,17.7298,17.7298,17.7298,17.7298,17.7298,17.7298,17.7298,17.7298,17.7298,17.7298,17.7298,17.7298,17.7298,17.7298,17.7298,17.7298,17.7298,17.7298,17.7298,17.7298,17.7298,17.7298,17.7298,17.7074,17.6849,17.655,17.6101,17.498,17.4531,17.3858,17.2736,17.2063,17.169,17.0493,16.9446,16.9072,16.81,16.7951,16.7652,16.7577,16.7427,16.7352,16.7352,16.7352,16.7352,16.7203,16.7203,16.6754,16.6605,16.6231,16.5483,16.5034,16.481,16.4511,16.4062,16.309,16.2941,16.2791,16.2043,16.1968,16.1445,16.0847,16.0249,15.9576,15.8603,15.793,15.7706,15.7631,15.7631,15.7631,15.7631,15.7631,15.7631,15.7183,15.6659,15.6809,15.6734,15.5986,15.5089,15.4865,15.4416,15.307,15.2426,15.2173,15.1948,15.1724,18.7169,18.7169,18.7169,18.7169,18.7169,18.7169,18.7169,18.7169,18.7169,18.7169,18.7169,18.7094,18.7169,18.657,18.5748,18.5075,18.3988,18.2158,18.0887,17.9392,17.8345,17.7747,17.7373,17.7298,17.7298,17.7298,17.7298,17.7298,17.7298,17.7298,17.7298,17.7298,17.7298,17.7298,17.7298,17.7298,17.7298,17.7298,17.7298,17.7298,17.7298,17.7298,17.7298,17.7298,17.7298,17.7298,17.7298,17.7298,17.7298,17.7298,17.7298,17.7148,17.6849,17.5802,17.5428,17.4681,17.3634,17.2886,17.2363,17.1166,17.0493,16.982,16.8474,16.7801,16.7801,16.7502,16.7502,16.7427,16.7427,16.7352,16.7352,16.7352,16.7278,16.7203,16.6979,16.6829,16.6006,16.5259,16.4287,16.3165,16.3015,16.2941,16.2791,16.2791,16.2417,16.2193,16.1669,16.0847,16.0174,15.98,15.9501,15.8903,15.8603,15.8304,15.7781,15.7631,15.7631,15.7557,15.7183,15.7482,15.7407,15.6659,15.6061,15.5762,15.5164,15.479,15.4192,15.3519,15.3219,15.292,15.2202,15.1799,15.1574,15.135,15.0827,18.7169,18.7169,18.7169,18.7169,18.7169,18.7169,18.7169,18.7169,18.7169,18.7169,18.7094,18.6271,18.5748,18.5523,18.4028,18.2906,18.156,18.0289,17.9466,17.8569,17.7672,17.7298,17.7298,17.7298,17.7298,17.7298,17.7298,17.7298,17.7298,17.7298,17.7298,17.7298,17.7298,17.7298,17.7298,17.7298,17.7298,17.7298,17.7298,17.7298,17.7298,17.7298,17.7298,17.7298,17.7298,17.7298,17.7298,17.7298,17.7298,17.7298,17.7148,17.6924,17.5653,17.4382,17.3559,17.3036,17.2063,17.1017,17.0568,16.9671,16.8549,16.8474,16.7577,16.7502,16.7352,16.7352,16.7352,16.7278,16.7278,16.7053,16.7053,16.6679,16.6605,16.6231,16.5857,16.5408,16.4511,16.3763,16.2941,16.1819,16.137,16.1221,16.0996,16.0922,16.0249,15.9949,15.965,15.8753,15.8603,15.8379,15.808,15.7781,15.793,15.7781,15.7332,15.7332,15.7183,15.6958,15.6659,15.651,15.5986,15.5463,15.4865,15.4117,15.3519,15.307,15.2472,15.1948,15.1574,15.1304,15.1126,15.1051,15.12,15.1126,15.1574,18.657,18.6645,18.7019,18.7169,18.7169,18.7169,18.7169,18.7169,18.6421,18.5823,18.5748,18.4626,18.4028,18.3804,18.2308,18.1186,17.999,17.9317,17.842,17.7747,17.7373,17.7298,17.7298,17.7298,17.7298,17.7298,17.7298,17.7298,17.7298,17.7298,17.7298,17.7298,17.7298,17.7298,17.7298,17.7298,17.7298,17.7298,17.7298,17.7298,17.7298,17.7298,17.7298,17.7298,17.7298,17.7298,17.7298,17.7223,17.7074,17.67,17.67,17.5802,17.4307,17.2662,17.1914,17.1465,17.0269,16.9521,16.8998,16.8325,16.7726,16.7502,16.7427,16.7352,16.7352,16.7352,16.7278,16.7203,16.7053,16.6829,16.653,16.6081,16.5558,16.496,16.4361,16.3614,16.2791,16.2268,16.1744,16.0847,16.0024,15.9576,15.9276,15.8753,15.7856,15.7631,15.7631,15.7631,15.7781,15.7706,15.7557,15.7482,15.7482,15.7108,15.6884,15.6584,15.5986,15.5687,15.5089,15.479,15.4491,15.3967,15.3444,15.2621,15.1873,15.1275,15.0752,15.0303,15.0004,14.9705,14.9555,14.9481,14.9705,15.2023,15.2846,18.485,18.5,18.657,18.6944,18.7169,18.6944,18.6944,18.6869,18.4028,18.2607,18.2757,18.2458,18.2383,18.2084,18.0738,17.9766,17.9242,17.8345,17.7597,17.7298,17.7298,17.7298,17.7298,17.7298,17.7298,17.7298,17.7298,17.7298,17.7298,17.7298,17.7298,17.7298,17.7298,17.7298,17.7298,17.7298,17.7298,17.7298,17.7298,17.7298,17.7298,17.7298,17.7298,17.7298,17.7298,17.7298,17.7298,17.6999,17.6625,17.5503,17.4755,17.4157,17.2662,17.1166,17.0418,16.9671,16.8698,16.8175,16.7801,16.7652,16.7352,16.7352,16.7352,16.7352,16.7203,16.7128,16.6904,16.6754,16.5558,16.5184,16.496,16.4511,16.3763,16.3015,16.2567,16.2118,16.1295,16.0622,16.0024,15.9351,15.8678,15.8603,15.8304,15.8304,15.7631,15.7631,15.7631,15.7631,15.7631,15.7482,15.7332,15.7257,15.6734,15.6061,15.5762,15.5164,15.4565,15.3967,15.3219,15.2771,15.2696,15.2397,15.1948,15.12,15.0303,14.9705,14.9256,14.8882,14.8583,14.8658,14.8808,14.8284,15.0004,15.2995,15.4042,18.3131,18.3205,18.3878,18.4177,18.4177,18.4177,18.4103,18.3878,18.2757,18.2084,18.2009,18.1112,18.0738,18.0439,17.9167,17.8345,17.827,17.7522,17.7298,17.7298,17.7298,17.7298,17.7298,17.7298,17.7298,17.7298,17.7298,17.7298,17.7298,17.7298,17.7298,17.7298,17.7298,17.7298,17.7298,17.7298,17.7298,17.7298,17.7298,17.7298,17.7298,17.7298,17.7298,17.7298,17.7298,17.7298,17.7223,17.6027,17.5578,17.4905,17.3559,17.2587,17.1017,17.0269,16.9745,16.8399,16.7652,16.7502,16.7352,16.7352,16.7352,16.7352,16.7352,16.7278,16.7053,16.638,16.6081,16.5707,16.4436,16.3464,16.3165,16.2866,16.1968,16.1071,16.0847,16.0548,15.9875,15.9052,15.8454,15.7781,15.7631,15.7631,15.7631,15.7631,15.7631,15.7631,15.7631,15.7557,15.7332,15.6734,15.6211,15.6061,15.5463,15.479,15.4117,15.3444,15.3145,15.2696,15.1724,15.1051,15.0976,15.0602,15.0004,14.9406,14.8882,14.8658,14.8434,14.7835,14.7835,14.8808,14.9256,14.9256,15.0602,15.307,15.3818,18.1485,18.1485,18.2009,18.2084,18.2009,18.1112,18.0738,18.0738,18.0738,18.0738,18.0663,17.9541,17.9093,17.9018,17.7896,17.7447,17.7298,17.7298,17.7298,17.7298,17.7298,17.7298,17.7298,17.7298,17.7298,17.7298,17.7298,17.7298,17.7298,17.7298,17.7298,17.7298,17.7298,17.7298,17.7298,17.7298,17.7298,17.7298,17.7298,17.7298,17.7298,17.7298,17.7298,17.6924,17.6774,17.6326,17.5952,17.4905,17.3709,17.326,17.2138,17.0867,16.9371,16.9072,16.8923,16.7502,16.7352,16.7352,16.7352,16.7352,16.7352,16.7352,16.6829,16.6829,16.6231,16.5333,16.4287,16.3763,16.2791,16.2043,16.1595,16.0922,16.0024,15.9501,15.9276,15.9052,15.8753,15.823,15.8155,15.7631,15.7631,15.7631,15.7631,15.7631,15.7631,15.7631,15.7482,15.7183,15.6659,15.5238,15.4565,15.4341,15.3818,15.3219,15.2546,15.1873,15.1649,15.1275,15.0228,14.9481,14.9406,14.9107,14.8135,14.791,14.8209,14.7985,14.7686,14.7686,14.7686,14.8658,14.9181,14.9929,15.0677,15.1574,15.2397,17.984,18.0139,18.1485,18.1934,18.1485,17.8943,17.7672,17.7522,17.7597,17.7597,17.7597,17.7672,17.7672,17.7447,17.7373,17.7298,17.7298,17.7298,17.7298,17.7298,17.7298,17.7298,17.7298,17.7298,17.7298,17.7298,17.7298,17.7298,17.7298,17.7298,17.7298,17.7298,17.7298,17.7298,17.7298,17.7298,17.7298,17.7298,17.7298,17.7298,17.7298,17.7223,17.7074,17.655,17.5877,17.5279,17.4382,17.3409,17.1914,17.0942,17.0119,16.8998,16.8175,16.7502,16.7427,16.7352,16.7352,16.7352,16.7352,16.7352,16.7352,16.6829,16.5857,16.5259,16.4586,16.3614,16.2791,16.2043,16.1146,16.0548,16.0099,15.9202,15.8379,15.823,15.808,15.793,15.7706,15.7631,15.7631,15.7631,15.7631,15.7631,15.7631,15.7631,15.7631,15.7332,15.6734,15.636,15.5089,15.3668,15.2846,15.2546,15.2098,15.15,15.0976,15.0378,15.0004,14.9555,14.8583,14.8434,14.8135,14.7835,14.7686,14.7686,14.7686,14.7686,14.7686,14.7686,14.7686,14.7761,14.8209,14.9032,15.0378,15.1051,15.135,17.8195,17.827,17.8793,17.8943,17.8719,17.7747,17.7298,17.7298,17.7298,17.7298,17.7298,17.7298,17.7298,17.7298,17.7298,17.7298,17.7298,17.7298,17.7298,17.7298,17.7298,17.7298,17.7298,17.7298,17.7298,17.7298,17.7298,17.7298,17.7298,17.7298,17.7298,17.7298,17.7298,17.7298,17.7298,17.7298,17.7298,17.7298,17.7298,17.7298,17.7223,17.6999,17.67,17.5802,17.4905,17.4157,17.3036,17.1839,17.0493,16.982,16.8998,16.7951,16.7652,16.7352,16.7352,16.7352,16.7352,16.7352,16.7352,16.7352,16.6605,16.5857,16.4287,16.3464,16.309,16.1819,16.1146,16.0398,15.9351,15.8753,15.8529,15.8379,15.7856,15.7856,15.7781,15.7781,15.7631,15.7631,15.7631,15.7631,15.7631,15.7631,15.7631,15.7557,15.7108,15.6435,15.5762,15.464,15.3369,15.2098,15.1126,15.0677,15.0154,14.9705,14.9181,14.8882,14.8583,14.7835,14.7835,14.7985,14.7686,14.7686,14.7686,14.7686,14.7686,14.7686,14.7686,14.7686,14.7686,14.7686,14.7686,14.8658,15.0004,15.0453,15.0602,17.7298,17.7298,17.7298,17.7298,17.7298,17.7298,17.7298,17.7298,17.7298,17.7298,17.7298,17.7298,17.7298,17.7298,17.7298,17.7298,17.7298,17.7298,17.7298,17.7298,17.7298,17.7298,17.7298,17.7298,17.7298,17.7298,17.7298,17.7298,17.7298,17.7298,17.7298,17.7298,17.7298,17.7298,17.7298,17.7298,17.7298,17.7298,17.7223,17.7223,17.7223,17.6625,17.5877,17.4905,17.3559,17.2437,17.154,16.9895,16.9072,16.8698,16.8175,16.7502,16.7427,16.7352,16.7352,16.7352,16.7352,16.7352,16.7352,16.6605,16.5857,16.4287,16.2716,16.1669,16.1445,16.0099,15.9426,15.8903,15.8304,15.8005,15.7631,15.7631,15.7631,15.7631,15.7631,15.7631,15.7631,15.7631,15.7631,15.7631,15.7631,15.7631,15.7332,15.7108,15.5911,15.5014,15.3519,15.2322,15.1799,15.0602,14.963,14.9107,14.8808,14.806,14.7761,14.8135,14.791,14.7686,14.7686,14.7686,14.7686,14.7686,14.7686,14.7611,14.7686,14.7686,14.7686,14.7686,14.7686,14.7657,14.7686,14.8359,14.8451,14.8519,14.9017,17.7298,17.7298,17.7298,17.7298,17.7298,17.7298,17.7298,17.7298,17.7298,17.7298,17.7298,17.7298,17.7298,17.7298,17.7298,17.7298,17.7298,17.7298,17.7298,17.7298,17.7298,17.7298,17.7298,17.7298,17.7298,17.7298,17.7298,17.7298,17.7298,17.7298,17.7298,17.7298,17.7298,17.7298,17.7298,17.7298,17.7298,17.7223,17.7148,17.6999,17.6625,17.5428,17.4606,17.3484,17.1914,17.0568,16.982,16.8474,16.7951,16.7876,16.7502,16.7352,16.7352,16.7352,16.7352,16.7352,16.7352,16.7352,16.7203,16.5782,16.4212,16.2567,16.0996,16.0024,15.965,15.8828,15.793,15.823,15.7781,15.7631,15.7631,15.7631,15.7631,15.7631,15.7631,15.7631,15.7631,15.7631,15.7631,15.7631,15.7631,15.7407,15.6884,15.6061,15.4565,15.2995,15.1275,15.0378,15.0079,14.9256,14.8508,14.8135,14.8135,14.7686,14.7686,14.7686,14.7686,14.7686,14.7686,14.7686,14.7686,14.7686,14.7611,14.7462,14.7387,14.7312,14.7462,14.7657,14.7408,14.7183,14.7408,14.7029,14.6383,14.6187,14.6558,17.7298,17.7298,17.7298,17.7298,17.7298,17.7298,17.7298,17.7298,17.7155,17.7298,17.7298,17.7298,17.7298,17.7298,17.7189,17.712,17.705,17.705,17.712,17.7155,17.712,17.7298,17.7298,17.7298,17.7298,17.7298,17.7298,17.7298,17.7298,17.7298,17.7298,17.7298,17.7298,17.7298,17.7298,17.7298,17.7298,17.6924,17.6326,17.5578,17.5354,17.3933,17.2811,17.1316,17.0493,16.9371,16.8325,16.7876,16.7352,16.7352,16.7352,16.7352,16.7352,16.7352,16.7352,16.7352,16.7352,16.7352,16.6605,16.496,16.2492,16.1071,15.9426,15.8603,15.8304,15.8005,15.7631,15.7631,15.7631,15.7631,15.7631,15.7631,15.7631,15.7631,15.7631,15.7631,15.7631,15.7183,15.7332,15.7183,15.6435,15.5837,15.5238,15.4416,15.2846,15.12,14.978,14.9032,14.8808,14.8434,14.7686,14.7686,14.7686,14.7686,14.7686,14.7686,14.7686,14.7686,14.7462,14.7536,14.7686,14.7686,14.7611,14.7168,14.6915,14.691,14.6944,14.6959,14.6848,14.6656,14.6074,14.5565,14.5068,14.4954,14.4915,17.6427,17.639,17.5929,17.5694,17.5694,17.5694,17.5694,17.5694,17.5694,17.5694,17.5612,17.5694,17.5694,17.5653,17.5694,17.5694,17.5694,17.5694,17.6008,17.6201,17.6613,17.6833,17.7189,17.7298,17.7189,17.7298,17.7298,17.7298,17.7298,17.7298,17.7298,17.7298,17.7298,17.7264,17.7264,17.7298,17.6849,17.6251,17.5354,17.4382,17.3858,17.2288,17.0942,16.982,16.9521,16.8325,16.7577,16.7427,16.7352,16.7352,16.7352,16.7352,16.7352,16.7352,16.7352,16.7352,16.6605,16.638,16.5857,16.3464,16.1221,15.9725,15.8603,15.7706,15.7781,15.7631,15.7631,15.7631,15.7631,15.7631,15.7631,15.7631,15.7631,15.7631,15.7631,15.7631,15.7332,15.6584,15.636,15.5986,15.5164,15.4266,15.3519,15.2696,15.1126,14.963,14.8583,14.7761,14.791,14.7761,14.7686,14.7686,14.7686,14.7686,14.7686,14.7686,14.7686,14.7387,14.7088,14.7312,14.7611,14.7479,14.6687,14.6569,14.6178,14.6263,14.6242,14.6293,14.6065,14.5603,14.4988,14.4244,14.4115,14.4071,14.394,17.4927,17.4753,17.3661,17.3389,17.3389,17.3238,17.3289,17.3588,17.3439,17.3489,17.3637,17.3389,17.3588,17.3489,17.3686,17.3637,17.3389,17.3238,17.4116,17.4753,17.513,17.5653,17.6276,17.665,17.6905,17.6905,17.7264,17.7264,17.7189,17.7085,17.6905,17.712,17.6722,17.6905,17.6686,17.5867,17.5272,17.4892,17.394,17.3226,17.2063,17.0717,16.9671,16.9222,16.8185,16.7288,16.7352,16.7114,16.7048,16.7352,16.7352,16.7352,16.7352,16.7352,16.7053,16.6754,16.5932,16.5034,16.3838,16.1595,16.0024,15.9426,15.8603,15.7631,15.7631,15.7631,15.7631,15.7631,15.7631,15.7631,15.7631,15.7631,15.7631,15.7482,15.7183,15.7033,15.651,15.5762,15.4939,15.464,15.3892,15.2846,15.1948,15.0901,14.9406,14.8733,14.7761,14.7686,14.7686,14.7686,14.7686,14.7629,14.7657,14.7525,14.7525,14.6736,14.5902,14.554,14.5219,14.5753,14.6569,14.6028,14.4969,14.4895,14.5191,14.5449,14.56,14.5041,14.464,14.4383,14.4027,14.3398,14.3144,14.2856,14.2661,17.3137,17.2294,17.2931,17.3238,17.3238,17.3238,17.3188,17.3188,17.3137,17.3188,17.3238,17.3137,17.3137,17.3188,17.3034,17.2931,17.3086,17.3238,17.3489,17.3588,17.3709,17.3975,17.4649,17.5373,17.566,17.566,17.639,17.6869,17.6761,17.6314,17.566,17.566,17.5586,17.5141,17.4235,17.3348,17.3002,17.2797,17.1878,17.0999,17.0278,16.8783,16.8185,16.757,16.6887,16.6335,16.7048,16.6553,16.6624,16.7081,16.7352,16.7278,16.7128,16.7053,16.6754,16.5633,16.4831,16.3561,16.1148,15.9675,15.8529,15.8155,15.7706,15.7601,15.7601,15.7631,15.7631,15.7631,15.7631,15.7631,15.7631,15.7557,15.7407,15.7033,15.6435,15.6061,15.5463,15.4117,15.3145,15.2771,15.2098,15.12,14.9886,14.8961,14.8347,14.7778,14.7686,14.7686,14.7686,14.7686,14.7629,14.7512,14.7274,14.6762,14.6274,14.5283,14.4047,14.3422,14.2973,14.3233,14.4086,14.3819,14.3544,14.3798,14.4019,14.4044,14.3754,14.3425,14.3071,14.2953,14.271,14.2285,14.205,14.1597,14.1382,17.0956,17.037,17.1135,17.1413,17.1413,17.1413,17.1413,17.1413,17.1413,17.1413,17.1413,17.1413,17.1413,17.1238,17.1413,17.1471,17.1413,17.1369,17.17,17.2257,17.2421,17.2669,17.3238,17.3901,17.4302,17.4485,17.5044,17.5694,17.5289,17.462,17.4302,17.4201,17.3638,17.2775,17.224,17.0673,17.0472,17.017,16.9266,16.8193,16.7786,16.7039,16.6517,16.6481,16.53,16.5461,16.6002,16.5698,16.6076,16.7081,16.7352,16.7128,16.653,16.6231,16.5558,16.4031,16.2841,16.0641,15.8011,15.7182,15.6486,15.6302,15.7039,15.7308,15.6998,15.7202,15.7631,15.7631,15.7631,15.7631,15.7631,15.7033,15.6734,15.6061,15.4865,15.4416,15.3668,15.2397,15.1202,15.0797,15.0274,14.8698,14.726,14.6741,14.6409,14.639,14.6795,14.706,14.7288,14.7318,14.7288,14.7016,14.6177,14.5728,14.4825,14.3937,14.2768,14.2737,14.2297,14.1961,14.2401,14.2434,14.2476,14.2678,14.3043,14.2604,14.1817,14.1736,14.2009,14.1737,14.1382,14.1436,14.1436,14.1032,14.1032,16.9176,16.9176,16.9176,16.9176,16.9238,16.9305,16.9171,16.9238,16.93,16.9176,16.9498,16.9238,16.9371,16.9366,16.9438,16.9238,16.9305,16.9563,17.0128,17.0849,17.1029,17.1485,17.2456,17.2754,17.2983,17.3086,17.3339,17.3063,17.2624,17.255,17.247,17.1862,17.0763,17.0119,16.9449,16.7903,16.7952,16.7686,16.6344,16.5423,16.5389,16.5259,16.5185,16.4935,16.4236,16.4007,16.4977,16.4808,16.5226,16.6407,16.6722,16.6143,16.513,16.4789,16.3732,16.1614,15.9275,15.6682,15.5076,15.505,15.5211,15.5009,15.5862,15.6373,15.6408,15.6724,15.734,15.7465,15.7257,15.7108,15.6734,15.5566,15.4832,15.3948,15.265,15.1765,15.1415,14.9618,14.8829,14.8409,14.791,14.6342,14.5283,14.4934,14.4706,14.534,14.5894,14.639,14.6698,14.6632,14.6524,14.5188,14.4198,14.3997,14.3292,14.2675,14.2141,14.2487,14.196,14.1404,14.1472,14.1406,14.1428,14.1813,14.2125,14.2018,14.1443,14.1166,14.1055,14.1032,14.1126,14.1087,14.0992,14.092,14.092,16.9176,16.9176,16.9176,16.9176,16.9176,16.9176,16.9176,16.9176,16.9176,16.9176,16.9176,16.9176,16.9176,16.9176,16.9176,16.9176,16.9176,16.9176,16.9305,16.9694,16.9759,16.9694,17.0307,17.0909,17.1658,17.1756,17.2075,17.2011,17.0196,16.9754,16.8955,16.8301,16.7648,16.6849,16.5761,16.4657,16.4361,16.4097,16.3435,16.3249,16.3799,16.4007,16.4007,16.3914,16.2789,16.2759,16.37,16.3144,16.3314,16.3988,16.4155,16.3808,16.3474,16.3147,16.1125,15.7716,15.5747,15.4714,15.3949,15.4216,15.4127,15.3629,15.439,15.509,15.5408,15.5713,15.6329,15.7179,15.6554,15.5522,15.5005,15.3297,15.2065,15.137,14.971,14.7913,14.7814,14.73,14.6563,14.577,14.5362,14.4738,14.4391,14.3984,14.3895,14.4467,14.4714,14.5224,14.5048,14.5196,14.5122,14.355,14.2727,14.2609,14.2187,14.1618,14.1261,14.1573,14.1257,14.0896,14.0733,14.0679,14.0898,14.1257,14.149,14.165,14.1291,14.0976,14.0992,14.0992,14.0992,14.0992,14.0992,14.0992,14.0992,16.9176,16.9176,16.9176,16.9176,16.9176,16.9176,16.9176,16.9176,16.9176,16.9176,16.9176,16.9176,16.9176,16.9176,16.9176,16.9176,16.9176,16.9176,16.9176,16.9176,16.9176,16.9176,16.9371,16.9817,17.0128,17.0071,16.9187,16.79,16.6863,16.6791,16.637,16.5363,16.4572,16.3998,16.3161,16.1826,16.1538,16.1681,16.1322,16.1442,16.2604,16.2759,16.2687,16.2394,16.1595,16.1539,16.2196,16.1402,16.123,16.1899,16.1556,16.1008,16.0264,15.9086,15.6951,15.4686,15.3542,15.2889,15.2283,15.284,15.279,15.2488,15.3443,15.3994,15.3981,15.3982,15.4224,15.4776,15.4116,15.294,15.2409,15.03,14.9178,14.8617,14.7116,14.5903,14.5526,14.5012,14.4026,14.3025,14.3048,14.3096,14.2953,14.3144,14.3191,14.3259,14.3536,14.3442,14.326,14.3595,14.3994,14.2857,14.2206,14.1938,14.1577,14.0599,13.9817,14.0361,14.0415,14.0486,14.0483,14.0735,14.0873,14.0992,14.0992,14.1198,14.0992,14.0992,14.0992,14.0992,14.0992,14.0992,14.0992,14.0992,14.0992,16.9176,16.9176,16.9176,16.9176,16.9176,16.9176,16.9176,16.9176,16.9176,16.9176,16.9176,16.9176,16.9176,16.9176,16.9176,16.9176,16.9176,16.9176,16.9176,16.9176,16.9176,16.9176,16.9033,16.8942,16.8519,16.7677,16.637,16.499,16.4376,16.4038,16.3933,16.3454,16.2454,16.1812,16.1391,16.0542,16.0098,16.0215,16.0072,16.0422,16.1213,16.1442,16.1442,16.1271,16.003,15.9958,16.042,15.9619,15.91,15.9898,15.8851,15.7963,15.6874,15.4885,15.3474,15.2561,15.2168,15.1597,15.0942,15.1376,15.1153,15.0984,15.1628,15.2131,15.1867,15.1359,15.1571,15.1989,15.156,15.0333,14.8957,14.7275,14.6295,14.5754,14.4728,14.38,14.3773,14.3517,14.2856,14.1756,14.1345,14.1181,14.1544,14.1809,14.1567,14.1441,14.1447,14.1261,14.0797,14.1036,14.1757,14.1599,14.1402,14.1306,14.0928,13.973,13.9444,14.0278,14.0492,14.0492,14.0635,14.0849,14.0992,14.0992,14.0992,14.0992,14.0992,14.0992,14.0992,14.0992,14.0992,14.0992,14.0992,14.0992,14.0992,16.9176,16.9176,16.9176,16.9176,16.9176,16.9176,16.9176,16.9176,16.9176,16.9176,16.9176,16.9176,16.9176,16.9176,16.9176,16.9176,16.9176,16.9176,16.8962,16.889,16.889,16.8748,16.8319,16.7392,16.6393,16.518,16.4324,16.3468,16.2754,16.2469,16.1969,16.0756,16.0257,16.0399,16.0257,15.9829,15.9757,15.9757,15.9757,16.0,16.0177,16.0177,16.0167,15.9809,15.867,15.807,15.7897,15.6872,15.5929,15.6035,15.5516,15.4418,15.3133,15.1706,15.1055,15.2168,15.1225,15.0538,15.0231,15.029,15.0394,15.0315,14.968,14.934,14.9695,14.9048,14.8952,14.9314,14.9177,14.8314,14.7171,14.504,14.3629,14.317,14.2266,14.1544,14.1436,14.1436,14.1597,14.092,14.0706,14.0492,14.0564,14.0207,13.9818,13.9554,13.9268,13.8875,13.807,13.8014,13.8759,13.8837,14.0449,14.0928,14.0461,13.9549,14.0191,14.0778,14.0849,14.0849,14.0849,14.0992,14.0992,14.0992,14.0992,14.0992,14.0992,14.0992,14.0992,14.0992,14.0992,14.0992,14.0992,14.0992,14.0992,16.9176,16.9176,16.9176,16.9176,16.9176,16.9176,16.9176,16.9176,16.9176,16.9176,16.9176,16.9176,16.9176,16.9176,16.9176,16.9104,16.9176,16.9104,16.8676,16.7963,16.7891,16.7463,16.6607,16.5037,16.4038,16.3253,16.2469,16.1684,16.1113,16.0827,16.0542,15.9829,15.9757,15.9757,15.9757,15.9757,15.9757,15.9757,15.9757,15.9757,15.9757,15.9757,15.9543,15.8473,15.7117,15.619,15.6118,15.4691,15.4049,15.366,15.2906,15.1887,15.107,15.0681,15.0622,15.0999,15.0433,14.9982,14.9197,14.9054,14.8639,14.7841,14.7199,14.716,14.7051,14.6176,14.5926,14.6413,14.5784,14.4689,14.3721,14.2215,14.1986,14.165,14.1236,14.0976,14.092,14.092,14.0992,14.0849,14.0135,13.9779,13.9279,13.8423,13.7978,13.7676,13.7461,13.739,13.6496,13.7067,13.7281,13.8138,13.9779,14.0564,14.0135,14.0278,14.092,14.0992,14.0992,14.0992,14.0992,14.0992,14.0992,14.0992,14.0992,14.0992,14.0992,14.0992,14.0992,14.0992,14.0992,14.0992,14.0992,14.0992,14.0992,16.9176,16.9176,16.9176,16.9176,16.9176,16.9176,16.9176,16.9176,16.9176,16.9176,16.9176,16.9176,16.889,16.8605,16.8462,16.8391,16.7891,16.782,16.7535,16.6322,16.625,16.5251,16.3468,16.2397,16.1684,16.147,16.0328,15.9829,15.9829,15.9971,15.9757,15.9757,15.9757,15.9757,15.9757,15.9757,15.9757,15.9686,15.9329,15.9186,15.9115,15.8758,15.7973,15.7046,15.5833,15.5048,15.4406,15.3121,15.2265,15.198,15.1112,15.0588,15.0315,14.9911,14.9685,14.9601,14.9411,14.8626,14.777,14.7342,14.6914,14.5986,14.5558,14.513,14.4987,14.3745,14.3317,14.3444,14.2279,14.1594,14.1451,14.1103,14.1087,14.1143,14.0976,14.0992,14.092,14.0635,14.0278,13.9993,13.9065,13.8138,13.8066,13.7067,13.6496,13.5926,13.5783,13.5783,13.6282,13.6996,13.7567,13.8225,13.9779,14.0778,14.0492,14.0635,14.0992,14.0992,14.0992,14.0992,14.0992,14.0992,14.0992,14.0992,14.0992,14.0992,14.0992,14.0992,14.0992,14.0992,14.0992,14.0992,14.0992,14.0992,14.092,16.9176,16.9176,16.9176,16.9176,16.9033,16.9104,16.8819,16.9033,16.8819,16.889,16.8819,16.9033,16.8034,16.7035,16.6964,16.6322,16.5109,16.5465,16.5037,16.4966,16.4466,16.3325,16.1042,16.0471,16.0328,16.0185,15.9971,15.9757,15.9757,15.9757,15.9757,15.9686,15.9686,15.9686,15.9472,15.9472,15.9686,15.9186,15.8187,15.7688,15.7545,15.6689,15.5976,15.5405,15.4905,15.4263,15.2907,15.1694,15.0624,15.0493,15.035,15.0065,14.9851,14.8769,14.827,14.8055,14.7199,14.6343,14.5915,14.5844,14.5701,14.513,14.406,14.3489,14.3275,14.2347,14.1532,14.1847,14.1175,14.0992,14.0992,14.0992,14.0992,14.092,14.0778,14.0849,14.0706,13.9707,13.8851,13.878,13.7424,13.6639,13.6425,13.6211,13.5712,13.4356,13.4213,13.457,13.5498,13.6354,13.7353,13.8566,13.9921,14.092,14.0992,14.0992,14.0992,14.0992,14.0992,14.0992,14.0992,14.0992,14.0992,14.0992,14.0992,14.0992,14.0992,14.0992,14.0992,14.0992,14.0992,14.0992,14.0778,14.0421,13.985,16.7749,16.7677,16.6821,16.6393,16.6393,16.6393,16.6393,16.6393,16.6464,16.6393,16.6393,16.6393,16.6036,16.5465,16.5394,16.5037,16.4538,16.4466,16.4395,16.4324,16.3539,16.1898,16.0257,15.9757,15.9757,15.9757,15.9757,15.9686,15.9686,15.9757,15.9757,15.9543,15.8901,15.8473,15.8402,15.7617,15.7046,15.6974,15.6475,15.6047,15.6118,15.5405,15.4691,15.3906,15.3692,15.2979,15.1552,15.0636,14.978,14.9126,14.884,14.8484,14.7569,14.6914,14.6628,14.6557,14.5986,14.513,14.4488,14.4202,14.3846,14.2989,14.2419,14.1919,14.1776,14.142,14.0992,14.0992,14.0992,14.0992,14.0992,14.0992,14.0992,14.0706,13.9279,13.8209,13.8209,13.7709,13.7353,13.6853,13.5926,13.4927,13.4927,13.3999,13.3286,13.2857,13.2786,13.3714,13.4855,13.5783,13.6996,13.9136,14.0778,14.092,14.0992,14.0992,14.0992,14.0992,14.0992,14.0992,14.0992,14.0992,14.0992,14.0992,14.0992,14.0992,14.0992,14.0992,14.0778,14.0706,14.092,14.0706,13.985,13.9279,13.8637,16.6179,16.6036,16.4895,16.4466,16.4466,16.4466,16.4466,16.4466,16.4538,16.4681,16.4538,16.4466,16.4395,16.3896,16.3824,16.3539,16.3111,16.3039,16.3182,16.3039,16.1969,16.0685,15.94,15.8758,15.8402,15.8402,15.8259,15.8544,15.8544,15.833,15.833,15.8473,15.726,15.6832,15.676,15.5761,15.5181,15.5048,15.4763,15.4477,15.4406,15.4049,15.3264,15.2194,15.2123,15.148,15.0422,15.0279,14.9411,14.7556,14.7342,14.6771,14.5915,14.5273,14.4987,14.4916,14.4559,14.3774,14.2847,14.2633,14.2133,14.1063,14.1134,14.0992,14.0992,14.0992,14.0992,14.0992,14.0992,14.0992,14.0849,14.0564,14.0278,13.9993,13.8066,13.6568,13.6425,13.5997,13.564,13.5498,13.4285,13.35,13.3143,13.2501,13.1787,13.1859,13.2358,13.3286,13.5355,13.6639,13.7923,13.9921,14.092,14.092,14.0992,14.0992,14.0992,14.0992,14.0992,14.0992,14.0992,14.0992,14.0992,14.092,14.092,14.0849,14.0849,14.0635,14.0349,14.0064,13.9921,13.9422,13.8637,13.7995,13.7353,16.4538,16.4538,16.4466,16.4181,16.4181,16.4181,16.411,16.4252,16.4252,16.411,16.4181,16.3967,16.3468,16.2469,16.2255,16.1612,16.0328,16.0399,16.0471,16.0043,15.9757,15.8972,15.7545,15.6475,15.5976,15.5761,15.5752,15.5619,15.5904,15.5904,15.5395,15.569,15.5476,15.5191,15.5119,15.5048,15.4691,15.4406,15.3478,15.2907,15.2836,15.1623,15.0636,15.0564,15.0564,15.035,14.9994,14.9637,14.8425,14.6071,14.563,14.5558,14.5273,14.4131,14.3346,14.3346,14.1991,14.1491,14.1206,14.1348,14.1063,14.0778,14.0706,14.092,14.0492,14.0278,14.0349,14.0421,14.0492,14.0635,14.0349,13.9565,13.878,13.8566,13.6782,13.5854,13.5997,13.4784,13.4213,13.3785,13.2786,13.1716,13.1859,13.1787,13.1573,13.1787,13.2786,13.4142,13.5926,13.7424,13.9065,14.0064,14.0849,14.0992,14.0992,14.0992,14.0992,14.0992,14.0992,14.0992,14.0992,14.0992,14.0992,14.0849,14.0778,14.0778,14.0635,14.0064,13.9707,13.9136,13.8423,13.7852,13.7281,13.6639,13.5997,16.3039,16.2897,16.1898,16.1541,16.1541,16.1541,16.1541,16.1541,16.147,16.1541,16.1541,16.1541,16.1184,16.0756,16.0685,16.0328,15.9829,15.9757,15.8758,15.7046,15.6832,15.6546,15.5976,15.5333,15.5181,15.5181,15.5181,15.5181,15.5181,15.5181,15.5181,15.4895,15.412,15.3621,15.355,15.2693,15.2123,15.198,15.1552,15.1195,15.1124,15.0564,15.0279,15.0208,15.0208,14.978,14.8698,14.6842,14.4916,14.3275,14.3632,14.356,14.2775,14.2205,14.1776,14.1705,14.1277,14.092,14.0992,14.0778,14.0564,13.9707,13.9493,13.9136,13.8209,13.7995,13.7995,13.7995,13.8066,13.7995,13.7995,13.7424,13.6711,13.5854,13.4356,13.3428,13.3214,13.2786,13.2501,13.2429,13.2001,13.1645,13.1573,13.1573,13.1573,13.1787,13.2929,13.4499,13.6068,13.7638,13.9136,14.0349,14.0849,14.0992,14.0992,14.0992,14.0992,14.0992,14.0849,14.0635,14.0492,14.0421,14.0278,14.0064,13.9707,13.9493,13.8851,13.8566,13.8423,13.7781,13.7067,13.6282,13.5355,13.4927,13.4855,16.1398,16.1256,16.0257,15.9757,15.9757,15.9757,15.9757,15.9757,15.9757,15.9472,15.9115,15.9044,15.8758,15.8402,15.833,15.833,15.833,15.8259,15.7189,15.5538,15.5252,15.4905,15.4477,15.4334,15.412,15.3692,15.3621,15.355,15.355,15.3478,15.355,15.3407,15.2479,15.2051,15.1908,15.085,15.0279,15.0279,15.0279,15.0279,15.0208,14.978,14.9209,14.884,14.8341,14.7057,14.513,14.2989,14.1134,13.9636,14.092,14.1562,14.0992,14.0492,14.0207,14.0207,13.9779,13.9493,13.9493,13.9351,13.8851,13.8138,13.7852,13.7281,13.6425,13.6354,13.6354,13.6354,13.6282,13.6282,13.614,13.5854,13.4855,13.3357,13.2215,13.1716,13.1787,13.1645,13.1573,13.1573,13.1573,13.1573,13.1573,13.2287,13.2429,13.2572,13.4285,13.5783,13.6996,13.8494,13.985,14.0635,14.0778,14.0992,14.0992,14.0992,14.0992,14.0992,14.0278,13.9707,13.9565,13.9422,13.9136,13.878,13.828,13.7709,13.6925,13.6496,13.6354,13.5997,13.5712,13.4784,13.3642,13.3357,13.3571,15.9829,15.9757,15.9757,15.94,15.9329,15.9329,15.9615,15.94,15.9472,15.8616,15.7545,15.7474,15.676,15.5619,15.5752,15.5191,15.5119,15.5119,15.4905,15.4691,15.4691,15.3978,15.2836,15.2765,15.2051,15.0838,15.0493,15.0422,15.0636,15.0838,15.0707,15.0493,15.0481,15.0339,15.0208,14.9839,14.9851,14.9566,14.928,14.9566,14.9994,14.827,14.6914,14.5701,14.3917,14.1776,13.8867,13.8708,13.7852,13.6568,13.7781,13.9351,13.985,13.9279,13.8582,13.8423,13.7281,13.6496,13.6496,13.6639,13.6711,13.6282,13.6282,13.614,13.5712,13.5783,13.5783,13.5712,13.5783,13.5997,13.564,13.4713,13.3357,13.193,13.1716,13.1573,13.1573,13.1573,13.1573,13.1573,13.1573,13.1573,13.1859,13.2715,13.3571,13.407,13.6068,13.8011,13.8225,13.9565,14.0635,14.0992,14.0992,14.0992,14.0992,14.092,14.0849,14.0564,13.9351,13.8637,13.8352,13.8138,13.7852,13.7495,13.6996,13.6282,13.5569,13.4927,13.4713,13.4356,13.4356,13.3856,13.3357,13.3,13.2929,15.9186,15.8116,15.7046,15.6618,15.6618,15.6618,15.6618,15.6618,15.6618,15.6332,15.5976,15.5833,15.5547,15.5181,15.5181,15.4049,15.198,15.1837,15.1837,15.1837,15.1837,15.1552,15.1124,15.1124,15.0778,15.0279,15.0279,15.0279,15.0279,15.0279,15.0279,15.0065,14.9197,14.8698,14.8341,14.6557,14.5558,14.5273,14.4417,14.3988,14.3917,14.3418,14.2918,14.1991,13.8851,13.5926,13.3999,13.4855,13.4285,13.2429,13.5069,13.6282,13.4998,13.614,13.6996,13.6996,13.6496,13.6282,13.6282,13.6282,13.5783,13.4855,13.4641,13.4142,13.3214,13.3072,13.3072,13.3072,13.3072,13.3072,13.3,13.2715,13.2144,13.1716,13.1573,13.1573,13.1573,13.1573,13.1573,13.1573,13.1573,13.1573,13.1716,13.3,13.3785,13.3999,13.6639,13.8439,13.878,13.9921,14.0992,14.092,14.0849,14.0635,14.0492,13.9065,13.828,13.8138,13.7281,13.7067,13.6853,13.6711,13.6425,13.6211,13.5712,13.4998,13.4356,13.3642,13.3072,13.2572,13.2715,13.3286,13.3286,13.2929,13.3143,15.7474,15.6546,15.5547,15.5181,15.5181,15.5181,15.5181,15.5181,15.5181,15.4834,15.4334,15.4263,15.3906,15.3336,15.2765,15.1052,14.8769,14.8567,14.8567,14.8567,14.8567,14.8567,14.8567,14.8567,14.8626,14.8567,14.8567,14.8567,14.8567,14.8567,14.8341,14.7699,14.67,14.5915,14.5201,14.3418,14.2419,14.2347,14.1491,14.0992,14.1063,14.0349,13.9208,13.7567,13.407,13.1787,13.0788,13.1145,13.0503,12.8576,13.1787,13.2857,13.1288,13.3143,13.457,13.4499,13.3999,13.3999,13.4427,13.457,13.4142,13.3214,13.3072,13.2643,13.1839,13.1573,13.1573,13.1573,13.1573,13.1573,13.1573,13.1573,13.1573,13.1573,13.1573,13.1573,13.1573,13.1573,13.1573,13.1573,13.1573,13.1573,13.193,13.3428,13.4713,13.5069,13.7495,13.9208,13.9636,13.9707,13.9993,13.9993,13.9636,13.9208,13.9279,13.7281,13.6211,13.614,13.564,13.5498,13.5069,13.4855,13.4285,13.3928,13.3714,13.3143,13.3,13.2358,13.2287,13.1859,13.2073,13.2643,13.3143,13.2429,13.2857,15.5048,15.4977,15.5038,15.4895,15.4834,15.4763,15.4763,15.4549,15.4691,15.3978,15.2765,15.2693,15.1694,15.0053,14.8698,14.7128,14.5786,14.5786,14.5857,14.5915,14.5786,14.5643,14.5572,14.5572,14.5643,14.6,14.6058,14.5857,14.5844,14.563,14.4773,14.3418,14.3204,14.2347,14.1206,14.0635,14.0564,14.0278,13.9921,14.0207,14.0064,13.8637,13.564,13.2001,13.0003,12.9219,12.9076,12.7792,12.7007,12.6864,12.8505,12.9219,12.9147,13.0503,13.1359,13.1288,13.0075,12.9932,13.1359,13.1645,13.1645,13.1645,13.1787,13.1573,13.1573,13.1573,13.1573,13.1573,13.1573,13.1573,13.1573,13.1573,13.1573,13.1573,13.1573,13.1483,13.143,13.1216,13.143,13.1145,13.0931,13.0788,13.1268,13.407,13.5212,13.6068,13.8494,14.0278,13.9921,13.9136,13.8637,13.828,13.7495,13.6282,13.6068,13.5355,13.5498,13.5283,13.4285,13.3856,13.3286,13.2786,13.2073,13.1573,13.1573,13.1502,13.143,13.1359,13.1216,13.1359,13.1573,13.2287,13.2857,13.2001,13.2429,15.4406,15.3478,15.3407,15.2693,15.1623,15.1623,15.1623,15.1623,15.1623,15.1409,15.0981,15.0981,14.9423,14.7057,14.6486,14.6058,14.5572,14.5572,14.5572,14.5572,14.5572,14.5572,14.5572,14.5572,14.5572,14.5572,14.55,14.55,14.5429,14.4559,14.3703,14.2989,14.0992,13.9707,13.9065,13.6853,13.5854,13.5783,13.4713,13.4142,13.3856,13.1502,12.9575,12.8362,12.7792,12.7577,12.7577,12.7149,12.6436,12.5366,12.6721,12.7078,12.6008,12.7363,12.822,12.8148,12.7792,12.8291,12.9789,12.9932,13.036,13.143,13.1573,13.1573,13.1573,13.1573,13.1573,13.1502,13.1573,13.143,13.1573,13.1573,13.1573,13.1573,13.1573,13.1002,13.0075,12.9861,12.9504,12.8434,12.8505,12.822,12.8648,13.086,13.3,13.3357,13.564,13.7567,13.7424,13.7281,13.6925,13.6853,13.6568,13.5355,13.3286,13.3,13.2857,13.2715,13.2572,13.2073,13.2073,13.193,13.143,12.9932,12.9932,12.9789,12.9433,12.9718,12.9861,13.036,13.1716,13.3286,13.2857,13.3214,13.3428,15.2194,15.0838,15.0838,14.9911,14.8425,14.8353,14.8282,14.8353,14.8353,14.8353,14.8353,14.8353,14.6927,14.4702,14.4631,14.4274,14.3703,14.3703,14.3703,14.3703,14.3703,14.3703,14.3703,14.3703,14.3703,14.3703,14.3703,14.3703,14.356,14.2775,14.1634,14.0278,13.7923,13.6354,13.5569,13.3286,13.2073,13.2001,13.0503,12.9718,12.9433,12.7863,12.7007,12.6935,12.6293,12.5936,12.5936,12.5294,12.4509,12.3724,12.4438,12.4509,12.3653,12.4438,12.4937,12.5009,12.558,12.665,12.822,12.8933,12.9647,13.0503,13.1216,13.1573,13.1573,13.1573,13.0931,13.0003,12.9647,12.9718,12.9647,12.9647,12.9647,12.9718,12.9718,12.929,12.8362,12.8362,12.8006,12.7149,12.7007,12.7007,12.7292,12.8576,13.0075,13.1787,13.4285,13.6354,13.6282,13.5712,13.5355,13.5212,13.4713,13.3286,13.1288,13.0646,13.036,12.9932,12.9647,12.9647,12.9647,12.9647,12.9504,12.8505,12.8362,12.8077,12.7649,12.879,12.9575,13.0503,13.2144,13.2929,13.3,13.3,13.2287,14.9054,14.7841,14.777,14.6914,14.5772,14.5643,14.5714,14.5643,14.5572,14.5415,14.4631,14.4773,14.3846,14.2704,14.2561,14.1705,14.0564,14.0492,14.0492,14.0492,14.0492,14.0492,14.0492,14.0492,14.0492,14.0492,14.0492,14.0421,14.0135,14.0135,13.8637,13.5783,13.407,13.2572,13.1216,12.9789,12.9076,12.9076,12.7363,12.6507,12.6457,12.6507,12.6507,12.6436,12.508,12.4367,12.4367,12.294,12.2155,12.2083,12.2012,12.1869,12.1869,12.1727,12.1655,12.1678,12.3011,12.4509,12.5936,12.7649,12.8505,12.8933,13.0146,13.1002,13.1002,13.086,12.9647,12.7577,12.6935,12.7221,12.7007,12.7078,12.7292,12.7363,12.7292,12.6864,12.6793,12.6721,12.665,12.6528,12.615,12.6507,12.615,12.6293,12.7577,12.9861,13.2715,13.4855,13.5141,13.4427,13.3714,13.3,13.2144,13.0574,12.9504,12.9076,12.8648,12.7506,12.7078,12.7292,12.7506,12.7363,12.6864,12.6935,12.6721,12.7149,12.7863,12.9076,12.9361,13.036,13.1216,13.1573,13.1359,13.1145,12.999,14.6486,14.6129,14.6129,14.5986,14.5572,14.5572,14.5572,14.5572,14.55,14.2918,13.8708,13.8352,13.8209,13.7852,13.7852,13.7638,13.7353,13.7353,13.7353,13.7353,13.7281,13.7281,13.7281,13.7281,13.7281,13.7281,13.7281,13.6711,13.564,13.5498,13.3928,13.1002,12.929,12.8362,12.8006,12.7649,12.7506,12.7292,12.4652,12.3154,12.3176,12.3225,12.3176,12.3154,12.2868,12.2654,12.2654,12.2249,12.2083,12.2035,12.0942,12.03,12.0228,11.9158,11.8444,11.8444,11.8801,11.9229,11.9657,12.2155,12.4295,12.5508,12.7078,12.8006,12.7863,12.6864,12.5794,12.5366,12.6008,12.6793,12.665,12.6671,12.7007,12.7007,12.7007,12.6222,12.5294,12.508,12.4652,12.3439,12.3154,12.3225,12.3176,12.3176,12.4081,12.6079,12.8862,13.1288,13.2358,13.2429,13.1002,12.9361,12.8291,12.7934,12.7577,12.7435,12.7292,12.7149,12.6864,12.665,12.6721,12.6864,12.6579,12.5223,12.5009,12.5223,12.558,12.6507,12.7863,12.929,13.0503,13.1002,13.0003,12.9004,12.7322,14.5201,14.4559,14.4559,14.4131,14.3489,14.3489,14.3132,14.2291,14.1634,13.9351,13.6354,13.6282,13.6282,13.6282,13.6282,13.6282,13.6282,13.6282,13.6282,13.6282,13.6282,13.6282,13.6282,13.6282,13.6282,13.6282,13.6282,13.5426,13.407,13.3928,13.2358,12.9361,12.8434,12.7649,12.6935,12.6222,12.5865,12.5794,12.3368,12.2083,12.2083,12.2083,12.2083,12.2083,12.2083,12.2083,12.2083,12.137,12.1013,12.1013,11.9515,11.8373,11.766,11.6803,11.6329,11.6375,11.6375,11.6661,11.7374,11.9015,12.0656,12.2226,12.3796,12.3818,12.1727,12.0728,12.0514,12.1298,12.2012,12.2583,12.2583,12.2583,12.2583,12.2583,12.2583,12.2226,12.1441,12.1298,12.0942,12.0157,11.9943,11.9943,11.9895,11.9895,12.0585,12.2226,12.4367,12.6864,12.9076,12.9433,12.879,12.7363,12.6935,12.665,12.6008,12.5865,12.5508,12.4795,12.4723,12.4723,12.4723,12.4723,12.401,12.2725,12.2417,12.2369,12.2369,12.3653,12.5223,12.6793,12.8362,12.9076,12.8505,12.7577,12.6112,14.3418,14.2276,14.2276,14.1491,14.0278,14.0278,13.9565,13.8138,13.6639,13.5783,13.5569,13.5569,13.564,13.5569,13.5569,13.564,13.5569,13.5569,13.5569,13.5569,13.5569,13.5569,13.5569,13.564,13.5498,13.5283,13.5212,13.4356,13.2786,13.2572,13.1216,12.8505,12.8291,12.7506,12.6293,12.4937,12.4224,12.4224,12.2797,12.2083,12.2083,12.2083,12.2012,12.1749,12.1727,12.1655,12.1441,12.0085,11.9372,11.9372,11.7731,11.6161,11.4831,11.4306,11.4092,11.4047,11.4047,11.4734,11.5947,11.609,11.6732,11.8302,11.9871,11.8801,11.4261,11.4118,11.4974,11.6304,11.6732,11.6732,11.6732,11.6875,11.7089,11.7231,11.716,11.7231,11.766,11.766,11.7731,11.766,11.7445,11.7517,11.7731,11.766,11.823,11.9372,12.1584,12.3176,12.558,12.6293,12.6243,12.6222,12.6222,12.558,12.4153,12.3867,12.3082,12.1727,12.1441,12.1441,12.1393,12.1441,12.1013,11.9657,11.9586,11.9657,11.9943,12.087,12.2583,12.4652,12.5865,12.6721,12.6721,12.5969,12.482,13.7781,13.7495,13.7495,13.7281,13.7067,13.7067,13.6925,13.6568,13.4998,0.0,0.0,13.2429,13.2429,13.2429,13.2429,13.2429,13.2429,13.2429,13.2358,13.2358,13.2429,13.2429,13.2429,13.2358,13.1716,13.0503,13.0503,12.9076,12.6293,12.6222,12.5223,12.351,12.3319,12.3225,12.2891,12.2725,12.2511,12.2511,12.2226,12.2083,12.2083,12.2083,12.1513,12.0157,12.0157,11.9515,11.8302,11.8016,11.7802,11.7731,11.5162,11.345,11.3093,11.0667,10.9311,10.9311,10.9311,10.9383,10.9668,10.9668,11.0382,11.1951,11.3521,11.2379,10.7813,10.9739,11.1381,11.1666,11.2808,11.3592,11.3592,11.3592,11.4092,11.533,11.5473,11.5972,11.716,11.7445,11.7089,11.7445,11.716,11.7374,11.716,11.7089,11.7588,11.8088,11.9943,12.2391,12.2748,12.2868,12.2868,12.294,12.294,12.244,12.1084,12.0656,11.9943,11.8801,11.8373,11.823,11.823,11.823,11.8159,11.7874,11.7802,11.8302,11.9372,11.98,12.1156,12.401,12.4866,12.5009,12.4767,12.2939,12.1021,13.6282,13.6282,13.6282,13.6282,0.0,13.6282,13.5355,13.3856,13.3072,13.2287,13.1573,13.1573,13.1573,13.1573,13.1573,13.1573,13.1573,13.1573,13.1573,13.1573,13.1573,13.1573,13.1573,13.0788,13.0003,12.9219,12.8505,12.6864,12.4652,12.463,12.3724,12.2155,12.2083,12.2083,12.2083,12.2083,12.1727,12.087,12.1727,12.1727,12.0942,12.087,12.0157,11.8658,11.8587,0.0,0.0,0.0,0.0,0.0,0.0,0.0,0.0,10.7028,0.0,10.5672,10.4245,10.4031,10.553,10.4959,10.5173,10.6743,10.7599,10.6029,10.1391,10.4602,10.7528,10.9097,10.9882,11.0382,11.0382,11.0382,11.0667,11.1452,11.1523,11.1809,11.2522,11.2665,11.2665,11.2665,11.2665,11.2665,11.2665,11.2736,11.295,11.3878,11.6543,11.8754,11.9443,11.9087,11.8897,11.9586,11.9729,11.9443,11.873,11.8587,11.823,11.766,11.7445,11.7445,11.7445,11.7445,11.716,11.6375,11.6186,11.609,11.6375,11.6875,11.8088,12.0371,12.1584,12.179,12.0087,11.92,11.8568,13.5355,13.5355,13.5355,13.5355,13.5283,13.4713,13.3072,13.0717,13.0769,13.0717,13.0717,13.0717,13.0717,13.0717,13.0717,13.0717,13.0717,13.0717,13.0503,13.0289,13.0574,13.0503,13.0217,12.929,12.8648,12.8291,12.7078,12.5651,12.4153,12.3796,12.294,12.1655,12.1655,12.1513,12.1227,0.0,0.0,0.0,12.0585,12.0585,11.9372,11.9301,11.8587,11.7089,11.7017,0.0,11.609,11.4831,11.3378,11.1523,11.0168,0.0,0.0,0.0,0.0,0.0,0.0,0.0,0.0,0.0,0.0,0.0,10.0963,9.9251,9.5968,9.9536,10.3389,10.6386,10.6785,10.6785,10.6743,10.6457,10.6529,10.7099,10.7171,10.7385,10.807,10.8141,10.8141,10.8141,10.8141,10.8141,10.8355,10.8141,10.8669,11.0096,11.2406,11.4546,11.5947,11.5662,11.5616,11.6732,11.7445,11.7445,11.7017,11.7017,11.6875,11.6518,11.6518,11.6447,11.6375,11.6375,11.5947,11.4902,11.4617,11.4235,11.3164,11.3508,11.4745,11.6286,11.7586,11.7931,11.6497,11.6689,11.7067,13.2144,13.2144,13.2196,13.2144,13.1982,12.929,12.7934,12.7506,12.7506,12.7506,12.7506,12.7577,12.7577,12.7506,12.7577,12.7506,12.7506,12.7577,12.6793,12.558,12.6935,12.6793,12.5508,12.6721,12.6507,12.5223,12.5009,12.401,12.244,12.1013,12.0228,12.0014,12.0014,11.9372,11.8088,11.8016,11.7945,11.7731,11.7874,11.7945,11.7731,11.7731,11.7017,11.5473,11.533,11.4092,11.1408,11.1166,10.9668,10.6814,10.6457,10.553,10.3817,10.0963,9.9322,0.0,9.5003,0.0,0.0,0.0,0.0,0.0,0.0,0.0,0.0,9.5326,9.8609,10.1677,10.1962,10.1962,10.2002,10.0749,10.1034,10.3675,10.4031,10.5102,10.7713,10.8141,10.8141,10.8141,10.8141,10.807,10.7927,10.8141,10.807,10.8455,10.9811,11.0952,11.1523,11.3307,11.476,11.533,11.6518,11.6518,11.5616,11.533,11.4902,11.3735,11.3521,11.3307,11.3521,11.3521,11.3333,11.3119,11.2958,11.2932,11.2808,11.1885,11.177,11.3368,11.3524,11.4577,11.7116,11.6482,11.5947,12.9004,12.9004,12.9004,12.7934,12.6222,12.4866,12.4295,12.4246,12.4224,12.4295,12.4174,12.4246,12.4295,12.4153,12.3368,12.3439,12.4224,12.4246,12.3867,12.3296,12.3938,12.3938,12.3225,12.3011,12.2583,12.1869,12.1013,12.0228,11.9443,11.7945,11.8016,11.9657,11.8016,11.6375,11.4877,11.4805,11.5305,11.6161,11.5234,11.5234,11.609,11.6115,11.5376,11.3878,11.295,11.1452,10.9169,10.9097,10.767,10.4673,10.5316,10.4245,10.0963,9.7824,9.5255,0.0,0.0,0.0,0.0,0.0,0.0,0.0,0.0,0.0,0.0,0.0,9.4613,9.6896,9.8751,9.975,9.9821,9.8394,9.7966,9.9322,9.9465,10.0036,10.1431,10.2431,10.289,10.289,10.289,10.3246,10.4031,10.4174,10.4816,10.6529,10.5886,10.5886,10.7528,10.8955,11.0524,11.2237,11.3048,11.3521,11.3806,11.3806,11.3521,11.2879,11.2736,11.2736,11.2736,11.2118,11.1578,11.153,11.0807,11.0237,11.0288,11.0358,11.112,11.1884,10.9608,10.8098,11.0383,11.0515,11.0541,12.5794,12.558,12.3368,12.1227,11.9301,11.9301,11.9515,11.9943,12.0252,12.018,11.9943,12.0608,12.0323,11.9229,11.766,11.7802,11.9324,11.9253,11.9515,11.9871,11.9871,11.9871,11.98,11.8587,11.8088,11.8016,11.7231,11.6661,11.6304,11.5402,11.609,11.7802,11.4857,11.2932,11.2121,11.172,11.2192,11.3333,11.2237,11.2379,11.3833,11.3975,11.3405,11.2237,11.0667,10.8955,10.7028,10.7313,10.5886,10.2604,10.346,10.2105,9.7752,9.3828,0.0,0.0,0.0,0.0,0.0,0.0,0.0,0.0,0.0,7.989,7.989,0.0,8.9867,0.0,9.4575,9.6611,9.7039,9.5612,0.0,0.0,9.4613,9.4722,9.4722,9.6111,9.7039,9.7,9.7752,9.8609,9.9821,10.0321,10.1391,10.3592,10.2237,10.1738,10.3467,10.472,10.6287,10.8079,10.9031,11.0,11.0951,11.0906,11.0252,11.0231,11.0351,11.0681,11.0634,10.9752,10.9157,10.9357,10.8525,10.7878,10.7862,10.8421,10.9094,10.8751,10.5068,10.1654,10.3252,10.4464,10.5604,12.2391,12.1678,11.3164,11.031,11.1381,11.1381,11.2165,11.3592,11.5019,11.4831,11.3735,11.6518,11.5376,11.1309,10.9739,0.0,11.1381,11.1381,11.2094,11.345,11.3521,11.345,11.3521,11.3378,11.3307,11.3307,11.4663,11.452,11.3236,11.4377,11.452,11.3236,10.9876,10.8933,11.0072,10.8791,10.8238,10.8598,10.8569,10.924,11.0738,11.081,11.0738,11.0596,10.9097,10.6814,10.4031,10.5173,10.3817,9.9465,9.9251,9.7752,9.4327,0.0,0.0,0.0,0.0,0.0,0.0,0.0,0.0,0.0,0.0,0.0,0.0,0.0,0.0,8.499,8.8121,0.0,9.2008,9.0688,0.0,0.0,0.0,8.9761,8.9761,9.1152,9.215,9.215,0.0,0.0,9.6792,9.8038,9.8958,9.8901,9.9968,10.013,9.8622,10.2178,10.4472,10.3012,10.5154,10.6987,10.7011,10.558,10.4192,10.3506,10.3865,10.4798,10.4868,10.4609,10.5141,10.6059,10.6371,10.6108,10.6275,10.4762,10.3205,9.9362,9.9109,10.0113,10.1378,10.1719,10.2292,11.2808,10.9097,10.5387,10.3675,10.3389,10.3389,10.4816,10.7171,10.7742,10.8241,10.8526,10.8883,10.6885,10.3318,10.1677,0.0,0.0,0.0,10.4673,10.7171,10.8098,10.9026,10.9882,10.9953,10.9882,10.9997,11.0596,11.1024,11.1309,11.1024,10.8967,10.5361,0.0,10.5061,10.5701,10.5147,10.4949,10.5076,10.613,10.6957,10.7599,10.8526,10.8526,10.7599,10.61,10.4245,10.2105,10.2604,10.1137,9.7311,9.7097,9.439,0.0,0.0,0.0,0.0,0.0,0.0,0.0,0.0,0.0,0.0,0.0,6.5602,6.6593,0.0,0.0,0.0,8.0587,8.339,8.6841,8.5773,0.0,0.0,0.0,0.0,0.0,0.0,0.0,8.5703,8.8513,9.1293,9.3108,9.2924,9.3269,9.4919,9.5386,9.5985,9.6913,0.0,9.989,9.9716,10.1021,10.2188,10.265,10.2184,10.1574,10.0919,10.1154,10.1399,10.1348,10.0572,10.0201,10.0572,10.0162,9.9508,9.9508,9.6834,9.379,9.1474,9.1488,9.2652,9.4884,9.5325,9.6279,10.1748,0.0,0.0,0.0,0.0,9.5326,9.6896,9.9393,9.9782,10.0392,10.0963,10.0321,0.0,0.0,0.0,0.0,0.0,0.0,9.818,10.078,10.3246,10.4959,10.6029,10.5559,10.5559,10.5945,10.5902,10.6145,10.6715,10.4166,10.1326,9.8185,0.0,0.0,0.0,0.0,10.1835,10.2387,10.3693,10.4816,10.5744,10.6386,10.6172,10.5102,10.3603,10.2033,10.0464,10.0352,9.8776,9.5524,9.3597,0.0,0.0,0.0,0.0,0.0,0.0,0.0,0.0,0.0,0.0,0.0,0.0,0.0,0.0,0.0,0.0,0.0,0.0,0.0,8.0249,8.0917,8.1093,0.0,0.0,0.0,0.0,0.0,0.0,0.0,0.0,0.0,8.673,8.6365,8.7088,0.0,0.0,9.1628,9.322,9.4239,9.4914,9.5124,9.5842,0.0,9.7126,9.6919,9.6684,9.6688,9.5898,9.5477,9.5937,9.5085,9.4439,9.4804,9.4066,9.2315,8.9732,8.6771,8.4813,8.3879,8.3961,8.4894,8.679,8.759,8.884,0.0,0.0,0.0,0.0,8.7264,0.0,0.0,0.0,9.1223,9.108,0.0,9.1223,0.0,0.0,0.0,0.0,8.5228,8.9511,0.0,0.0,9.8894,10.1217,10.1177,9.9551,9.947,10.0822,10.0574,9.971,9.8038,9.3175,0.0,0.0,0.0,0.0,0.0,0.0,9.8847,10.0608,10.1097,10.2676,10.553,10.4275,10.3491,10.3419,10.1922,10.0392,9.8894,9.8483,9.698,9.3816,8.7729,0.0,0.0,0.0,0.0,0.0,0.0,0.0,0.0,0.0,0.0,0.0,0.0,0.0,0.0,0.0,0.0,0.0,0.0,0.0,0.0,7.6346,0.0,0.0,0.0,0.0,0.0,0.0,0.0,0.0,0.0,8.0466,7.6991,7.8434,8.0971,8.406,0.0,0.0,0.0,0.0,8.9966,8.8361,8.9319,9.0324,9.0345,8.8234,8.7121,8.8416,0.0,0.0,8.6887,8.703,8.7383,8.8601,8.8618,8.5781,7.6321,7.5586,7.6178,7.6148,7.7086,7.8187,7.8499,7.9568,8.0898,0.0,0.0,0.0,0.0,0.0,0.0,0.0,0.0,0.0,8.2126,8.1555,8.1127,0.0,0.0,0.0,0.0,0.0,0.0,0.0,0.0,9.0009,9.2673,9.4328,9.4746,9.4627,9.4122,9.4002,9.0718,0.0,0.0,0.0,0.0,0.0,0.0,0.0,0.0,9.3891,9.5497,9.8189,10.0141,10.1195,9.9853,9.9153,9.9299,9.8617,9.7802,9.679,9.4454,9.1136,0.0,0.0,0.0,0.0,0.0,0.0,0.0,0.0,0.0,0.0,0.0,0.0,0.0,0.0,0.0,0.0,0.0,0.0,0.0,0.0,0.0,0.0,0.0,7.3911,0.0,0.0,0.0,0.0,0.0,0.0,0.0,0.0,0.0,7.0961,7.3102,7.5875,7.8744,8.1213,8.2835,8.3034,0.0,0.0,0.0,0.0,0.0,0.0,0.0,8.2758,8.1966,8.104,8.0229,7.9684,7.8779,7.8383,7.8782,0.0,0.0,6.92,6.8259,6.8544,6.8369,6.8717,6.9632,7.1463,7.2294,7.3603,0.0,0.0,0.0,0.0,0.0,0.0,0.0,0.0,0.0,7.3564,7.335,0.0,0.0,0.0,0.0,0.0,0.0,0.0,0.0,0.0,0.0,0.0,8.6755,8.7702,0.0,0.0,0.0,0.0,0.0,0.0,0.0,0.0,0.0,0.0,0.0,0.0,9.0248,9.2697,9.5395,9.7237,9.8299,9.6415,9.5494,9.5663,9.5518,9.5049,9.4099,0.0,0.0,0.0,0.0,0.0,0.0,0.0,0.0,0.0,0.0,0.0,0.0,0.0,0.0,0.0,0.0,0.0,0.0,0.0,0.0,0.0,0.0,0.0,0.0,0.0,6.8882,0.0,0.0,0.0,0.0,0.0,0.0,0.0,0.0,0.0,0.0,6.7291,7.037,7.3162,7.5617,7.779,7.9636,8.0772,8.1429,0.0,0.0,0.0,0.0,0.0,0.0,0.0,0.0,0.0,0.0,0.0,0.0,0.0,0.0,6.5002,6.1015,6.0714,6.1002,6.07,0.0,0.0,0.0,0.0,0.0,0.0,0.0,0.0,0.0,0.0,0.0,0.0,0.0,0.0,0.0,6.5306,0.0,0.0,6.0621,0.0,0.0,0.0,0.0,0.0,0.0,0.0,0.0,0.0,0.0,0.0,0.0,0.0,0.0,0.0,0.0,0.0,0.0,0.0,0.0,0.0,0.0,8.779,9.2421,9.2609,9.4147,9.6875,9.419,9.2606,9.2581,9.2606,9.208,9.0914,0.0,0.0,0.0,0.0,0.0,0.0,0.0,0.0,0.0,0.0,0.0,0.0,0.0,0.0,0.0,0.0,0.0,0.0,0.0,0.0,0.0,0.0,0.0,0.0,0.0,0.0,6.6803,6.8069,6.7723,0.0,0.0,0.0,0.0,0.0,0.0,0.0,0.0,0.0,6.7356,6.992,7.2602,7.5623,7.6085,7.6888,7.8384,7.7435,7.6505,7.6373,7.5127,7.3534,0.0,0.0,0.0,0.0,0.0,0.0,0.0,0.0,0.0,0.0,0.0,0.0,0.0,0.0,0.0,0.0,0.0,0.0,0.0,0.0,0.0,0.0,0.0,0.0,0.0,0.0,0.0,0.0,0.0,0.0,0.0,0.0,0.0,0.0,0.0,0.0,0.0,0.0,0.0,0.0,0.0,0.0,0.0,0.0,0.0,0.0,0.0,0.0,0.0,0.0,0.0,0.0,0.0,0.0,8.1753,8.7221,8.8707,9.0992,9.4149,9.1248,8.9308,8.8573,8.9358,8.8156,0.0,0.0,0.0,0.0,0.0,0.0,0.0,0.0,0.0,0.0,0.0,0.0,0.0,0.0,0.0,0.0,0.0,0.0,0.0,0.0,0.0,0.0,0.0,0.0,0.0,0.0,0.0,0.0,6.649,6.6863,6.4332,0.0,0.0,0.0,0.0,0.0,0.0,0.0,0.0,0.0,0.0,6.909,7.1043,7.3084,7.4645,7.5134,7.4804,7.3814,7.1769,7.1922,7.1087,6.7595,0.0,0.0,0.0,0.0,0.0,0.0,0.0,0.0,0.0,0.0,0.0,0.0,0.0,0.0,0.0,0.0,0.0,0.0,0.0,0.0,0.0,0.0,0.0,0.0,0.0,0.0,0.0,0.0,0.0,0.0,0.0,0.0,0.0,0.0,0.0,0.0,0.0,0.0,0.0,0.0,0.0,0.0,0.0,0.0,0.0,0.0,0.0,0.0,0.0,0.0,0.0,0.0,0.0,7.824,8.3988,8.5807,8.8129,9.1127,8.9003,8.7383,8.6724,8.6372,8.4362,0.0,0.0,0.0,0.0,0.0,0.0,0.0,0.0,0.0,0.0,0.0,0.0,0.0,0.0,0.0,0.0,0.0,0.0,0.0,0.0,0.0,0.0,0.0,0.0,0.0,0.0,0.0,0.0,6.1565,6.2783,6.182,0.0,0.0,0.0,0.0,0.0,0.0,0.0,0.0,0.0,0.0,6.5561,6.806,6.9967,0.0,0.0,7.1479,7.0493,6.8608,6.9178,6.852,6.4584,6.3993,0.0,0.0,0.0,0.0,0.0,0.0,0.0,0.0,0.0,0.0,0.0,0.0,0.0,0.0,0.0,0.0,0.0,0.0,0.0,0.0,0.0,0.0,0.0,0.0,0.0,0.0,0.0,0.0,0.0,0.0,0.0,0.0,0.0,0.0,0.0,0.0,0.0,0.0,0.0,0.0,0.0,0.0,0.0,0.0,0.0,0.0,0.0,0.0,0.0,0.0,0.0,0.0,7.6434,8.2096,8.3486,8.5552,8.8511,8.725,8.6395,8.6329,8.3447,8.0791,0.0,0.0,0.0,0.0,0.0,0.0,0.0,0.0,0.0,0.0,0.0,0.0,0.0,0.0,0.0,0.0,0.0,0.0,0.0,0.0,0.0,0.0,0.0,0.0,0.0,0.0,0.0,0.0,0.0,0.0,0.0,0.0,0.0,0.0,0.0,0.0,0.0,0.0,0.0,0.0,0.0,6.201,6.6021,6.6811,6.7402,0.0,6.7754,6.6876,6.6703,6.6834,6.5765,6.2652,0.0,0.0,0.0,0.0,0.0,0.0,0.0,0.0,0.0,0.0,0.0,0.0,0.0,0.0,0.0,0.0,0.0,0.0,0.0,0.0,0.0,0.0,0.0,0.0,0.0,0.0,0.0,0.0,0.0,0.0,0.0,0.0,0.0,0.0,0.0,0.0,0.0,0.0,0.0,0.0,0.0,0.0,0.0,0.0,0.0,0.0,0.0,0.0,0.0,0.0,0.0,0.0,0.0,0.0,7.8993,8.0473,8.3119,8.6998,8.4631,8.3368,8.325,8.0539,0.0,0.0,0.0,0.0,0.0,0.0,0.0,0.0,0.0,0.0,0.0,0.0,0.0,0.0,0.0,0.0,0.0,0.0,0.0,0.0,0.0,0.0,0.0,0.0,0.0,0.0,0.0,4.2309,0.0,0.0,0.0,0.0,0.0,0.0,0.0,0.0,0.0,0.0,0.0,0.0,0.0,0.0,5.9802,6.1722,6.3912,6.5443,0.0,0.0,6.4877,6.36,6.4319,6.3624,0.0,0.0,0.0,0.0,0.0,0.0,0.0,0.0,0.0,0.0,0.0,0.0,0.0,0.0,0.0,0.0,0.0,0.0,0.0,0.0,0.0,0.0,0.0,0.0,0.0,0.0,0.0,0.0,0.0,0.0,0.0,0.0,0.0,0.0,0.0,0.0,0.0,0.0,0.0,0.0,0.0,0.0,0.0,0.0,0.0,0.0,0.0,0.0,0.0,0.0,0.0,0.0,0.0,0.0,7.0822,7.5951,7.8121,8.1277,8.542,8.3382,8.2527,8.3119,7.9107,7.5322,0.0,0.0,0.0,0.0,0.0,0.0,0.0,0.0,0.0,0.0,0.0,0.0,0.0,0.0,0.0,0.0,0.0,0.0,0.0,0.0,0.0,0.0,0.0,0.0,0.0,0.0,0.0,0.0,0.0,0.0,0.0,0.0,0.0,0.0,0.0,0.0,0.0,0.0,0.0,0.0,0.0,0.0,5.8872,6.0022,0.0,0.0,0.0,6.1481,6.0653,0.0,0.0,0.0,0.0,0.0,0.0,0.0,0.0,0.0,0.0,0.0,0.0,0.0,0.0,0.0,0.0,0.0,0.0,0.0,0.0,0.0,0.0,0.0,0.0,0.0,0.0,0.0,0.0,0.0,0.0,0.0,0.0,0.0,0.0,0.0,0.0,0.0,0.0,0.0,0.0,0.0,0.0,0.0,0.0,0.0,0.0,0.0,0.0,0.0,0.0,0.0,0.0,0.0,0.0,0.0,0.0,0.0,7.3584,7.6345,7.978,8.3789,8.2527,8.2395,8.3776,7.8516,7.4175,0.0,0.0,0.0,0.0,0.0,0.0,0.0,0.0,0.0,0.0,0.0,0.0,0.0,0.0,0.0,0.0,0.0,0.0,0.0,0.0,0.0,0.0,0.0,0.0,0.0,0.0,0.0,0.0,0.0,0.0,0.0,0.0,0.0,0.0,0.0,0.0,0.0,0.0,0.0,0.0,0.0,5.2394,5.6568,5.5992,5.5131,0.0,0.0,5.7867,5.8077,5.8968,0.0,0.0,0.0,0.0,0.0,0.0,0.0,0.0,0.0,0.0,0.0,0.0,0.0,0.0,0.0,0.0,0.0,0.0,0.0,0.0,0.0,0.0,0.0,0.0,0.0,0.0,0.0,0.0,0.0,0.0,0.0,0.0,0.0,0.0,0.0,0.0,0.0,0.0,0.0,0.0,0.0,0.0,0.0,0.0,0.0,0.0,0.0,0.0,0.0,0.0,0.0,0.0,0.0,0.0,0.0,0.0,7.3518,7.5359,7.8318,8.233,8.0094,7.9502,8.0817,7.6543,7.2729,0.0,0.0,0.0,0.0,0.0,0.0,0.0,0.0,0.0,0.0,0.0,0.0,0.0,0.0,0.0,0.0,0.0,0.0,0.0,0.0,0.0,0.0,0.0,0.0,0.0,0.0,0.0,0.0,0.0,0.0,0.0,0.0,0.0,0.0,0.0,0.0,0.0,0.0,0.0,0.0,0.0,5.1017,5.2617,5.376,0.0,0.0,0.0,0.0,5.7172,5.6995,0.0,0.0,0.0,0.0,0.0,0.0,0.0,0.0,0.0,0.0,0.0,0.0,0.0,0.0,0.0,0.0,0.0,0.0,0.0,0.0,0.0,0.0,0.0,0.0,0.0,0.0,0.0,0.0,0.0,0.0,0.0,0.0,0.0,0.0,0.0,0.0,0.0,0.0,0.0,0.0,0.0,0.0,0.0,0.0,0.0,0.0,0.0,0.0,0.0,0.0,0.0,0.0,0.0,0.0,0.0,0.0,7.1303,7.2992,7.6148,8.0883,7.7726,7.72,7.9831,7.5228,7.1545,0.0,0.0,0.0,0.0,0.0,0.0,0.0,0.0,0.0,0.0,0.0,0.0,0.0,0.0,0.0,0.0,0.0,0.0,0.0,0.0,0.0,0.0,0.0,0.0,0.0,0.0,0.0,0.0,0.0,0.0,0.0,0.0,0.0,0.0,0.0,0.0,0.0,0.0,0.0,0.0,4.4483,4.705,4.9049,0.0,0.0,0.0,0.0,0.0,0.0,5.3401,5.2196,0.0,0.0,0.0,0.0,0.0,0.0,0.0,0.0,0.0,0.0,0.0,0.0,0.0,0.0,0.0,0.0,0.0,0.0,0.0,0.0,0.0,0.0,0.0,0.0,0.0,0.0,0.0,0.0,0.0,0.0,0.0,0.0,0.0,0.0,0.0,0.0,0.0,0.0,0.0,0.0,0.0,0.0,0.0,0.0,0.0,0.0,0.0,0.0,0.0,0.0,0.0,0.0,0.0,0.0,0.0,6.8434,7.023,7.3715,7.8844,7.5556,7.5425,7.8713,7.3912,7.0296,6.828,0.0,0.0,0.0,0.0,0.0,0.0,0.0,0.0,0.0,0.0,0.0,0.0,0.0,0.0,0.0,0.0,0.0,0.0,0.0,0.0,0.0,0.0,0.0,0.0,0.0,0.0,0.0,0.0,0.0,0.0,0.0,0.0,0.0,0.0,0.0,0.0,0.0,0.0,0.0,4.0627,4.2623,0.0,0.0,0.0,0.0,0.0,0.0,0.0,0.0,4.8146,0.0,0.0,0.0,0.0,0.0,0.0,0.0,0.0,0.0,0.0,0.0,0.0,0.0,0.0,0.0,0.0,0.0,0.0,0.0,0.0,0.0,0.0,0.0,0.0,0.0,0.0,0.0,0.0,0.0,0.0,0.0,0.0,0.0,0.0,0.0,0.0,0.0,0.0,0.0,0.0,0.0,0.0,0.0,0.0,0.0,0.0,0.0,0.0,0.0,0.0,0.0,0.0,0.0,0.0,0.0,0.0,6.8171,7.1282,7.4504,7.4044,7.3978,7.457,7.1303,6.8323,6.5627,0.0,0.0,0.0,0.0,0.0,0.0,0.0,0.0,0.0,0.0,0.0,0.0,0.0,0.0,0.0,0.0,0.0,0.0,0.0,0.0,0.0,0.0,0.0,0.0,0.0,0.0,0.0,0.0,0.0,0.0,0.0,0.0,0.0,0.0,0.0,0.0,0.0,0.0,3.2371,3.6738,0.0,0.0,0.0,0.0,0.0,0.0,0.0,0.0,4.6543,0.0,0.0,0.0,0.0,0.0,0.0,0.0,0.0,0.0,0.0,0.0,0.0,0.0,0.0,0.0,0.0,0.0,0.0,0.0,0.0,0.0,0.0,0.0,0.0,0.0,0.0,0.0,0.0,0.0,0.0,0.0,0.0,0.0,0.0,0.0,0.0,0.0,0.0,0.0,0.0,0.0,0.0,0.0,0.0,0.0,0.0,0.0,0.0,0.0,0.0,0.0,0.0,0.0,0.0,0.0,0.0,0.0,0.0,6.9396,7.2151,7.1697,7.2026,7.3452,6.9244,6.5461,0.0,0.0,0.0,0.0,0.0,0.0,0.0,0.0,0.0,0.0,0.0,0.0,0.0,0.0,0.0,0.0,0.0,0.0,0.0,0.0,0.0,0.0,0.0,0.0,0.0,0.0,0.0,0.0,0.0,0.0,0.0,0.0,0.0,0.0,0.0,0.0,0.0,0.0,0.0,0.0,0.0,0.0,0.0,0.0,0.0,0.0,0.0,0.0,0.0,0.0,0.0,0.0,0.0,0.0,0.0,0.0,0.0,0.0,0.0,0.0,0.0,0.0,0.0,0.0,0.0,0.0,0.0,0.0,0.0,0.0,0.0,0.0,0.0,0.0,0.0,0.0,0.0,0.0,0.0,0.0,0.0,0.0,0.0,0.0,0.0,0.0,0.0,0.0,0.0,0.0,0.0,0.0,0.0,0.0,0.0,0.0,0.0,0.0,0.0,0.0,0.0,0.0,0.0,0.0,0.0,0.0,0.0,0.0,6.7126,6.9722,6.9375,7.0186,7.2157,6.7058,6.2677,0.0,0.0,0.0,0.0,0.0,0.0,0.0,0.0,0.0,0.0,0.0,0.0,0.0,0.0,0.0,0.0,0.0,0.0,0.0,0.0,0.0,0.0,0.0,0.0,0.0,0.0,0.0,0.0,0.0,0.0,0.0,0.0,0.0,0.0,0.0,0.0,0.0,0.0,0.0,0.0,0.0,0.0,0.0,0.0,0.0,0.0,0.0,0.0,3.6878,0.0,0.0,0.0,0.0,0.0,0.0,0.0,0.0,0.0,0.0,0.0,0.0,0.0,0.0,0.0,0.0,0.0,0.0,0.0,0.0,0.0,0.0,0.0,0.0,0.0,0.0,0.0,0.0,0.0,0.0,0.0,0.0,0.0,0.0,0.0,0.0,0.0,0.0,0.0,0.0,0.0,0.0,0.0,0.0,0.0,0.0,0.0,0.0,0.0,0.0,0.0,0.0,0.0,0.0,0.0,0.0,0.0,0.0,0.0,6.3535,6.5401,6.7865,6.874,6.7665,6.4543,6.074,0.0,0.0,0.0,0.0,0.0,0.0,0.0,0.0,0.0,0.0,0.0,0.0,0.0,0.0,0.0,0.0,0.0,0.0,0.0,0.0,0.0,0.0,0.0,0.0,0.0,0.0,0.0,0.0,0.0,0.0,0.0,0.0,0.0,0.0,0.0,0.0,0.0,0.0,0.0,0.0,0.0,0.0,0.0,0.0,0.0,0.0,0.0,0.0,0.0,0.0,0.0,0.0,0.0,0.0,0.0,0.0,0.0,0.0,0.0,0.0,0.0,0.0,0.0,0.0,0.0,0.0,0.0,0.0,0.0,0.0,0.0,0.0,0.0,0.0,0.0,0.0,0.0,0.0,0.0,0.0,0.0,0.0,0.0,0.0,0.0,0.0,0.0,0.0,0.0,0.0,0.0,0.0,0.0,0.0,0.0,0.0,0.0,0.0,0.0,0.0,0.0,0.0,0.0,0.0,0.0,0.0,0.0,0.0,6.1676,6.424,6.6625,6.621,6.2743,6.1263,5.8552,0.0,0.0,0.0,0.0,0.0,0.0,0.0,0.0,0.0,0.0,0.0,0.0,0.0,0.0,0.0,0.0,0.0,0.0,0.0,0.0,0.0,0.0,0.0,0.0,0.0,0.0,0.0,0.0,0.0,0.0,0.0,0.0,0.0,0.0,0.0,0.0,0.0,0.0,0.0,0.0,0.0,0.0,0.0,0.0,0.0,0.0,0.0,0.0,0.0,0.0,0.0,0.0,0.0,0.0,0.0,0.0,0.0,0.0,0.0,0.0,0.0,0.0,0.0,0.0,0.0,0.0,0.0,0.0,0.0,0.0,0.0,0.0,0.0,0.0,0.0,0.0,0.0,0.0,0.0,0.0,0.0,0.0,0.0,0.0,0.0,0.0,0.0,0.0,0.0,0.0,0.0,0.0,0.0,0.0,0.0,0.0,0.0,0.0,0.0,0.0,0.0,0.0,0.0,0.0,0.0,0.0,0.0,0.0,0.0,6.1879,6.3337,6.2347,5.8799,5.774,5.5445,0.0,0.0,0.0,0.0,0.0,0.0,0.0,0.0,0.0,0.0,0.0,0.0,0.0,0.0,0.0,0.0,0.0,0.0,0.0,0.0,0.0,0.0,0.0,0.0,0.0,0.0,0.0,0.0,0.0,0.0,0.0,0.0,0.0,0.0,0.0,0.0,0.0,0.0,0.0,0.0,0.0,0.0,0.0,0.0,0.0,0.0,0.0,0.0,0.0,0.0,0.0,0.0,0.0,0.0,0.0,0.0,0.0,0.0,0.0,0.0,0.0,0.0,0.0,0.0,0.0,0.0,0.0,0.0,0.0,0.0,0.0,0.0,0.0,0.0,0.0,0.0,0.0,0.0,0.0,0.0,0.0,0.0,0.0,0.0,0.0,0.0,0.0,0.0,0.0,0.0,0.0,0.0,0.0,0.0,0.0,0.0,0.0,0.0,0.0,0.0,0.0,0.0,0.0,0.0,0.0,0.0,0.0,0.0,0.0,5.6924,5.681,5.6729,5.6429,5.3989,5.1108,0.0,0.0,0.0,0.0,0.0,0.0,0.0,0.0,0.0,0.0,0.0,0.0,0.0,0.0,0.0,0.0,0.0,0.0,0.0,0.0,0.0,0.0,0.0,0.0,0.0,0.0,0.0,0.0,0.0,0.0,0.0,0.0,0.0,0.0,0.0,0.0,0.0,0.0,0.0,0.0,0.0,0.0,0.0,0.0,0.0,0.0,0.0,0.0,0.0,0.0,0.0,0.0,0.0,0.0,0.0,0.0,0.0,0.0,0.0,0.0,0.0,0.0,0.0,0.0,0.0,0.0,0.0,0.0,0.0,0.0,0.0,0.0,0.0,0.0,0.0,0.0,0.0,0.0,0.0,0.0,0.0,0.0,0.0,0.0,0.0,0.0,0.0,0.0,0.0,0.0,0.0,0.0,0.0,0.0,0.0,0.0,0.0,0.0,0.0,0.0,0.0,0.0,0.0,0.0,0.0,0.0,0.0,0.0,0.0,5.2419,5.2481,5.223,5.1455,5.0497,4.8105,4.435,0.0,0.0,0.0,0.0,0.0,0.0,0.0,0.0,0.0,0.0,0.0,0.0,0.0,0.0,0.0,0.0,0.0,0.0,0.0,0.0,0.0,0.0,0.0,0.0,0.0,0.0,0.0,0.0,0.0,0.0,0.0,0.0,0.0,0.0,0.0,0.0,0.0,0.0,0.0,0.0,0.0,0.0,0.0,0.0,0.0,0.0,0.0,0.0,0.0,0.0,0.0,0.0,0.0,0.0,0.0,0.0,0.0,0.0,0.0,0.0,0.0,0.0,0.0,0.0,0.0,0.0,0.0,0.0,0.0,0.0,0.0,0.0,0.0,0.0,0.0,0.0,0.0,0.0,0.0,0.0,0.0,0.0,0.0,0.0,0.0,0.0,0.0,0.0,0.0,0.0,0.0,0.0,0.0,0.0,0.0,0.0,0.0,0.0,0.0,0.0,0.0,0.0,0.0,0.0,0.0,0.0,0.0,0.0,4.8956,4.8796,4.835,4.7571,4.6755,4.4973,0.0,0.0,0.0,0.0,0.0,0.0,0.0,0.0,0.0,0.0,0.0,0.0,0.0,0.0,0.0,0.0,0.0,0.0,0.0,0.0,0.0,0.0,0.0,0.0,0.0,0.0,0.0,0.0,0.0,0.0,0.0,0.0,0.0,0.0,0.0,0.0,0.0,0.0,0.0,0.0,0.0,0.0,0.0,0.0,0.0,0.0,0.0,0.0,0.0,0.0,0.0,0.0,0.0,0.0,0.0,0.0,0.0,0.0,0.0,0.0,0.0,0.0,0.0,0.0,0.0,0.0,0.0,0.0,0.0,0.0,0.0,0.0,0.0,0.0,0.0,0.0,0.0,0.0,0.0,0.0,0.0,0.0,0.0,0.0,0.0,0.0,0.0,0.0,0.0,0.0,0.0,0.0,0.0,0.0,0.0,0.0,0.0,0.0,0.0,0.0,0.0,0.0,0.0,0.0,0.0,0.0,0.0,0.0,4.518,4.6726,4.5777,4.5238,4.5235,4.2974,4.143,0.0,0.0,0.0,0.0,0.0,0.0,0.0,0.0,0.0,0.0,0.0,0.0,0.0,0.0,0.0,0.0,0.0,0.0,0.0,0.0,0.0,0.0,0.0,0.0,0.0,0.0,0.0,0.0,0.0,0.0,0.0,0.0,0.0,0.0,0.0,0.0,0.0,0.0,0.0,0.0,0.0,0.0,0.0,0.0,0.0,0.0,0.0,0.0,0.0,0.0,0.0,0.0,0.0,0.0,0.0,0.0,0.0,0.0,0.0,0.0,0.0,0.0,0.0,0.0,0.0,0.0,0.0,0.0,0.0,0.0,0.0,0.0,0.0,0.0,0.0,0.0,0.0,0.0,0.0,0.0,0.0,0.0,0.0,0.0,0.0,0.0,0.0,0.0,0.0,0.0,0.0,0.0,0.0,0.0,0.0,0.0,0.0,0.0,0.0,0.0,0.0,0.0,0.0,0.0,0.0,0.0,0.0,0.0,0.0,4.3787,4.3588,4.311,4.2296,4.1429,4.0529,0.0,0.0,0.0,0.0,0.0,0.0,0.0,0.0,0.0,0.0,0.0,0.0,0.0,0.0,0.0,0.0,0.0,0.0,0.0,0.0,0.0,0.0,0.0,0.0,0.0,0.0,0.0,0.0,0.0,0.0,0.0,0.0,0.0,0.0,0.0,0.0,0.0,0.0,0.0,0.0,0.0,0.0,0.0,0.0,0.0,0.0,0.0,0.0,0.0,0.0,0.0,0.0,0.0,0.0,0.0,0.0,0.0,0.0,0.0,0.0,0.0,0.0,0.0,0.0,0.0,0.0,0.0,0.0,0.0,0.0,0.0,0.0,0.0,0.0,0.0,0.0,0.0,0.0,0.0,0.0,0.0,0.0,0.0,0.0,0.0,0.0,0.0,0.0,0.0,0.0,0.0,0.0,0.0,0.0,0.0,0.0,0.0,0.0,0.0,0.0,0.0,0.0,0.0,0.0,0.0,0.0,0.0,0.0,0.0,4.1566,4.2282,4.1946,4.0676,4.0184,3.9467,0.0,0.0,0.0,0.0,0.0,0.0,0.0,0.0,0.0,0.0,0.0,0.0,0.0,0.0,0.0,0.0,0.0,0.0,0.0,0.0,0.0,0.0,0.0,0.0,0.0,0.0,0.0,0.0,0.0,0.0,0.0,0.0,0.0,0.0,0.0,0.0,0.0,0.0,0.0,0.0,0.0,0.0,0.0,0.0,0.0,0.0,0.0,0.0,0.0,0.0,0.0,0.0,0.0,0.0,0.0,0.0,0.0,0.0,0.0,0.0,0.0,0.0,0.0,0.0,0.0,0.0,0.0,0.0,0.0,0.0,0.0,0.0,0.0,0.0,0.0,0.0,0.0,0.0,0.0,0.0,0.0,0.0,0.0,0.0,0.0,0.0,0.0,0.0,0.0,0.0,0.0,0.0,0.0,0.0,0.0,0.0,0.0,0.0,0.0,0.0,0.0,0.0,0.0,0.0,0.0,0.0,0.0,0.0,0.0,4.0156,4.1357,4.1415,4.0135,3.8914,3.825,0.0,0.0,0.0,0.0,0.0,0.0,0.0,0.0,0.0,0.0,0.0,0.0,0.0,0.0,0.0,0.0,0.0,0.0,0.0,0.0,0.0,0.0,0.0,0.0,0.0,0.0,0.0,0.0,0.0,0.0,0.0,0.0,0.0,0.0,0.0,0.0,0.0,0.0,0.0,0.0,0.0,0.0,0.0,0.0,0.0,0.0,0.0,0.0,0.0,0.0,0.0,0.0,0.0,0.0,0.0,0.0,0.0,0.0,0.0,0.0,0.0,0.0,0.0,0.0,0.0,0.0,0.0,0.0,0.0,0.0,0.0,0.0,0.0,0.0,0.0,0.0,0.0,0.0,0.0,0.0,0.0,0.0,0.0,0.0,0.0,0.0,0.0,0.0,0.0,0.0,0.0,0.0,0.0,0.0,0.0,0.0,0.0,0.0,0.0,0.0,0.0,0.0,0.0,0.0,0.0,0.0,0.0,0.0,0.0,0.0,3.9074,3.9146,3.8833,3.8483,3.7808,3.6878,0.0,0.0,0.0,0.0,0.0,0.0,0.0,0.0,0.0,0.0,0.0,0.0,0.0,0.0,0.0,0.0,0.0,0.0,0.0,0.0,0.0,0.0,0.0,0.0,0.0,0.0,0.0,0.0,0.0,0.0,0.0,0.0,0.0,0.0,0.0,0.0,0.0,0.0,0.0,0.0,0.0,0.0,0.0,0.0,0.0,0.0,0.0,0.0,0.0,0.0,0.0,0.0,0.0,0.0,0.0,0.0,0.0,0.0,0.0,0.0,0.0,0.0,0.0,0.0,0.0,0.0,0.0,0.0,0.0,0.0,0.0,0.0,0.0,0.0,0.0,0.0,0.0,0.0,0.0,0.0,0.0,0.0,0.0,0.0,0.0,0.0,0.0,0.0,0.0,0.0,0.0,0.0,0.0,0.0,0.0,0.0,0.0,0.0,0.0,0.0,0.0,0.0,0.0,0.0,0.0,0.0,0.0,0.0,0.0,0.0,3.8204,3.8168,3.8274,3.7727,0.0,0.0,0.0,0.0,0.0,0.0,0.0,0.0,0.0,0.0,0.0,0.0,0.0,0.0,0.0,0.0,0.0,0.0,0.0,0.0,0.0,0.0,0.0,0.0,0.0,0.0,0.0,0.0,0.0,0.0,0.0,0.0,0.0,0.0,0.0,0.0,0.0,0.0,0.0,0.0,0.0,0.0,0.0,0.0,0.0,0.0,0.0,0.0,0.0,0.0,0.0,0.0,0.0,0.0,0.0,0.0,0.0,0.0,0.0,0.0,0.0,0.0,0.0,0.0,0.0,0.0,0.0,0.0,0.0,0.0,0.0,0.0,0.0,0.0,0.0,0.0,0.0,0.0,0.0,0.0,0.0,0.0,0.0,0.0,0.0,0.0,0.0,0.0,0.0,0.0,0.0,0.0,0.0,0.0,0.0,0.0,0.0,0.0,0.0,0.0,0.0,0.0,0.0,0.0,0.0,0.0,0.0,0.0,0.0,0.0,0.0,3.805,3.805,3.8204,0.0,3.6587,0.0,0.0,0.0,0.0,0.0,0.0,0.0,0.0,0.0,0.0,0.0,0.0,0.0,0.0,0.0,0.0,0.0,0.0,0.0,0.0,0.0,0.0,0.0,0.0,0.0,0.0,0.0,0.0,0.0,0.0,0.0,0.0,0.0,0.0,0.0,0.0,0.0,0.0,0.0,0.0,0.0,0.0,0.0,0.0,0.0,0.0,0.0,0.0,0.0,0.0,0.0,0.0,0.0,0.0,0.0,0.0,0.0,0.0,0.0,0.0,0.0,0.0,0.0,0.0,0.0,0.0,0.0,0.0,0.0,0.0,0.0,0.0,0.0,0.0,0.0,0.0,0.0,0.0,0.0,0.0,0.0,0.0,0.0,0.0,0.0,0.0,0.0,0.0,0.0,0.0,0.0,0.0,0.0,0.0,0.0,0.0,0.0,0.0,0.0,0.0,0.0,0.0,0.0,0.0,0.0,0.0,0.0,0.0,0.0,0.0,0.0,0.0,3.805,3.804,3.7693,0.0,0.0,0.0,0.0,0.0,0.0,0.0,0.0,0.0,0.0,0.0,0.0,0.0,0.0,0.0,0.0,0.0,0.0,0.0,0.0,0.0,0.0,0.0,0.0,0.0,0.0,0.0,0.0,0.0,0.0,0.0,0.0,0.0,0.0,0.0,0.0,0.0,0.0,0.0,0.0,0.0,0.0,0.0,0.0,0.0,0.0,0.0,0.0,0.0,0.0,0.0,0.0,0.0,0.0,0.0,0.0,0.0,0.0,0.0,0.0,0.0,0.0,0.0,0.0,0.0,0.0,0.0,0.0,0.0,0.0,0.0,0.0,0.0,0.0,0.0,0.0,0.0,0.0,0.0,0.0,0.0,0.0,0.0,0.0,0.0,0.0,0.0,0.0,0.0,0.0,0.0,0.0,0.0,0.0,0.0,0.0,0.0,0.0,0.0,0.0,0.0,0.0,0.0,0.0,0.0,0.0,0.0,0.0,0.0,0.0,3.7239,3.7368,3.7693,3.7979,3.8027,0.0,0.0,0.0,0.0,0.0,0.0,0.0,0.0,0.0,0.0,0.0,0.0,0.0,0.0,0.0,0.0,0.0,0.0,0.0,0.0,0.0,0.0,0.0,0.0,0.0,0.0,0.0,0.0,0.0,0.0,0.0,0.0,0.0,0.0,0.0,0.0,0.0,0.0,0.0,0.0,0.0,0.0,0.0,0.0,0.0,0.0,0.0,0.0,0.0,0.0,0.0,0.0,0.0,0.0,0.0,0.0,0.0,0.0,0.0,0.0,0.0,0.0,0.0,0.0,0.0,0.0,0.0,0.0,0.0,0.0,0.0,0.0,0.0,0.0,0.0,0.0,0.0,0.0,0.0,0.0,0.0,0.0,0.0,0.0,0.0,0.0,0.0,0.0,0.0,0.0,0.0,0.0,0.0,0.0,0.0,0.0,0.0,0.0,0.0,0.0,0.0,0.0,0.0,0.0,0.0,0.0,0.0,0.0,0.0,0.0,3.6244,0.0,0.0,0.0,3.7796,0.0,0.0,0.0,0.0,0.0,0.0,0.0,0.0,0.0,0.0,0.0,0.0,0.0,0.0,0.0,0.0,0.0,0.0,0.0,0.0,0.0,0.0,0.0,0.0,0.0,0.0,0.0,0.0,0.0,0.0,0.0,0.0,0.0,0.0,0.0,0.0,0.0,0.0,0.0,0.0,0.0,0.0,0.0,0.0,0.0,0.0,0.0,0.0,0.0,0.0,0.0,0.0,0.0,0.0,0.0,0.0,0.0,0.0,0.0,0.0,0.0,0.0,0.0,0.0,0.0,0.0,0.0,0.0,0.0,0.0,0.0,0.0,0.0,0.0,0.0,0.0,0.0,0.0,0.0,0.0,0.0,0.0,0.0,0.0,0.0,0.0,0.0,0.0,0.0,0.0,0.0,0.0,0.0,0.0,0.0,0.0,0.0,0.0,0.0,0.0,0.0,0.0,0.0,0.0,0.0,0.0,0.0,0.0,0.0,0.0,0.0,0.0,0.0,0.0,0.0,0.0,0.0,0.0,0.0,0.0,0.0,0.0,0.0,0.0,0.0,0.0,0.0,0.0,0.0,0.0,0.0,0.0,0.0,0.0,0.0,0.0,0.0,0.0,0.0,0.0,0.0,0.0,0.0,0.0,0.0,0.0,0.0,0.0,0.0,0.0,0.0,0.0,0.0,0.0,0.0,0.0,0.0,0.0,0.0,0.0,0.0,0.0,0.0,0.0,0.0,0.0,0.0,0.0,0.0,0.0,0.0,0.0,0.0,0.0,0.0,0.0,0.0,0.0,0.0,0.0,0.0,0.0,0.0,0.0,0.0,0.0,0.0,0.0,0.0,0.0,0.0,0.0,0.0,0.0,0.0,0.0,0.0,0.0,0.0,0.0,0.0,0.0,0.0,0.0,0.0,0.0,0.0,0.0,0.0,0.0,0.0,0.0,0.0,0.0,0.0,0.0,0.0,0.0,0.0,0.0,0.0,0.0,0.0,0.0,0.0,0.0,0.0,0.0,0.0,0.0,0.0,0.0,0.0,0.0,0.0,0.0,0.0,0.0,0.0,0.0,0.0,0.0,0.0,0.0,0.0,0.0,0.0,0.0,0.0,0.0,0.0,0.0,0.0,0.0,0.0,0.0,0.0,0.0,0.0,0.0,0.0,0.0,0.0,0.0,0.0,0.0,0.0,0.0,0.0,0.0,0.0,0.0,0.0,0.0,0.0,0.0,0.0,0.0,0.0,0.0,0.0,0.0,0.0,0.0,0.0,0.0,0.0,0.0,0.0,0.0,0.0,0.0,0.0,0.0,0.0,0.0,0.0,0.0,0.0,0.0,0.0,0.0,0.0,0.0,0.0,0.0,0.0,0.0,0.0,0.0,0.0,0.0,0.0,0.0,0.0,0.0,0.0,0.0,0.0,0.0,0.0,0.0,0.0,0.0,0.0,0.0,0.0,0.0,0.0,0.0,0.0,0.0,0.0,0.0,0.0,0.0,0.0,0.0,0.0,0.0,0.0,0.0,0.0,0.0,0.0,0.0,0.0,0.0,0.0,0.0,0.0,0.0,0.0,0.0,0.0,0.0,0.0,0.0,0.0,0.0,0.0,0.0,0.0,0.0,0.0,0.0,0.0,0.0,0.0,0.0,0.0,0.0,0.0,0.0,0.0,0.0,0.0,0.0,0.0,0.0,0.0,0.0,0.0,0.0,0.0,0.0,0.0,0.0,0.0,0.0,0.0,0.0,0.0,0.0,0.0,0.0,0.0,0.0,0.0,0.0,0.0,0.0,0.0,0.0,0.0,0.0,0.0,0.0,0.0,0.0,0.0,0.0,0.0,0.0,0.0,0.0,0.0,0.0,0.0,0.0,0.0,0.0,0.0,0.0,0.0,0.0,0.0,0.0,0.0,0.0,0.0,0.0,0.0,0.0,0.0,0.0,0.0,0.0,0.0,0.0,0.0,0.0,0.0,0.0,0.0,0.0,0.0,0.0,0.0,0.0,0.0,0.0,0.0,0.0,0.0,0.0,0.0,0.0,0.0,0.0,0.0,0.0,0.0,0.0,0.0,0.0,0.0,0.0,0.0,0.0,0.0,0.0,0.0,0.0,0.0,0.0,0.0,0.0,0.0,0.0,0.0,0.0,0.0,0.0,0.0,0.0,0.0,0.0,0.0,0.0,0.0,0.0,0.0,0.0,0.0,0.0,0.0,0.0,0.0,0.0,0.0,0.0,0.0,0.0,0.0,0.0,0.0,0.0,0.0,0.0,0.0,0.0,0.0,0.0,0.0,0.0,0.0,0.0,0.0,0.0,0.0,0.0,0.0,0.0,0.0,0.0,0.0,0.0,0.0,0.0,0.0,0.0,0.0,0.0,0.0,0.0,0.0,0.0,0.0,0.0,0.0,0.0,0.0,0.0,0.0,0.0,0.0,0.0,0.0,0.0,0.0,0.0,0.0,0.0,0.0,0.0,0.0,0.0,0.0,0.0,0.0,0.0,0.0,0.0,0.0,0.0,0.0,0.0,0.0,0.0,0.0,0.0,0.0,0.0,0.0,0.0,0.0,0.0,0.0,0.0,0.0,0.0,0.0,0.0,0.0,0.0,0.0,0.0,0.0,0.0,0.0,0.0,0.0,0.0,0.0,0.0,0.0,0.0,0.0,0.0,0.0,0.0,0.0,0.0,0.0,0.0,0.0,0.0,0.0,0.0,0.0,0.0,0.0,0.0,0.0,0.0,0.0,0.0,0.0,0.0,0.0,0.0,0.0,0.0,0.0,0.0,0.0,0.0,0.0,0.0,0.0,0.0,0.0,0.0,0.0,0.0,0.0,0.0,0.0,0.0,0.0,0.0,0.0,0.0,0.0,0.0,0.0,0.0,0.0,0.0,0.0,0.0,0.0,0.0,0.0,0.0,0.0,0.0,0.0,0.0,0.0,0.0,0.0,0.0,0.0,0.0,0.0,0.0,0.0,0.0,0.0,0.0,0.0,0.0,0.0,0.0,0.0,0.0,0.0,0.0,0.0,0.0,0.0,0.0,0.0,0.0,0.0,0.0,0.0,0.0,0.0,0.0,0.0,0.0,0.0,0.0,0.0,0.0,0.0,0.0,0.0,0.0,0.0,0.0,0.0,0.0,0.0,0.0,0.0,0.0,0.0,0.0,0.0,0.0,0.0,0.0,0.0,0.0,0.0,0.0,0.0,0.0,0.0,0.0,0.0,0.0,0.0,0.0,0.0,0.0,0.0,0.0,0.0,0.0,0.0,0.0,0.0,0.0,0.0,0.0,0.0,0.0,0.0,0.0,0.0,0.0,0.0,0.0,0.0,0.0,0.0,0.0,0.0,0.0,0.0,0.0,0.0,0.0,0.0,0.0,0.0,0.0,0.0,0.0,0.0,0.0,0.0,0.0,0.0,0.0,0.0,0.0,0.0,0.0,0.0,0.0,0.0,0.0,0.0,0.0,0.0,0.0,0.0,0.0,0.0,0.0,0.0,0.0,0.0,0.0,0.0,0.0,0.0,0.0,0.0,0.0,0.0,0.0,0.0,0.0,0.0,0.0,0.0,0.0,0.0,0.0,0.0,0.0,0.0,0.0,0.0,0.0,0.0,0.0,0.0,0.0,0.0,0.0,0.0,0.0,0.0,0.0,0.0,0.0,0.0,0.0,0.0,0.0,0.0,0.0,0.0,0.0,0.0,0.0,0.0,0.0,0.0,0.0,0.0,0.0,0.0,0.0,0.0,0.0,0.0,0.0,0.0,0.0,0.0,0.0,0.0,0.0,0.0,0.0,0.0,0.0,0.0,0.0,0.0,0.0,0.0,0.0,0.0,0.0,0.0,0.0,0.0,0.0,0.0,0.0,0.0,0.0,0.0,0.0,0.0,0.0,0.0,0.0,0.0,0.0,0.0,0.0,0.0,0.0,0.0,0.0,0.0,0.0,0.0,0.0,0.0,0.0,0.0,0.0,0.0,0.0,0.0,0.0,0.0,0.0,0.0,0.0,0.0,0.0,0.0,0.0,0.0,0.0,0.0,0.0,0.0,0.0,0.0,0.0,0.0,0.0,0.0,0.0,0.0,0.0,0.0,0.0,0.0,0.0,0.0,0.0,0.0,0.0,0.0,0.0,0.0,0.0,0.0,0.0,0.0,0.0,0.0,0.0,0.0,0.0,0.0,0.0,0.0,0.0,0.0,0.0,0.0,0.0,0.0,0.0,0.0,0.0,0.0,0.0,0.0,0.0,0.0,0.0,0.0,0.0,0.0,0.0,0.0,0.0,0.0,0.0,0.0,0.0,0.0,0.0,0.0,0.0,0.0,0.0,0.0,0.0,0.0,0.0,0.0,0.0,0.0,0.0,0.0,0.0,0.0,0.0,0.0,0.0]}]]]